<?xml version="1.0" encoding="UTF-8" standalone="no" ?><gpx xmlns="http://www.topografix.com/GPX/1/1" xmlns:gpxx="http://www.garmin.com/xmlschemas/GpxExtensions/v3" xmlns:wptx1="http://www.garmin.com/xmlschemas/WaypointExtension/v1" xmlns:gpxtpx="http://www.garmin.com/xmlschemas/TrackPointExtension/v1" creator="GuideVTT.com" version="1.1" xmlns:xsi="http://www.w3.org/2001/XMLSchema-instance" xsi:schemaLocation="http://www.topografix.com/GPX/1/1 http://www.topografix.com/GPX/1/1/gpx.xsd http://www.garmin.com/xmlschemas/GpxExtensions/v3 http://www8.garmin.com/xmlschemas/GpxExtensionsv3.xsd http://www.garmin.com/xmlschemas/WaypointExtension/v1 http://www8.garmin.com/xmlschemas/WaypointExtensionv1.xsd http://www.garmin.com/xmlschemas/TrackPointExtension/v1 http://www.garmin.com/xmlschemas/TrackPointExtensionv1.xsd">
<metadata><link href="http://www.garmin.com"><text>Garmin International</text></link><time>2013-06-22T15:13:50Z</time></metadata>
<trk><name>00000_20110322.gpx</name><extensions><gpxx:TrackExtension><gpxx:DisplayColor>Cyan</gpxx:DisplayColor></gpxx:TrackExtension></extensions><trkseg>
<trkpt lat="42.289760" lon="3.279853"><ele>-50.5</ele><time>2011-03-22T08:32:28Z</time></trkpt>
<trkpt lat="42.289745" lon="3.279852"><ele>-50.5</ele><time>2011-03-22T08:32:32Z</time></trkpt>
<trkpt lat="42.289783" lon="3.279588"><ele>-50.5</ele><time>2011-03-22T08:32:37Z</time></trkpt>
<trkpt lat="42.289772" lon="3.280018"><ele>-50.5</ele><time>2011-03-22T08:32:42Z</time></trkpt>
<trkpt lat="42.289745" lon="3.279843"><ele>-50.5</ele><time>2011-03-22T08:32:47Z</time></trkpt>
<trkpt lat="42.289772" lon="3.279842"><ele>-50.5</ele><time>2011-03-22T08:32:52Z</time></trkpt>
<trkpt lat="42.289825" lon="3.279778"><ele>-50.5</ele><time>2011-03-22T08:32:57Z</time></trkpt>
<trkpt lat="42.289955" lon="3.279753"><ele>-50.5</ele><time>2011-03-22T08:33:02Z</time></trkpt>
<trkpt lat="42.290070" lon="3.279273"><ele>19.5</ele><time>2011-03-22T08:33:07Z</time></trkpt>
<trkpt lat="42.290173" lon="3.279220"><ele>20.3</ele><time>2011-03-22T08:33:12Z</time></trkpt>
<trkpt lat="42.290280" lon="3.279155"><ele>20.7</ele><time>2011-03-22T08:33:17Z</time></trkpt>
<trkpt lat="42.290398" lon="3.279053"><ele>21.2</ele><time>2011-03-22T08:33:22Z</time></trkpt>
<trkpt lat="42.290535" lon="3.278948"><ele>21.8</ele><time>2011-03-22T08:33:27Z</time></trkpt>
<trkpt lat="42.290707" lon="3.278823"><ele>20.5</ele><time>2011-03-22T08:33:32Z</time></trkpt>
<trkpt lat="42.290863" lon="3.278798"><ele>22.4</ele><time>2011-03-22T08:33:37Z</time></trkpt>
<trkpt lat="42.290893" lon="3.278635"><ele>24.1</ele><time>2011-03-22T08:33:41Z</time></trkpt>
<trkpt lat="42.290837" lon="3.278475"><ele>24.2</ele><time>2011-03-22T08:33:46Z</time></trkpt>
<trkpt lat="42.290757" lon="3.278362"><ele>22.6</ele><time>2011-03-22T08:33:51Z</time></trkpt>
<trkpt lat="42.290692" lon="3.278277"><ele>26.5</ele><time>2011-03-22T08:33:56Z</time></trkpt>
<trkpt lat="42.290642" lon="3.278185"><ele>28.8</ele><time>2011-03-22T08:34:01Z</time></trkpt>
<trkpt lat="42.290588" lon="3.277992"><ele>24.6</ele><time>2011-03-22T08:34:06Z</time></trkpt>
<trkpt lat="42.290543" lon="3.277878"><ele>26.3</ele><time>2011-03-22T08:34:11Z</time></trkpt>
<trkpt lat="42.290478" lon="3.277763"><ele>29.7</ele><time>2011-03-22T08:34:16Z</time></trkpt>
<trkpt lat="42.290420" lon="3.277647"><ele>27.5</ele><time>2011-03-22T08:34:21Z</time></trkpt>
<trkpt lat="42.290352" lon="3.277478"><ele>25.5</ele><time>2011-03-22T08:34:26Z</time></trkpt>
<trkpt lat="42.290280" lon="3.277243"><ele>23.7</ele><time>2011-03-22T08:34:31Z</time></trkpt>
<trkpt lat="42.290210" lon="3.276980"><ele>24.6</ele><time>2011-03-22T08:34:36Z</time></trkpt>
<trkpt lat="42.290195" lon="3.276717"><ele>23.6</ele><time>2011-03-22T08:34:41Z</time></trkpt>
<trkpt lat="42.290215" lon="3.276395"><ele>22.3</ele><time>2011-03-22T08:34:46Z</time></trkpt>
<trkpt lat="42.290138" lon="3.276078"><ele>19.9</ele><time>2011-03-22T08:34:51Z</time></trkpt>
<trkpt lat="42.290038" lon="3.275853"><ele>18.1</ele><time>2011-03-22T08:34:56Z</time></trkpt>
<trkpt lat="42.289928" lon="3.275853"><ele>22.5</ele><time>2011-03-22T08:35:01Z</time></trkpt>
<trkpt lat="42.289890" lon="3.276063"><ele>24.7</ele><time>2011-03-22T08:35:06Z</time></trkpt>
<trkpt lat="42.289848" lon="3.276297"><ele>31.7</ele><time>2011-03-22T08:35:11Z</time></trkpt>
<trkpt lat="42.289803" lon="3.276578"><ele>36</ele><time>2011-03-22T08:35:16Z</time></trkpt>
<trkpt lat="42.289742" lon="3.276882"><ele>35.9</ele><time>2011-03-22T08:35:21Z</time></trkpt>
<trkpt lat="42.289635" lon="3.277145"><ele>25.1</ele><time>2011-03-22T08:35:26Z</time></trkpt>
<trkpt lat="42.289470" lon="3.277357"><ele>21</ele><time>2011-03-22T08:35:31Z</time></trkpt>
<trkpt lat="42.289337" lon="3.277648"><ele>14.7</ele><time>2011-03-22T08:35:36Z</time></trkpt>
<trkpt lat="42.289127" lon="3.277795"><ele>10.8</ele><time>2011-03-22T08:35:41Z</time></trkpt>
<trkpt lat="42.288922" lon="3.277892"><ele>7.8</ele><time>2011-03-22T08:35:46Z</time></trkpt>
<trkpt lat="42.288747" lon="3.277938"><ele>6.7</ele><time>2011-03-22T08:35:51Z</time></trkpt>
<trkpt lat="42.288620" lon="3.277745"><ele>7.2</ele><time>2011-03-22T08:35:56Z</time></trkpt>
<trkpt lat="42.288487" lon="3.277495"><ele>8.2</ele><time>2011-03-22T08:36:01Z</time></trkpt>
<trkpt lat="42.288353" lon="3.277277"><ele>9.1</ele><time>2011-03-22T08:36:06Z</time></trkpt>
<trkpt lat="42.288193" lon="3.277163"><ele>9.9</ele><time>2011-03-22T08:36:11Z</time></trkpt>
<trkpt lat="42.287975" lon="3.277188"><ele>15.5</ele><time>2011-03-22T08:36:16Z</time></trkpt>
<trkpt lat="42.287765" lon="3.277302"><ele>15.5</ele><time>2011-03-22T08:36:21Z</time></trkpt>
<trkpt lat="42.287572" lon="3.277413"><ele>14.6</ele><time>2011-03-22T08:36:26Z</time></trkpt>
<trkpt lat="42.287427" lon="3.277293"><ele>11.4</ele><time>2011-03-22T08:36:31Z</time></trkpt>
<trkpt lat="42.287430" lon="3.277017"><ele>9.3</ele><time>2011-03-22T08:36:36Z</time></trkpt>
<trkpt lat="42.287475" lon="3.276725"><ele>7.9</ele><time>2011-03-22T08:36:41Z</time></trkpt>
<trkpt lat="42.287510" lon="3.276425"><ele>4.3</ele><time>2011-03-22T08:36:46Z</time></trkpt>
<trkpt lat="42.287468" lon="3.276140"><ele>3.4</ele><time>2011-03-22T08:36:51Z</time></trkpt>
<trkpt lat="42.287288" lon="3.275978"><ele>3.3</ele><time>2011-03-22T08:36:56Z</time></trkpt>
<trkpt lat="42.287078" lon="3.275988"><ele>4.8</ele><time>2011-03-22T08:37:01Z</time></trkpt>
<trkpt lat="42.286965" lon="3.276167"><ele>6.6</ele><time>2011-03-22T08:37:06Z</time></trkpt>
<trkpt lat="42.286743" lon="3.276262"><ele>10</ele><time>2011-03-22T08:37:11Z</time></trkpt>
<trkpt lat="42.286587" lon="3.276457"><ele>18.2</ele><time>2011-03-22T08:37:16Z</time></trkpt>
<trkpt lat="42.286397" lon="3.276517"><ele>23.7</ele><time>2011-03-22T08:37:21Z</time></trkpt>
<trkpt lat="42.286235" lon="3.276628"><ele>23.3</ele><time>2011-03-22T08:37:26Z</time></trkpt>
<trkpt lat="42.286087" lon="3.276742"><ele>20.6</ele><time>2011-03-22T08:37:31Z</time></trkpt>
<trkpt lat="42.285920" lon="3.276652"><ele>18.7</ele><time>2011-03-22T08:37:36Z</time></trkpt>
<trkpt lat="42.285838" lon="3.276280"><ele>16.3</ele><time>2011-03-22T08:37:41Z</time></trkpt>
<trkpt lat="42.285710" lon="3.276058"><ele>21.3</ele><time>2011-03-22T08:37:46Z</time></trkpt>
<trkpt lat="42.285577" lon="3.275932"><ele>22.2</ele><time>2011-03-22T08:37:51Z</time></trkpt>
<trkpt lat="42.285453" lon="3.275713"><ele>22.8</ele><time>2011-03-22T08:37:56Z</time></trkpt>
<trkpt lat="42.285313" lon="3.275555"><ele>25.4</ele><time>2011-03-22T08:38:01Z</time></trkpt>
<trkpt lat="42.285175" lon="3.275583"><ele>22.8</ele><time>2011-03-22T08:38:06Z</time></trkpt>
<trkpt lat="42.284992" lon="3.275660"><ele>25.4</ele><time>2011-03-22T08:38:11Z</time></trkpt>
<trkpt lat="42.284863" lon="3.275488"><ele>29.1</ele><time>2011-03-22T08:38:16Z</time></trkpt>
<trkpt lat="42.284657" lon="3.275283"><ele>30.9</ele><time>2011-03-22T08:38:21Z</time></trkpt>
<trkpt lat="42.284390" lon="3.275183"><ele>28.5</ele><time>2011-03-22T08:38:26Z</time></trkpt>
<trkpt lat="42.284337" lon="3.275178"><ele>25.4</ele><time>2011-03-22T08:38:31Z</time></trkpt>
<trkpt lat="42.284337" lon="3.275188"><ele>21.4</ele><time>2011-03-22T08:38:36Z</time></trkpt>
<trkpt lat="42.284313" lon="3.275205"><ele>16.9</ele><time>2011-03-22T08:38:41Z</time></trkpt>
<trkpt lat="42.284160" lon="3.275260"><ele>11.1</ele><time>2011-03-22T08:38:46Z</time></trkpt>
<trkpt lat="42.283967" lon="3.275393"><ele>8.5</ele><time>2011-03-22T08:38:51Z</time></trkpt>
<trkpt lat="42.283775" lon="3.275545"><ele>6.8</ele><time>2011-03-22T08:38:56Z</time></trkpt>
<trkpt lat="42.283607" lon="3.275667"><ele>6.2</ele><time>2011-03-22T08:39:01Z</time></trkpt>
<trkpt lat="42.283432" lon="3.275780"><ele>5.4</ele><time>2011-03-22T08:39:06Z</time></trkpt>
<trkpt lat="42.283227" lon="3.275843"><ele>6</ele><time>2011-03-22T08:39:11Z</time></trkpt>
<trkpt lat="42.283038" lon="3.275682"><ele>6.6</ele><time>2011-03-22T08:39:16Z</time></trkpt>
<trkpt lat="42.282810" lon="3.275533"><ele>16.2</ele><time>2011-03-22T08:39:21Z</time></trkpt>
<trkpt lat="42.282605" lon="3.275503"><ele>16.2</ele><time>2011-03-22T08:39:26Z</time></trkpt>
<trkpt lat="42.282437" lon="3.275503"><ele>16.7</ele><time>2011-03-22T08:39:31Z</time></trkpt>
<trkpt lat="42.282315" lon="3.275547"><ele>17</ele><time>2011-03-22T08:39:36Z</time></trkpt>
<trkpt lat="42.282218" lon="3.275617"><ele>15.6</ele><time>2011-03-22T08:39:41Z</time></trkpt>
<trkpt lat="42.282120" lon="3.275633"><ele>14.8</ele><time>2011-03-22T08:39:46Z</time></trkpt>
<trkpt lat="42.282020" lon="3.275612"><ele>14.5</ele><time>2011-03-22T08:39:51Z</time></trkpt>
<trkpt lat="42.281940" lon="3.275593"><ele>15.2</ele><time>2011-03-22T08:39:56Z</time></trkpt>
<trkpt lat="42.281857" lon="3.275575"><ele>18.3</ele><time>2011-03-22T08:40:01Z</time></trkpt>
<trkpt lat="42.281773" lon="3.275528"><ele>21.2</ele><time>2011-03-22T08:40:06Z</time></trkpt>
<trkpt lat="42.281693" lon="3.275488"><ele>21.8</ele><time>2011-03-22T08:40:11Z</time></trkpt>
<trkpt lat="42.281612" lon="3.275448"><ele>22</ele><time>2011-03-22T08:40:16Z</time></trkpt>
<trkpt lat="42.281540" lon="3.275422"><ele>21.9</ele><time>2011-03-22T08:40:21Z</time></trkpt>
<trkpt lat="42.281467" lon="3.275385"><ele>22.1</ele><time>2011-03-22T08:40:26Z</time></trkpt>
<trkpt lat="42.281398" lon="3.275368"><ele>21.9</ele><time>2011-03-22T08:40:31Z</time></trkpt>
<trkpt lat="42.281338" lon="3.275328"><ele>22.3</ele><time>2011-03-22T08:40:36Z</time></trkpt>
<trkpt lat="42.281280" lon="3.275268"><ele>25</ele><time>2011-03-22T08:40:41Z</time></trkpt>
<trkpt lat="42.281242" lon="3.275187"><ele>25.8</ele><time>2011-03-22T08:40:46Z</time></trkpt>
<trkpt lat="42.281215" lon="3.275097"><ele>26.1</ele><time>2011-03-22T08:40:51Z</time></trkpt>
<trkpt lat="42.281188" lon="3.275003"><ele>27</ele><time>2011-03-22T08:40:56Z</time></trkpt>
<trkpt lat="42.281167" lon="3.274910"><ele>28.5</ele><time>2011-03-22T08:41:01Z</time></trkpt>
<trkpt lat="42.281155" lon="3.274823"><ele>29.8</ele><time>2011-03-22T08:41:06Z</time></trkpt>
<trkpt lat="42.281155" lon="3.274748"><ele>29.4</ele><time>2011-03-22T08:41:11Z</time></trkpt>
<trkpt lat="42.281155" lon="3.274668"><ele>28.8</ele><time>2011-03-22T08:41:16Z</time></trkpt>
<trkpt lat="42.281178" lon="3.274598"><ele>28.2</ele><time>2011-03-22T08:41:21Z</time></trkpt>
<trkpt lat="42.281185" lon="3.274515"><ele>28.5</ele><time>2011-03-22T08:41:26Z</time></trkpt>
<trkpt lat="42.281185" lon="3.274425"><ele>29</ele><time>2011-03-22T08:41:31Z</time></trkpt>
<trkpt lat="42.281173" lon="3.274328"><ele>30.9</ele><time>2011-03-22T08:41:36Z</time></trkpt>
<trkpt lat="42.281155" lon="3.274228"><ele>33</ele><time>2011-03-22T08:41:41Z</time></trkpt>
<trkpt lat="42.281123" lon="3.274145"><ele>33.8</ele><time>2011-03-22T08:41:46Z</time></trkpt>
<trkpt lat="42.281087" lon="3.274070"><ele>34.4</ele><time>2011-03-22T08:41:51Z</time></trkpt>
<trkpt lat="42.281040" lon="3.274015"><ele>35.1</ele><time>2011-03-22T08:41:56Z</time></trkpt>
<trkpt lat="42.280983" lon="3.273985"><ele>36.4</ele><time>2011-03-22T08:42:01Z</time></trkpt>
<trkpt lat="42.280918" lon="3.273967"><ele>36.9</ele><time>2011-03-22T08:42:06Z</time></trkpt>
<trkpt lat="42.280853" lon="3.273932"><ele>38.1</ele><time>2011-03-22T08:42:11Z</time></trkpt>
<trkpt lat="42.280797" lon="3.273877"><ele>39.7</ele><time>2011-03-22T08:42:16Z</time></trkpt>
<trkpt lat="42.280743" lon="3.273827"><ele>41</ele><time>2011-03-22T08:42:21Z</time></trkpt>
<trkpt lat="42.280690" lon="3.273783"><ele>42.5</ele><time>2011-03-22T08:42:26Z</time></trkpt>
<trkpt lat="42.280617" lon="3.273812"><ele>41.3</ele><time>2011-03-22T08:42:31Z</time></trkpt>
<trkpt lat="42.280582" lon="3.273900"><ele>41.7</ele><time>2011-03-22T08:42:36Z</time></trkpt>
<trkpt lat="42.280578" lon="3.273992"><ele>42.6</ele><time>2011-03-22T08:42:41Z</time></trkpt>
<trkpt lat="42.280578" lon="3.274097"><ele>42.2</ele><time>2011-03-22T08:42:46Z</time></trkpt>
<trkpt lat="42.280590" lon="3.274192"><ele>42.6</ele><time>2011-03-22T08:42:51Z</time></trkpt>
<trkpt lat="42.280567" lon="3.274285"><ele>42.9</ele><time>2011-03-22T08:42:56Z</time></trkpt>
<trkpt lat="42.280533" lon="3.274373"><ele>43.4</ele><time>2011-03-22T08:43:01Z</time></trkpt>
<trkpt lat="42.280475" lon="3.274433"><ele>43.9</ele><time>2011-03-22T08:43:06Z</time></trkpt>
<trkpt lat="42.280407" lon="3.274457"><ele>44.4</ele><time>2011-03-22T08:43:11Z</time></trkpt>
<trkpt lat="42.280338" lon="3.274508"><ele>44.6</ele><time>2011-03-22T08:43:16Z</time></trkpt>
<trkpt lat="42.280270" lon="3.274550"><ele>45</ele><time>2011-03-22T08:43:21Z</time></trkpt>
<trkpt lat="42.280205" lon="3.274592"><ele>45.5</ele><time>2011-03-22T08:43:26Z</time></trkpt>
<trkpt lat="42.280140" lon="3.274640"><ele>46.1</ele><time>2011-03-22T08:43:31Z</time></trkpt>
<trkpt lat="42.280075" lon="3.274680"><ele>46.6</ele><time>2011-03-22T08:43:36Z</time></trkpt>
<trkpt lat="42.280010" lon="3.274735"><ele>47.3</ele><time>2011-03-22T08:43:41Z</time></trkpt>
<trkpt lat="42.279942" lon="3.274783"><ele>47.9</ele><time>2011-03-22T08:43:46Z</time></trkpt>
<trkpt lat="42.279862" lon="3.274827"><ele>48.5</ele><time>2011-03-22T08:43:51Z</time></trkpt>
<trkpt lat="42.279785" lon="3.274860"><ele>49</ele><time>2011-03-22T08:43:56Z</time></trkpt>
<trkpt lat="42.279713" lon="3.274818"><ele>50.1</ele><time>2011-03-22T08:44:01Z</time></trkpt>
<trkpt lat="42.279670" lon="3.274718"><ele>51.6</ele><time>2011-03-22T08:44:06Z</time></trkpt>
<trkpt lat="42.279663" lon="3.274620"><ele>52.4</ele><time>2011-03-22T08:44:11Z</time></trkpt>
<trkpt lat="42.279723" lon="3.274555"><ele>53.6</ele><time>2011-03-22T08:44:16Z</time></trkpt>
<trkpt lat="42.279767" lon="3.274473"><ele>54.8</ele><time>2011-03-22T08:44:21Z</time></trkpt>
<trkpt lat="42.279808" lon="3.274385"><ele>55.8</ele><time>2011-03-22T08:44:26Z</time></trkpt>
<trkpt lat="42.279842" lon="3.274293"><ele>56.6</ele><time>2011-03-22T08:44:31Z</time></trkpt>
<trkpt lat="42.279865" lon="3.274190"><ele>57</ele><time>2011-03-22T08:44:36Z</time></trkpt>
<trkpt lat="42.279888" lon="3.274092"><ele>57.4</ele><time>2011-03-22T08:44:41Z</time></trkpt>
<trkpt lat="42.279918" lon="3.273997"><ele>58</ele><time>2011-03-22T08:44:46Z</time></trkpt>
<trkpt lat="42.279938" lon="3.273895"><ele>58.5</ele><time>2011-03-22T08:44:51Z</time></trkpt>
<trkpt lat="42.279945" lon="3.273788"><ele>59</ele><time>2011-03-22T08:44:56Z</time></trkpt>
<trkpt lat="42.279945" lon="3.273682"><ele>59.5</ele><time>2011-03-22T08:45:01Z</time></trkpt>
<trkpt lat="42.279938" lon="3.273583"><ele>59.6</ele><time>2011-03-22T08:45:06Z</time></trkpt>
<trkpt lat="42.279907" lon="3.273492"><ele>59.9</ele><time>2011-03-22T08:45:11Z</time></trkpt>
<trkpt lat="42.279865" lon="3.273403"><ele>60.3</ele><time>2011-03-22T08:45:16Z</time></trkpt>
<trkpt lat="42.279835" lon="3.273305"><ele>60.9</ele><time>2011-03-22T08:45:21Z</time></trkpt>
<trkpt lat="42.279797" lon="3.273213"><ele>61.6</ele><time>2011-03-22T08:45:26Z</time></trkpt>
<trkpt lat="42.279762" lon="3.273125"><ele>62.3</ele><time>2011-03-22T08:45:31Z</time></trkpt>
<trkpt lat="42.279728" lon="3.273040"><ele>63.2</ele><time>2011-03-22T08:45:36Z</time></trkpt>
<trkpt lat="42.279687" lon="3.272958"><ele>64</ele><time>2011-03-22T08:45:41Z</time></trkpt>
<trkpt lat="42.279622" lon="3.272903"><ele>64.6</ele><time>2011-03-22T08:45:46Z</time></trkpt>
<trkpt lat="42.279542" lon="3.272880"><ele>65</ele><time>2011-03-22T08:45:51Z</time></trkpt>
<trkpt lat="42.279462" lon="3.272840"><ele>65.3</ele><time>2011-03-22T08:45:56Z</time></trkpt>
<trkpt lat="42.279397" lon="3.272780"><ele>65.8</ele><time>2011-03-22T08:46:01Z</time></trkpt>
<trkpt lat="42.279362" lon="3.272683"><ele>66.6</ele><time>2011-03-22T08:46:06Z</time></trkpt>
<trkpt lat="42.279353" lon="3.272580"><ele>67.5</ele><time>2011-03-22T08:46:11Z</time></trkpt>
<trkpt lat="42.279358" lon="3.272482"><ele>68.4</ele><time>2011-03-22T08:46:16Z</time></trkpt>
<trkpt lat="42.279327" lon="3.272388"><ele>69.4</ele><time>2011-03-22T08:46:21Z</time></trkpt>
<trkpt lat="42.279305" lon="3.272293"><ele>70.4</ele><time>2011-03-22T08:46:26Z</time></trkpt>
<trkpt lat="42.279278" lon="3.272202"><ele>71.3</ele><time>2011-03-22T08:46:31Z</time></trkpt>
<trkpt lat="42.279240" lon="3.272113"><ele>72.2</ele><time>2011-03-22T08:46:36Z</time></trkpt>
<trkpt lat="42.279198" lon="3.272027"><ele>73</ele><time>2011-03-22T08:46:41Z</time></trkpt>
<trkpt lat="42.279155" lon="3.271940"><ele>73.8</ele><time>2011-03-22T08:46:46Z</time></trkpt>
<trkpt lat="42.279113" lon="3.271857"><ele>74.7</ele><time>2011-03-22T08:46:51Z</time></trkpt>
<trkpt lat="42.279068" lon="3.271762"><ele>75.2</ele><time>2011-03-22T08:46:56Z</time></trkpt>
<trkpt lat="42.279042" lon="3.271663"><ele>76.2</ele><time>2011-03-22T08:47:01Z</time></trkpt>
<trkpt lat="42.278988" lon="3.271580"><ele>76.8</ele><time>2011-03-22T08:47:06Z</time></trkpt>
<trkpt lat="42.278912" lon="3.271523"><ele>77.2</ele><time>2011-03-22T08:47:11Z</time></trkpt>
<trkpt lat="42.278847" lon="3.271462"><ele>77.6</ele><time>2011-03-22T08:47:16Z</time></trkpt>
<trkpt lat="42.278828" lon="3.271355"><ele>78.2</ele><time>2011-03-22T08:47:21Z</time></trkpt>
<trkpt lat="42.278850" lon="3.271250"><ele>78.9</ele><time>2011-03-22T08:47:26Z</time></trkpt>
<trkpt lat="42.278903" lon="3.271170"><ele>80.1</ele><time>2011-03-22T08:47:31Z</time></trkpt>
<trkpt lat="42.278947" lon="3.271085"><ele>81.2</ele><time>2011-03-22T08:47:36Z</time></trkpt>
<trkpt lat="42.278968" lon="3.270990"><ele>82.1</ele><time>2011-03-22T08:47:41Z</time></trkpt>
<trkpt lat="42.278983" lon="3.270890"><ele>82.9</ele><time>2011-03-22T08:47:46Z</time></trkpt>
<trkpt lat="42.278992" lon="3.270790"><ele>83.6</ele><time>2011-03-22T08:47:51Z</time></trkpt>
<trkpt lat="42.279000" lon="3.270683"><ele>84.4</ele><time>2011-03-22T08:47:56Z</time></trkpt>
<trkpt lat="42.278995" lon="3.270580"><ele>85.3</ele><time>2011-03-22T08:48:01Z</time></trkpt>
<trkpt lat="42.278983" lon="3.270482"><ele>86.3</ele><time>2011-03-22T08:48:06Z</time></trkpt>
<trkpt lat="42.278953" lon="3.270398"><ele>87.6</ele><time>2011-03-22T08:48:11Z</time></trkpt>
<trkpt lat="42.278885" lon="3.270367"><ele>88.6</ele><time>2011-03-22T08:48:16Z</time></trkpt>
<trkpt lat="42.278812" lon="3.270440"><ele>88.7</ele><time>2011-03-22T08:48:21Z</time></trkpt>
<trkpt lat="42.278737" lon="3.270490"><ele>88.8</ele><time>2011-03-22T08:48:26Z</time></trkpt>
<trkpt lat="42.278637" lon="3.270493"><ele>88.9</ele><time>2011-03-22T08:48:31Z</time></trkpt>
<trkpt lat="42.278553" lon="3.270430"><ele>89.1</ele><time>2011-03-22T08:48:36Z</time></trkpt>
<trkpt lat="42.278533" lon="3.270318"><ele>90</ele><time>2011-03-22T08:48:41Z</time></trkpt>
<trkpt lat="42.278500" lon="3.270215"><ele>91.3</ele><time>2011-03-22T08:48:46Z</time></trkpt>
<trkpt lat="42.278420" lon="3.270197"><ele>92.3</ele><time>2011-03-22T08:48:51Z</time></trkpt>
<trkpt lat="42.278347" lon="3.270252"><ele>92.9</ele><time>2011-03-22T08:48:56Z</time></trkpt>
<trkpt lat="42.278282" lon="3.270318"><ele>93.7</ele><time>2011-03-22T08:49:01Z</time></trkpt>
<trkpt lat="42.278217" lon="3.270390"><ele>94.6</ele><time>2011-03-22T08:49:06Z</time></trkpt>
<trkpt lat="42.278160" lon="3.270460"><ele>95.5</ele><time>2011-03-22T08:49:11Z</time></trkpt>
<trkpt lat="42.278092" lon="3.270513"><ele>96.2</ele><time>2011-03-22T08:49:16Z</time></trkpt>
<trkpt lat="42.278038" lon="3.270595"><ele>96.9</ele><time>2011-03-22T08:49:21Z</time></trkpt>
<trkpt lat="42.278018" lon="3.270698"><ele>97.8</ele><time>2011-03-22T08:49:26Z</time></trkpt>
<trkpt lat="42.278023" lon="3.270808"><ele>99.1</ele><time>2011-03-22T08:49:31Z</time></trkpt>
<trkpt lat="42.277992" lon="3.270898"><ele>100.1</ele><time>2011-03-22T08:49:36Z</time></trkpt>
<trkpt lat="42.277923" lon="3.270920"><ele>101</ele><time>2011-03-22T08:49:41Z</time></trkpt>
<trkpt lat="42.277863" lon="3.270862"><ele>101.5</ele><time>2011-03-22T08:49:46Z</time></trkpt>
<trkpt lat="42.277837" lon="3.270755"><ele>101.9</ele><time>2011-03-22T08:49:51Z</time></trkpt>
<trkpt lat="42.277855" lon="3.270655"><ele>102.6</ele><time>2011-03-22T08:49:56Z</time></trkpt>
<trkpt lat="42.277878" lon="3.270552"><ele>103.7</ele><time>2011-03-22T08:50:01Z</time></trkpt>
<trkpt lat="42.277882" lon="3.270442"><ele>104.4</ele><time>2011-03-22T08:50:06Z</time></trkpt>
<trkpt lat="42.277882" lon="3.270318"><ele>104.9</ele><time>2011-03-22T08:50:11Z</time></trkpt>
<trkpt lat="42.277858" lon="3.270213"><ele>105.8</ele><time>2011-03-22T08:50:16Z</time></trkpt>
<trkpt lat="42.277802" lon="3.270128"><ele>106.7</ele><time>2011-03-22T08:50:21Z</time></trkpt>
<trkpt lat="42.277713" lon="3.270097"><ele>107.1</ele><time>2011-03-22T08:50:26Z</time></trkpt>
<trkpt lat="42.277648" lon="3.270023"><ele>107.5</ele><time>2011-03-22T08:50:31Z</time></trkpt>
<trkpt lat="42.277603" lon="3.269927"><ele>108</ele><time>2011-03-22T08:50:36Z</time></trkpt>
<trkpt lat="42.277535" lon="3.269842"><ele>108.1</ele><time>2011-03-22T08:50:41Z</time></trkpt>
<trkpt lat="42.277488" lon="3.269737"><ele>108.5</ele><time>2011-03-22T08:50:46Z</time></trkpt>
<trkpt lat="42.277450" lon="3.269630"><ele>109</ele><time>2011-03-22T08:50:51Z</time></trkpt>
<trkpt lat="42.277420" lon="3.269523"><ele>109.6</ele><time>2011-03-22T08:50:56Z</time></trkpt>
<trkpt lat="42.277352" lon="3.269445"><ele>110.2</ele><time>2011-03-22T08:51:01Z</time></trkpt>
<trkpt lat="42.277257" lon="3.269435"><ele>110.1</ele><time>2011-03-22T08:51:06Z</time></trkpt>
<trkpt lat="42.277157" lon="3.269440"><ele>110.4</ele><time>2011-03-22T08:51:11Z</time></trkpt>
<trkpt lat="42.277068" lon="3.269395"><ele>110.6</ele><time>2011-03-22T08:51:16Z</time></trkpt>
<trkpt lat="42.277008" lon="3.269302"><ele>111.2</ele><time>2011-03-22T08:51:21Z</time></trkpt>
<trkpt lat="42.276947" lon="3.269213"><ele>111.8</ele><time>2011-03-22T08:51:26Z</time></trkpt>
<trkpt lat="42.276890" lon="3.269135"><ele>112.5</ele><time>2011-03-22T08:51:31Z</time></trkpt>
<trkpt lat="42.276828" lon="3.269070"><ele>113.9</ele><time>2011-03-22T08:51:36Z</time></trkpt>
<trkpt lat="42.276828" lon="3.268957"><ele>115.1</ele><time>2011-03-22T08:51:41Z</time></trkpt>
<trkpt lat="42.276837" lon="3.268857"><ele>116.5</ele><time>2011-03-22T08:51:46Z</time></trkpt>
<trkpt lat="42.276825" lon="3.268765"><ele>117.4</ele><time>2011-03-22T08:51:51Z</time></trkpt>
<trkpt lat="42.276860" lon="3.268675"><ele>118.5</ele><time>2011-03-22T08:51:56Z</time></trkpt>
<trkpt lat="42.276897" lon="3.268593"><ele>119.7</ele><time>2011-03-22T08:52:01Z</time></trkpt>
<trkpt lat="42.276943" lon="3.268515"><ele>120.8</ele><time>2011-03-22T08:52:06Z</time></trkpt>
<trkpt lat="42.277000" lon="3.268457"><ele>121.8</ele><time>2011-03-22T08:52:11Z</time></trkpt>
<trkpt lat="42.277047" lon="3.268373"><ele>122.7</ele><time>2011-03-22T08:52:16Z</time></trkpt>
<trkpt lat="42.277077" lon="3.268278"><ele>123.5</ele><time>2011-03-22T08:52:21Z</time></trkpt>
<trkpt lat="42.277112" lon="3.268180"><ele>124.1</ele><time>2011-03-22T08:52:26Z</time></trkpt>
<trkpt lat="42.277142" lon="3.268075"><ele>124.5</ele><time>2011-03-22T08:52:31Z</time></trkpt>
<trkpt lat="42.277165" lon="3.267965"><ele>124.8</ele><time>2011-03-22T08:52:36Z</time></trkpt>
<trkpt lat="42.277177" lon="3.267848"><ele>124.8</ele><time>2011-03-22T08:52:41Z</time></trkpt>
<trkpt lat="42.277187" lon="3.267737"><ele>125</ele><time>2011-03-22T08:52:46Z</time></trkpt>
<trkpt lat="42.277207" lon="3.267635"><ele>125.4</ele><time>2011-03-22T08:52:51Z</time></trkpt>
<trkpt lat="42.277213" lon="3.267533"><ele>126</ele><time>2011-03-22T08:52:56Z</time></trkpt>
<trkpt lat="42.277237" lon="3.267423"><ele>126.5</ele><time>2011-03-22T08:53:01Z</time></trkpt>
<trkpt lat="42.277275" lon="3.267302"><ele>127.1</ele><time>2011-03-22T08:53:06Z</time></trkpt>
<trkpt lat="42.277287" lon="3.267193"><ele>128.3</ele><time>2011-03-22T08:53:11Z</time></trkpt>
<trkpt lat="42.277287" lon="3.267085"><ele>129.3</ele><time>2011-03-22T08:53:16Z</time></trkpt>
<trkpt lat="42.277275" lon="3.266978"><ele>130.5</ele><time>2011-03-22T08:53:21Z</time></trkpt>
<trkpt lat="42.277218" lon="3.266890"><ele>131.1</ele><time>2011-03-22T08:53:26Z</time></trkpt>
<trkpt lat="42.277142" lon="3.266840"><ele>131.7</ele><time>2011-03-22T08:53:31Z</time></trkpt>
<trkpt lat="42.277053" lon="3.266827"><ele>132.5</ele><time>2011-03-22T08:53:36Z</time></trkpt>
<trkpt lat="42.276982" lon="3.266867"><ele>133.7</ele><time>2011-03-22T08:53:41Z</time></trkpt>
<trkpt lat="42.276940" lon="3.266968"><ele>134.3</ele><time>2011-03-22T08:53:46Z</time></trkpt>
<trkpt lat="42.276902" lon="3.267082"><ele>134.9</ele><time>2011-03-22T08:53:51Z</time></trkpt>
<trkpt lat="42.276860" lon="3.267188"><ele>135.5</ele><time>2011-03-22T08:53:56Z</time></trkpt>
<trkpt lat="42.276798" lon="3.267272"><ele>136.1</ele><time>2011-03-22T08:54:01Z</time></trkpt>
<trkpt lat="42.276730" lon="3.267352"><ele>136.6</ele><time>2011-03-22T08:54:06Z</time></trkpt>
<trkpt lat="42.276668" lon="3.267437"><ele>137.1</ele><time>2011-03-22T08:54:11Z</time></trkpt>
<trkpt lat="42.276603" lon="3.267522"><ele>137.5</ele><time>2011-03-22T08:54:16Z</time></trkpt>
<trkpt lat="42.276538" lon="3.267603"><ele>138.2</ele><time>2011-03-22T08:54:21Z</time></trkpt>
<trkpt lat="42.276458" lon="3.267635"><ele>139</ele><time>2011-03-22T08:54:26Z</time></trkpt>
<trkpt lat="42.276393" lon="3.267572"><ele>139.7</ele><time>2011-03-22T08:54:31Z</time></trkpt>
<trkpt lat="42.276390" lon="3.267460"><ele>140.2</ele><time>2011-03-22T08:54:36Z</time></trkpt>
<trkpt lat="42.276417" lon="3.267353"><ele>141</ele><time>2011-03-22T08:54:41Z</time></trkpt>
<trkpt lat="42.276437" lon="3.267248"><ele>141.9</ele><time>2011-03-22T08:54:46Z</time></trkpt>
<trkpt lat="42.276420" lon="3.267142"><ele>142.6</ele><time>2011-03-22T08:54:51Z</time></trkpt>
<trkpt lat="42.276402" lon="3.267032"><ele>143.3</ele><time>2011-03-22T08:54:56Z</time></trkpt>
<trkpt lat="42.276402" lon="3.266922"><ele>143.9</ele><time>2011-03-22T08:55:01Z</time></trkpt>
<trkpt lat="42.276393" lon="3.266815"><ele>144.8</ele><time>2011-03-22T08:55:06Z</time></trkpt>
<trkpt lat="42.276363" lon="3.266715"><ele>145.6</ele><time>2011-03-22T08:55:11Z</time></trkpt>
<trkpt lat="42.276322" lon="3.266623"><ele>146.3</ele><time>2011-03-22T08:55:16Z</time></trkpt>
<trkpt lat="42.276265" lon="3.266540"><ele>146.9</ele><time>2011-03-22T08:55:21Z</time></trkpt>
<trkpt lat="42.276210" lon="3.266455"><ele>147.5</ele><time>2011-03-22T08:55:26Z</time></trkpt>
<trkpt lat="42.276142" lon="3.266393"><ele>148.2</ele><time>2011-03-22T08:55:31Z</time></trkpt>
<trkpt lat="42.276062" lon="3.266392"><ele>148.9</ele><time>2011-03-22T08:55:36Z</time></trkpt>
<trkpt lat="42.276002" lon="3.266465"><ele>149.8</ele><time>2011-03-22T08:55:41Z</time></trkpt>
<trkpt lat="42.275997" lon="3.266570"><ele>150.7</ele><time>2011-03-22T08:55:46Z</time></trkpt>
<trkpt lat="42.276038" lon="3.266668"><ele>151.4</ele><time>2011-03-22T08:55:51Z</time></trkpt>
<trkpt lat="42.276055" lon="3.266778"><ele>152.4</ele><time>2011-03-22T08:55:56Z</time></trkpt>
<trkpt lat="42.276038" lon="3.266888"><ele>153.5</ele><time>2011-03-22T08:56:01Z</time></trkpt>
<trkpt lat="42.276008" lon="3.266993"><ele>154.5</ele><time>2011-03-22T08:56:06Z</time></trkpt>
<trkpt lat="42.275948" lon="3.267067"><ele>155.2</ele><time>2011-03-22T08:56:11Z</time></trkpt>
<trkpt lat="42.275872" lon="3.267105"><ele>155.8</ele><time>2011-03-22T08:56:16Z</time></trkpt>
<trkpt lat="42.275787" lon="3.267098"><ele>156.1</ele><time>2011-03-22T08:56:21Z</time></trkpt>
<trkpt lat="42.275703" lon="3.267090"><ele>156.7</ele><time>2011-03-22T08:56:26Z</time></trkpt>
<trkpt lat="42.275615" lon="3.267108"><ele>157.1</ele><time>2011-03-22T08:56:31Z</time></trkpt>
<trkpt lat="42.275547" lon="3.267172"><ele>157.7</ele><time>2011-03-22T08:56:36Z</time></trkpt>
<trkpt lat="42.275508" lon="3.267260"><ele>158.5</ele><time>2011-03-22T08:56:41Z</time></trkpt>
<trkpt lat="42.275448" lon="3.267338"><ele>159.1</ele><time>2011-03-22T08:56:46Z</time></trkpt>
<trkpt lat="42.275383" lon="3.267415"><ele>159.8</ele><time>2011-03-22T08:56:51Z</time></trkpt>
<trkpt lat="42.275325" lon="3.267493"><ele>160.5</ele><time>2011-03-22T08:56:56Z</time></trkpt>
<trkpt lat="42.275268" lon="3.267575"><ele>161.2</ele><time>2011-03-22T08:57:01Z</time></trkpt>
<trkpt lat="42.275208" lon="3.267647"><ele>162.1</ele><time>2011-03-22T08:57:06Z</time></trkpt>
<trkpt lat="42.275132" lon="3.267682"><ele>162.9</ele><time>2011-03-22T08:57:11Z</time></trkpt>
<trkpt lat="42.275055" lon="3.267662"><ele>163.7</ele><time>2011-03-22T08:57:16Z</time></trkpt>
<trkpt lat="42.275002" lon="3.267583"><ele>164.4</ele><time>2011-03-22T08:57:21Z</time></trkpt>
<trkpt lat="42.274963" lon="3.267487"><ele>165.2</ele><time>2011-03-22T08:57:26Z</time></trkpt>
<trkpt lat="42.274967" lon="3.267378"><ele>166</ele><time>2011-03-22T08:57:31Z</time></trkpt>
<trkpt lat="42.274998" lon="3.267268"><ele>166.8</ele><time>2011-03-22T08:57:36Z</time></trkpt>
<trkpt lat="42.275043" lon="3.267167"><ele>167.6</ele><time>2011-03-22T08:57:41Z</time></trkpt>
<trkpt lat="42.275078" lon="3.267070"><ele>168.8</ele><time>2011-03-22T08:57:46Z</time></trkpt>
<trkpt lat="42.275100" lon="3.266967"><ele>169.6</ele><time>2011-03-22T08:57:51Z</time></trkpt>
<trkpt lat="42.275120" lon="3.266867"><ele>170.5</ele><time>2011-03-22T08:57:56Z</time></trkpt>
<trkpt lat="42.275150" lon="3.266768"><ele>171.5</ele><time>2011-03-22T08:58:01Z</time></trkpt>
<trkpt lat="42.275150" lon="3.266662"><ele>172.3</ele><time>2011-03-22T08:58:06Z</time></trkpt>
<trkpt lat="42.275108" lon="3.266567"><ele>172.8</ele><time>2011-03-22T08:58:11Z</time></trkpt>
<trkpt lat="42.275040" lon="3.266502"><ele>173.4</ele><time>2011-03-22T08:58:16Z</time></trkpt>
<trkpt lat="42.274963" lon="3.266468"><ele>173.9</ele><time>2011-03-22T08:58:21Z</time></trkpt>
<trkpt lat="42.274883" lon="3.266447"><ele>174.6</ele><time>2011-03-22T08:58:26Z</time></trkpt>
<trkpt lat="42.274807" lon="3.266398"><ele>175.3</ele><time>2011-03-22T08:58:31Z</time></trkpt>
<trkpt lat="42.274735" lon="3.266347"><ele>176.2</ele><time>2011-03-22T08:58:36Z</time></trkpt>
<trkpt lat="42.274662" lon="3.266288"><ele>176.5</ele><time>2011-03-22T08:58:41Z</time></trkpt>
<trkpt lat="42.274578" lon="3.266245"><ele>177</ele><time>2011-03-22T08:58:46Z</time></trkpt>
<trkpt lat="42.274495" lon="3.266233"><ele>177.6</ele><time>2011-03-22T08:58:51Z</time></trkpt>
<trkpt lat="42.274418" lon="3.266193"><ele>178.2</ele><time>2011-03-22T08:58:56Z</time></trkpt>
<trkpt lat="42.274333" lon="3.266155"><ele>178.7</ele><time>2011-03-22T08:59:01Z</time></trkpt>
<trkpt lat="42.274273" lon="3.266078"><ele>179.4</ele><time>2011-03-22T08:59:06Z</time></trkpt>
<trkpt lat="42.274215" lon="3.265975"><ele>179.8</ele><time>2011-03-22T08:59:11Z</time></trkpt>
<trkpt lat="42.274170" lon="3.265860"><ele>180.5</ele><time>2011-03-22T08:59:16Z</time></trkpt>
<trkpt lat="42.274087" lon="3.265837"><ele>181.2</ele><time>2011-03-22T08:59:21Z</time></trkpt>
<trkpt lat="42.274022" lon="3.265937"><ele>181.5</ele><time>2011-03-22T08:59:26Z</time></trkpt>
<trkpt lat="42.273948" lon="3.266037"><ele>181.7</ele><time>2011-03-22T08:59:31Z</time></trkpt>
<trkpt lat="42.273850" lon="3.266130"><ele>181.8</ele><time>2011-03-22T08:59:36Z</time></trkpt>
<trkpt lat="42.273727" lon="3.266187"><ele>182</ele><time>2011-03-22T08:59:41Z</time></trkpt>
<trkpt lat="42.273567" lon="3.266178"><ele>181.8</ele><time>2011-03-22T08:59:46Z</time></trkpt>
<trkpt lat="42.273418" lon="3.266082"><ele>181.6</ele><time>2011-03-22T08:59:51Z</time></trkpt>
<trkpt lat="42.273297" lon="3.265945"><ele>181.7</ele><time>2011-03-22T08:59:56Z</time></trkpt>
<trkpt lat="42.273190" lon="3.265812"><ele>182.4</ele><time>2011-03-22T09:00:01Z</time></trkpt>
<trkpt lat="42.273063" lon="3.265753"><ele>183.3</ele><time>2011-03-22T09:00:06Z</time></trkpt>
<trkpt lat="42.272950" lon="3.265627"><ele>184</ele><time>2011-03-22T09:00:11Z</time></trkpt>
<trkpt lat="42.272873" lon="3.265475"><ele>184.3</ele><time>2011-03-22T09:00:16Z</time></trkpt>
<trkpt lat="42.272773" lon="3.265328"><ele>184</ele><time>2011-03-22T09:00:21Z</time></trkpt>
<trkpt lat="42.272640" lon="3.265407"><ele>183.7</ele><time>2011-03-22T09:00:26Z</time></trkpt>
<trkpt lat="42.272643" lon="3.265618"><ele>184.3</ele><time>2011-03-22T09:00:31Z</time></trkpt>
<trkpt lat="42.272628" lon="3.265785"><ele>185.4</ele><time>2011-03-22T09:00:36Z</time></trkpt>
<trkpt lat="42.272583" lon="3.265922"><ele>186</ele><time>2011-03-22T09:00:41Z</time></trkpt>
<trkpt lat="42.272525" lon="3.266050"><ele>186.7</ele><time>2011-03-22T09:00:46Z</time></trkpt>
<trkpt lat="42.272495" lon="3.266197"><ele>187.2</ele><time>2011-03-22T09:00:51Z</time></trkpt>
<trkpt lat="42.272477" lon="3.266358"><ele>187.5</ele><time>2011-03-22T09:00:56Z</time></trkpt>
<trkpt lat="42.272465" lon="3.266523"><ele>188.1</ele><time>2011-03-22T09:01:01Z</time></trkpt>
<trkpt lat="42.272438" lon="3.266672"><ele>189.3</ele><time>2011-03-22T09:01:06Z</time></trkpt>
<trkpt lat="42.272385" lon="3.266797"><ele>190.1</ele><time>2011-03-22T09:01:11Z</time></trkpt>
<trkpt lat="42.272312" lon="3.266898"><ele>191</ele><time>2011-03-22T09:01:16Z</time></trkpt>
<trkpt lat="42.272217" lon="3.266965"><ele>191.8</ele><time>2011-03-22T09:01:21Z</time></trkpt>
<trkpt lat="42.272110" lon="3.267022"><ele>192.1</ele><time>2011-03-22T09:01:26Z</time></trkpt>
<trkpt lat="42.272007" lon="3.267083"><ele>192.6</ele><time>2011-03-22T09:01:31Z</time></trkpt>
<trkpt lat="42.271903" lon="3.267177"><ele>192.9</ele><time>2011-03-22T09:01:36Z</time></trkpt>
<trkpt lat="42.271828" lon="3.267307"><ele>192.8</ele><time>2011-03-22T09:01:41Z</time></trkpt>
<trkpt lat="42.271752" lon="3.267435"><ele>192.9</ele><time>2011-03-22T09:01:46Z</time></trkpt>
<trkpt lat="42.271672" lon="3.267557"><ele>193.2</ele><time>2011-03-22T09:01:51Z</time></trkpt>
<trkpt lat="42.271598" lon="3.267678"><ele>193.8</ele><time>2011-03-22T09:01:56Z</time></trkpt>
<trkpt lat="42.271503" lon="3.267753"><ele>194.6</ele><time>2011-03-22T09:02:01Z</time></trkpt>
<trkpt lat="42.271405" lon="3.267830"><ele>195.1</ele><time>2011-03-22T09:02:06Z</time></trkpt>
<trkpt lat="42.271305" lon="3.267902"><ele>196</ele><time>2011-03-22T09:02:11Z</time></trkpt>
<trkpt lat="42.271210" lon="3.267963"><ele>196.9</ele><time>2011-03-22T09:02:16Z</time></trkpt>
<trkpt lat="42.271110" lon="3.268022"><ele>197.9</ele><time>2011-03-22T09:02:21Z</time></trkpt>
<trkpt lat="42.270992" lon="3.268055"><ele>198.2</ele><time>2011-03-22T09:02:26Z</time></trkpt>
<trkpt lat="42.270863" lon="3.268095"><ele>198.6</ele><time>2011-03-22T09:02:31Z</time></trkpt>
<trkpt lat="42.270737" lon="3.268132"><ele>198.8</ele><time>2011-03-22T09:02:36Z</time></trkpt>
<trkpt lat="42.270592" lon="3.268173"><ele>198.8</ele><time>2011-03-22T09:02:41Z</time></trkpt>
<trkpt lat="42.270458" lon="3.268228"><ele>199.1</ele><time>2011-03-22T09:02:46Z</time></trkpt>
<trkpt lat="42.270332" lon="3.268293"><ele>199.5</ele><time>2011-03-22T09:02:51Z</time></trkpt>
<trkpt lat="42.270192" lon="3.268353"><ele>199.6</ele><time>2011-03-22T09:02:56Z</time></trkpt>
<trkpt lat="42.270042" lon="3.268368"><ele>199.7</ele><time>2011-03-22T09:03:01Z</time></trkpt>
<trkpt lat="42.269943" lon="3.268242"><ele>199.6</ele><time>2011-03-22T09:03:06Z</time></trkpt>
<trkpt lat="42.270005" lon="3.268040"><ele>199.5</ele><time>2011-03-22T09:03:11Z</time></trkpt>
<trkpt lat="42.270065" lon="3.267857"><ele>199.5</ele><time>2011-03-22T09:03:16Z</time></trkpt>
<trkpt lat="42.270035" lon="3.267695"><ele>199.6</ele><time>2011-03-22T09:03:21Z</time></trkpt>
<trkpt lat="42.269940" lon="3.267628"><ele>200</ele><time>2011-03-22T09:03:26Z</time></trkpt>
<trkpt lat="42.269843" lon="3.267598"><ele>200.7</ele><time>2011-03-22T09:03:31Z</time></trkpt>
<trkpt lat="42.269748" lon="3.267595"><ele>201.2</ele><time>2011-03-22T09:03:36Z</time></trkpt>
<trkpt lat="42.269650" lon="3.267593"><ele>201.8</ele><time>2011-03-22T09:03:41Z</time></trkpt>
<trkpt lat="42.269550" lon="3.267602"><ele>202.6</ele><time>2011-03-22T09:03:46Z</time></trkpt>
<trkpt lat="42.269447" lon="3.267625"><ele>203.6</ele><time>2011-03-22T09:03:51Z</time></trkpt>
<trkpt lat="42.269348" lon="3.267647"><ele>204.4</ele><time>2011-03-22T09:03:56Z</time></trkpt>
<trkpt lat="42.269253" lon="3.267667"><ele>205.2</ele><time>2011-03-22T09:04:01Z</time></trkpt>
<trkpt lat="42.269157" lon="3.267702"><ele>206</ele><time>2011-03-22T09:04:06Z</time></trkpt>
<trkpt lat="42.269077" lon="3.267728"><ele>206.8</ele><time>2011-03-22T09:04:11Z</time></trkpt>
<trkpt lat="42.268997" lon="3.267763"><ele>207.6</ele><time>2011-03-22T09:04:16Z</time></trkpt>
<trkpt lat="42.268925" lon="3.267803"><ele>208.6</ele><time>2011-03-22T09:04:21Z</time></trkpt>
<trkpt lat="42.268845" lon="3.267837"><ele>209.5</ele><time>2011-03-22T09:04:26Z</time></trkpt>
<trkpt lat="42.268765" lon="3.267863"><ele>210.4</ele><time>2011-03-22T09:04:31Z</time></trkpt>
<trkpt lat="42.268680" lon="3.267865"><ele>211.1</ele><time>2011-03-22T09:04:36Z</time></trkpt>
<trkpt lat="42.268585" lon="3.267817"><ele>211.2</ele><time>2011-03-22T09:04:41Z</time></trkpt>
<trkpt lat="42.268505" lon="3.267802"><ele>211.9</ele><time>2011-03-22T09:04:46Z</time></trkpt>
<trkpt lat="42.268422" lon="3.267780"><ele>212.5</ele><time>2011-03-22T09:04:51Z</time></trkpt>
<trkpt lat="42.268345" lon="3.267735"><ele>213.2</ele><time>2011-03-22T09:04:56Z</time></trkpt>
<trkpt lat="42.268298" lon="3.267650"><ele>213.9</ele><time>2011-03-22T09:05:01Z</time></trkpt>
<trkpt lat="42.268303" lon="3.267535"><ele>214.7</ele><time>2011-03-22T09:05:06Z</time></trkpt>
<trkpt lat="42.268345" lon="3.267435"><ele>215.7</ele><time>2011-03-22T09:05:11Z</time></trkpt>
<trkpt lat="42.268390" lon="3.267340"><ele>216.7</ele><time>2011-03-22T09:05:16Z</time></trkpt>
<trkpt lat="42.268425" lon="3.267242"><ele>217.6</ele><time>2011-03-22T09:05:21Z</time></trkpt>
<trkpt lat="42.268455" lon="3.267140"><ele>218.5</ele><time>2011-03-22T09:05:26Z</time></trkpt>
<trkpt lat="42.268497" lon="3.267038"><ele>219.4</ele><time>2011-03-22T09:05:31Z</time></trkpt>
<trkpt lat="42.268528" lon="3.266932"><ele>220.3</ele><time>2011-03-22T09:05:36Z</time></trkpt>
<trkpt lat="42.268558" lon="3.266827"><ele>221.3</ele><time>2011-03-22T09:05:41Z</time></trkpt>
<trkpt lat="42.268593" lon="3.266722"><ele>222.2</ele><time>2011-03-22T09:05:46Z</time></trkpt>
<trkpt lat="42.268627" lon="3.266613"><ele>223</ele><time>2011-03-22T09:05:51Z</time></trkpt>
<trkpt lat="42.268662" lon="3.266507"><ele>223.7</ele><time>2011-03-22T09:05:56Z</time></trkpt>
<trkpt lat="42.268700" lon="3.266392"><ele>224.4</ele><time>2011-03-22T09:06:01Z</time></trkpt>
<trkpt lat="42.268750" lon="3.266277"><ele>224.8</ele><time>2011-03-22T09:06:06Z</time></trkpt>
<trkpt lat="42.268813" lon="3.266155"><ele>224.8</ele><time>2011-03-22T09:06:11Z</time></trkpt>
<trkpt lat="42.268845" lon="3.265980"><ele>224</ele><time>2011-03-22T09:06:16Z</time></trkpt>
<trkpt lat="42.268757" lon="3.265815"><ele>223.4</ele><time>2011-03-22T09:06:21Z</time></trkpt>
<trkpt lat="42.268600" lon="3.265790"><ele>222.9</ele><time>2011-03-22T09:06:26Z</time></trkpt>
<trkpt lat="42.268452" lon="3.265842"><ele>222.7</ele><time>2011-03-22T09:06:31Z</time></trkpt>
<trkpt lat="42.268310" lon="3.265857"><ele>223.1</ele><time>2011-03-22T09:06:36Z</time></trkpt>
<trkpt lat="42.268188" lon="3.265770"><ele>223.3</ele><time>2011-03-22T09:06:41Z</time></trkpt>
<trkpt lat="42.268112" lon="3.265607"><ele>223.2</ele><time>2011-03-22T09:06:46Z</time></trkpt>
<trkpt lat="42.268063" lon="3.265393"><ele>222.4</ele><time>2011-03-22T09:06:51Z</time></trkpt>
<trkpt lat="42.268097" lon="3.265133"><ele>221.7</ele><time>2011-03-22T09:06:56Z</time></trkpt>
<trkpt lat="42.268135" lon="3.264840"><ele>220.8</ele><time>2011-03-22T09:07:01Z</time></trkpt>
<trkpt lat="42.268112" lon="3.264533"><ele>220.3</ele><time>2011-03-22T09:07:06Z</time></trkpt>
<trkpt lat="42.268052" lon="3.264258"><ele>220</ele><time>2011-03-22T09:07:11Z</time></trkpt>
<trkpt lat="42.267987" lon="3.264000"><ele>219.6</ele><time>2011-03-22T09:07:16Z</time></trkpt>
<trkpt lat="42.267948" lon="3.263707"><ele>218.9</ele><time>2011-03-22T09:07:21Z</time></trkpt>
<trkpt lat="42.267902" lon="3.263430"><ele>218.6</ele><time>2011-03-22T09:07:26Z</time></trkpt>
<trkpt lat="42.267708" lon="3.263410"><ele>218.5</ele><time>2011-03-22T09:07:31Z</time></trkpt>
<trkpt lat="42.267487" lon="3.263522"><ele>217.6</ele><time>2011-03-22T09:07:36Z</time></trkpt>
<trkpt lat="42.267247" lon="3.263603"><ele>217.1</ele><time>2011-03-22T09:07:41Z</time></trkpt>
<trkpt lat="42.266987" lon="3.263593"><ele>216.1</ele><time>2011-03-22T09:07:46Z</time></trkpt>
<trkpt lat="42.266738" lon="3.263770"><ele>215.2</ele><time>2011-03-22T09:07:51Z</time></trkpt>
<trkpt lat="42.266567" lon="3.264000"><ele>214.4</ele><time>2011-03-22T09:07:56Z</time></trkpt>
<trkpt lat="42.266495" lon="3.264042"><ele>214.2</ele><time>2011-03-22T09:08:01Z</time></trkpt>
<trkpt lat="42.266492" lon="3.264030"><ele>214.2</ele><time>2011-03-22T09:08:06Z</time></trkpt>
<trkpt lat="42.266495" lon="3.264038"><ele>214.2</ele><time>2011-03-22T09:08:11Z</time></trkpt>
<trkpt lat="42.266495" lon="3.264038"><ele>214.3</ele><time>2011-03-22T09:08:16Z</time></trkpt>
<trkpt lat="42.266498" lon="3.264022"><ele>214.5</ele><time>2011-03-22T09:08:21Z</time></trkpt>
<trkpt lat="42.266495" lon="3.264022"><ele>214.2</ele><time>2011-03-22T09:08:26Z</time></trkpt>
<trkpt lat="42.266498" lon="3.264020"><ele>214.3</ele><time>2011-03-22T09:08:31Z</time></trkpt>
<trkpt lat="42.266495" lon="3.264020"><ele>214</ele><time>2011-03-22T09:08:36Z</time></trkpt>
<trkpt lat="42.266495" lon="3.264022"><ele>213.4</ele><time>2011-03-22T09:08:41Z</time></trkpt>
<trkpt lat="42.266495" lon="3.264023"><ele>212.9</ele><time>2011-03-22T09:08:46Z</time></trkpt>
<trkpt lat="42.266495" lon="3.264025"><ele>212.5</ele><time>2011-03-22T09:08:51Z</time></trkpt>
<trkpt lat="42.266495" lon="3.264023"><ele>212.7</ele><time>2011-03-22T09:08:56Z</time></trkpt>
<trkpt lat="42.266495" lon="3.264023"><ele>212.7</ele><time>2011-03-22T09:09:01Z</time></trkpt>
<trkpt lat="42.266498" lon="3.264025"><ele>212.8</ele><time>2011-03-22T09:09:06Z</time></trkpt>
<trkpt lat="42.266495" lon="3.264027"><ele>212.6</ele><time>2011-03-22T09:09:11Z</time></trkpt>
<trkpt lat="42.266502" lon="3.264023"><ele>213.5</ele><time>2011-03-22T09:09:16Z</time></trkpt>
<trkpt lat="42.266507" lon="3.264040"><ele>213.5</ele><time>2011-03-22T09:09:21Z</time></trkpt>
<trkpt lat="42.266502" lon="3.264042"><ele>213.3</ele><time>2011-03-22T09:09:26Z</time></trkpt>
<trkpt lat="42.266498" lon="3.264043"><ele>213.1</ele><time>2011-03-22T09:09:31Z</time></trkpt>
<trkpt lat="42.266498" lon="3.264043"><ele>213.1</ele><time>2011-03-22T09:09:36Z</time></trkpt>
<trkpt lat="42.266502" lon="3.264035"><ele>213.6</ele><time>2011-03-22T09:09:41Z</time></trkpt>
<trkpt lat="42.266507" lon="3.264032"><ele>214.4</ele><time>2011-03-22T09:09:46Z</time></trkpt>
<trkpt lat="42.266510" lon="3.264025"><ele>214.9</ele><time>2011-03-22T09:09:51Z</time></trkpt>
<trkpt lat="42.266502" lon="3.264033"><ele>214.9</ele><time>2011-03-22T09:09:56Z</time></trkpt>
<trkpt lat="42.266525" lon="3.264088"><ele>214.5</ele><time>2011-03-22T09:10:01Z</time></trkpt>
<trkpt lat="42.266483" lon="3.264153"><ele>214.5</ele><time>2011-03-22T09:10:06Z</time></trkpt>
<trkpt lat="42.266392" lon="3.264313"><ele>214.2</ele><time>2011-03-22T09:10:11Z</time></trkpt>
<trkpt lat="42.266255" lon="3.264515"><ele>213.9</ele><time>2011-03-22T09:10:16Z</time></trkpt>
<trkpt lat="42.266095" lon="3.264722"><ele>214.1</ele><time>2011-03-22T09:10:21Z</time></trkpt>
<trkpt lat="42.265912" lon="3.264918"><ele>214</ele><time>2011-03-22T09:10:26Z</time></trkpt>
<trkpt lat="42.265717" lon="3.265117"><ele>214</ele><time>2011-03-22T09:10:31Z</time></trkpt>
<trkpt lat="42.265515" lon="3.265320"><ele>214.1</ele><time>2011-03-22T09:10:36Z</time></trkpt>
<trkpt lat="42.265305" lon="3.265503"><ele>213.9</ele><time>2011-03-22T09:10:41Z</time></trkpt>
<trkpt lat="42.265072" lon="3.265675"><ele>213.6</ele><time>2011-03-22T09:10:46Z</time></trkpt>
<trkpt lat="42.264817" lon="3.265750"><ele>214</ele><time>2011-03-22T09:10:51Z</time></trkpt>
<trkpt lat="42.264622" lon="3.265647"><ele>215.3</ele><time>2011-03-22T09:10:56Z</time></trkpt>
<trkpt lat="42.264550" lon="3.265457"><ele>216.4</ele><time>2011-03-22T09:11:01Z</time></trkpt>
<trkpt lat="42.264507" lon="3.265175"><ele>217</ele><time>2011-03-22T09:11:06Z</time></trkpt>
<trkpt lat="42.264423" lon="3.264865"><ele>217</ele><time>2011-03-22T09:11:11Z</time></trkpt>
<trkpt lat="42.264313" lon="3.264582"><ele>216.9</ele><time>2011-03-22T09:11:16Z</time></trkpt>
<trkpt lat="42.264233" lon="3.264293"><ele>217.2</ele><time>2011-03-22T09:11:21Z</time></trkpt>
<trkpt lat="42.264118" lon="3.264028"><ele>217.3</ele><time>2011-03-22T09:11:26Z</time></trkpt>
<trkpt lat="42.263878" lon="3.263937"><ele>216.8</ele><time>2011-03-22T09:11:31Z</time></trkpt>
<trkpt lat="42.263633" lon="3.263897"><ele>216.8</ele><time>2011-03-22T09:11:36Z</time></trkpt>
<trkpt lat="42.263530" lon="3.263630"><ele>217.1</ele><time>2011-03-22T09:11:41Z</time></trkpt>
<trkpt lat="42.263515" lon="3.263365"><ele>218</ele><time>2011-03-22T09:11:46Z</time></trkpt>
<trkpt lat="42.263515" lon="3.263132"><ele>218.6</ele><time>2011-03-22T09:11:51Z</time></trkpt>
<trkpt lat="42.263527" lon="3.262908"><ele>219.4</ele><time>2011-03-22T09:11:56Z</time></trkpt>
<trkpt lat="42.263565" lon="3.262698"><ele>219.7</ele><time>2011-03-22T09:12:01Z</time></trkpt>
<trkpt lat="42.263568" lon="3.262452"><ele>220.3</ele><time>2011-03-22T09:12:06Z</time></trkpt>
<trkpt lat="42.263595" lon="3.262217"><ele>220.9</ele><time>2011-03-22T09:12:11Z</time></trkpt>
<trkpt lat="42.263627" lon="3.261980"><ele>221.5</ele><time>2011-03-22T09:12:16Z</time></trkpt>
<trkpt lat="42.263648" lon="3.261748"><ele>222.4</ele><time>2011-03-22T09:12:21Z</time></trkpt>
<trkpt lat="42.263657" lon="3.261530"><ele>223</ele><time>2011-03-22T09:12:26Z</time></trkpt>
<trkpt lat="42.263645" lon="3.261310"><ele>223.8</ele><time>2011-03-22T09:12:31Z</time></trkpt>
<trkpt lat="42.263645" lon="3.261095"><ele>224.7</ele><time>2011-03-22T09:12:36Z</time></trkpt>
<trkpt lat="42.263672" lon="3.260877"><ele>225.4</ele><time>2011-03-22T09:12:41Z</time></trkpt>
<trkpt lat="42.263728" lon="3.260652"><ele>225.4</ele><time>2011-03-22T09:12:46Z</time></trkpt>
<trkpt lat="42.263820" lon="3.260442"><ele>224.9</ele><time>2011-03-22T09:12:51Z</time></trkpt>
<trkpt lat="42.263970" lon="3.260253"><ele>224.2</ele><time>2011-03-22T09:12:56Z</time></trkpt>
<trkpt lat="42.264107" lon="3.260028"><ele>223.6</ele><time>2011-03-22T09:13:01Z</time></trkpt>
<trkpt lat="42.264213" lon="3.259923"><ele>223.3</ele><time>2011-03-22T09:13:06Z</time></trkpt>
<trkpt lat="42.264210" lon="3.259925"><ele>223.1</ele><time>2011-03-22T09:13:11Z</time></trkpt>
<trkpt lat="42.264222" lon="3.259922"><ele>223</ele><time>2011-03-22T09:13:16Z</time></trkpt>
<trkpt lat="42.264233" lon="3.259923"><ele>223.5</ele><time>2011-03-22T09:13:21Z</time></trkpt>
<trkpt lat="42.264255" lon="3.259887"><ele>224.3</ele><time>2011-03-22T09:13:26Z</time></trkpt>
<trkpt lat="42.264332" lon="3.259790"><ele>224.1</ele><time>2011-03-22T09:13:31Z</time></trkpt>
<trkpt lat="42.264507" lon="3.259673"><ele>223.5</ele><time>2011-03-22T09:13:36Z</time></trkpt>
<trkpt lat="42.264695" lon="3.259595"><ele>222.9</ele><time>2011-03-22T09:13:41Z</time></trkpt>
<trkpt lat="42.264862" lon="3.259460"><ele>222.6</ele><time>2011-03-22T09:13:46Z</time></trkpt>
<trkpt lat="42.264983" lon="3.259255"><ele>222.1</ele><time>2011-03-22T09:13:51Z</time></trkpt>
<trkpt lat="42.265083" lon="3.259042"><ele>221.7</ele><time>2011-03-22T09:13:56Z</time></trkpt>
<trkpt lat="42.265182" lon="3.258795"><ele>221.7</ele><time>2011-03-22T09:14:01Z</time></trkpt>
<trkpt lat="42.265300" lon="3.258540"><ele>221.6</ele><time>2011-03-22T09:14:06Z</time></trkpt>
<trkpt lat="42.265343" lon="3.258228"><ele>221.5</ele><time>2011-03-22T09:14:11Z</time></trkpt>
<trkpt lat="42.265335" lon="3.257905"><ele>221.8</ele><time>2011-03-22T09:14:16Z</time></trkpt>
<trkpt lat="42.265343" lon="3.257588"><ele>221.9</ele><time>2011-03-22T09:14:21Z</time></trkpt>
<trkpt lat="42.265365" lon="3.257265"><ele>222</ele><time>2011-03-22T09:14:26Z</time></trkpt>
<trkpt lat="42.265400" lon="3.256957"><ele>222.4</ele><time>2011-03-22T09:14:31Z</time></trkpt>
<trkpt lat="42.265472" lon="3.256648"><ele>222.6</ele><time>2011-03-22T09:14:36Z</time></trkpt>
<trkpt lat="42.265568" lon="3.256338"><ele>223</ele><time>2011-03-22T09:14:41Z</time></trkpt>
<trkpt lat="42.265648" lon="3.256020"><ele>223.2</ele><time>2011-03-22T09:14:46Z</time></trkpt>
<trkpt lat="42.265735" lon="3.255713"><ele>223.6</ele><time>2011-03-22T09:14:51Z</time></trkpt>
<trkpt lat="42.265868" lon="3.255442"><ele>223.8</ele><time>2011-03-22T09:14:56Z</time></trkpt>
<trkpt lat="42.266113" lon="3.255318"><ele>223.4</ele><time>2011-03-22T09:15:01Z</time></trkpt>
<trkpt lat="42.266388" lon="3.255205"><ele>222.4</ele><time>2011-03-22T09:15:06Z</time></trkpt>
<trkpt lat="42.266670" lon="3.255115"><ele>221.5</ele><time>2011-03-22T09:15:11Z</time></trkpt>
<trkpt lat="42.266957" lon="3.255108"><ele>220.5</ele><time>2011-03-22T09:15:16Z</time></trkpt>
<trkpt lat="42.267155" lon="3.254907"><ele>219</ele><time>2011-03-22T09:15:21Z</time></trkpt>
<trkpt lat="42.267143" lon="3.254547"><ele>218.3</ele><time>2011-03-22T09:15:26Z</time></trkpt>
<trkpt lat="42.267268" lon="3.254227"><ele>217.7</ele><time>2011-03-22T09:15:31Z</time></trkpt>
<trkpt lat="42.267495" lon="3.254008"><ele>217.2</ele><time>2011-03-22T09:15:36Z</time></trkpt>
<trkpt lat="42.267777" lon="3.253913"><ele>216.3</ele><time>2011-03-22T09:15:41Z</time></trkpt>
<trkpt lat="42.268020" lon="3.253850"><ele>215.8</ele><time>2011-03-22T09:15:46Z</time></trkpt>
<trkpt lat="42.268173" lon="3.253830"><ele>215.5</ele><time>2011-03-22T09:15:51Z</time></trkpt>
<trkpt lat="42.268208" lon="3.253625"><ele>214.8</ele><time>2011-03-22T09:15:56Z</time></trkpt>
<trkpt lat="42.268047" lon="3.253365"><ele>213.1</ele><time>2011-03-22T09:16:01Z</time></trkpt>
<trkpt lat="42.267868" lon="3.253082"><ele>211.1</ele><time>2011-03-22T09:16:06Z</time></trkpt>
<trkpt lat="42.267807" lon="3.252710"><ele>209.6</ele><time>2011-03-22T09:16:11Z</time></trkpt>
<trkpt lat="42.267918" lon="3.252298"><ele>207.6</ele><time>2011-03-22T09:16:16Z</time></trkpt>
<trkpt lat="42.267975" lon="3.251853"><ele>205.7</ele><time>2011-03-22T09:16:21Z</time></trkpt>
<trkpt lat="42.267857" lon="3.251410"><ele>203.4</ele><time>2011-03-22T09:16:26Z</time></trkpt>
<trkpt lat="42.267623" lon="3.251058"><ele>201.6</ele><time>2011-03-22T09:16:31Z</time></trkpt>
<trkpt lat="42.267392" lon="3.250685"><ele>199.5</ele><time>2011-03-22T09:16:36Z</time></trkpt>
<trkpt lat="42.267188" lon="3.250335"><ele>197.5</ele><time>2011-03-22T09:16:41Z</time></trkpt>
<trkpt lat="42.267238" lon="3.249902"><ele>195.3</ele><time>2011-03-22T09:16:46Z</time></trkpt>
<trkpt lat="42.267413" lon="3.249478"><ele>193.3</ele><time>2011-03-22T09:16:51Z</time></trkpt>
<trkpt lat="42.267593" lon="3.249138"><ele>191.4</ele><time>2011-03-22T09:16:56Z</time></trkpt>
<trkpt lat="42.267430" lon="3.248985"><ele>190.1</ele><time>2011-03-22T09:17:01Z</time></trkpt>
<trkpt lat="42.267147" lon="3.249062"><ele>188.1</ele><time>2011-03-22T09:17:06Z</time></trkpt>
<trkpt lat="42.266850" lon="3.249173"><ele>186.6</ele><time>2011-03-22T09:17:11Z</time></trkpt>
<trkpt lat="42.266555" lon="3.249187"><ele>184.7</ele><time>2011-03-22T09:17:16Z</time></trkpt>
<trkpt lat="42.266208" lon="3.249218"><ele>182.3</ele><time>2011-03-22T09:17:21Z</time></trkpt>
<trkpt lat="42.265835" lon="3.249320"><ele>180</ele><time>2011-03-22T09:17:26Z</time></trkpt>
<trkpt lat="42.265477" lon="3.249460"><ele>177.9</ele><time>2011-03-22T09:17:31Z</time></trkpt>
<trkpt lat="42.265148" lon="3.249440"><ele>175.8</ele><time>2011-03-22T09:17:36Z</time></trkpt>
<trkpt lat="42.264882" lon="3.249172"><ele>173.2</ele><time>2011-03-22T09:17:41Z</time></trkpt>
<trkpt lat="42.264622" lon="3.248825"><ele>169.9</ele><time>2011-03-22T09:17:46Z</time></trkpt>
<trkpt lat="42.264332" lon="3.248508"><ele>166.2</ele><time>2011-03-22T09:17:51Z</time></trkpt>
<trkpt lat="42.264122" lon="3.248230"><ele>163.3</ele><time>2011-03-22T09:17:56Z</time></trkpt>
<trkpt lat="42.264148" lon="3.247785"><ele>160.4</ele><time>2011-03-22T09:18:01Z</time></trkpt>
<trkpt lat="42.264030" lon="3.247438"><ele>157.9</ele><time>2011-03-22T09:18:06Z</time></trkpt>
<trkpt lat="42.263710" lon="3.247388"><ele>155.4</ele><time>2011-03-22T09:18:11Z</time></trkpt>
<trkpt lat="42.263375" lon="3.247243"><ele>152.1</ele><time>2011-03-22T09:18:16Z</time></trkpt>
<trkpt lat="42.263068" lon="3.247012"><ele>148.8</ele><time>2011-03-22T09:18:21Z</time></trkpt>
<trkpt lat="42.262908" lon="3.246675"><ele>146.2</ele><time>2011-03-22T09:18:26Z</time></trkpt>
<trkpt lat="42.262962" lon="3.246218"><ele>143.5</ele><time>2011-03-22T09:18:31Z</time></trkpt>
<trkpt lat="42.262822" lon="3.245770"><ele>139.9</ele><time>2011-03-22T09:18:36Z</time></trkpt>
<trkpt lat="42.262478" lon="3.245535"><ele>136.6</ele><time>2011-03-22T09:18:41Z</time></trkpt>
<trkpt lat="42.262200" lon="3.245352"><ele>133.8</ele><time>2011-03-22T09:18:46Z</time></trkpt>
<trkpt lat="42.262020" lon="3.244965"><ele>130.5</ele><time>2011-03-22T09:18:51Z</time></trkpt>
<trkpt lat="42.262115" lon="3.244540"><ele>127.8</ele><time>2011-03-22T09:18:56Z</time></trkpt>
<trkpt lat="42.262355" lon="3.244200"><ele>124.9</ele><time>2011-03-22T09:19:01Z</time></trkpt>
<trkpt lat="42.262612" lon="3.243933"><ele>122.5</ele><time>2011-03-22T09:19:06Z</time></trkpt>
<trkpt lat="42.262630" lon="3.243712"><ele>120.2</ele><time>2011-03-22T09:19:11Z</time></trkpt>
<trkpt lat="42.262375" lon="3.243817"><ele>117.8</ele><time>2011-03-22T09:19:16Z</time></trkpt>
<trkpt lat="42.262112" lon="3.244035"><ele>114.9</ele><time>2011-03-22T09:19:21Z</time></trkpt>
<trkpt lat="42.261798" lon="3.244175"><ele>111</ele><time>2011-03-22T09:19:26Z</time></trkpt>
<trkpt lat="42.261612" lon="3.244543"><ele>108.1</ele><time>2011-03-22T09:19:31Z</time></trkpt>
<trkpt lat="42.261455" lon="3.244952"><ele>105</ele><time>2011-03-22T09:19:36Z</time></trkpt>
<trkpt lat="42.261298" lon="3.245373"><ele>101.6</ele><time>2011-03-22T09:19:41Z</time></trkpt>
<trkpt lat="42.261227" lon="3.245775"><ele>99.3</ele><time>2011-03-22T09:19:46Z</time></trkpt>
<trkpt lat="42.261413" lon="3.246115"><ele>96.8</ele><time>2011-03-22T09:19:51Z</time></trkpt>
<trkpt lat="42.261677" lon="3.246390"><ele>94.3</ele><time>2011-03-22T09:19:56Z</time></trkpt>
<trkpt lat="42.261653" lon="3.246807"><ele>92</ele><time>2011-03-22T09:20:01Z</time></trkpt>
<trkpt lat="42.261665" lon="3.247295"><ele>88.7</ele><time>2011-03-22T09:20:06Z</time></trkpt>
<trkpt lat="42.261715" lon="3.247788"><ele>85.1</ele><time>2011-03-22T09:20:11Z</time></trkpt>
<trkpt lat="42.261887" lon="3.248207"><ele>82</ele><time>2011-03-22T09:20:16Z</time></trkpt>
<trkpt lat="42.261840" lon="3.248550"><ele>79.7</ele><time>2011-03-22T09:20:21Z</time></trkpt>
<trkpt lat="42.261555" lon="3.248615"><ele>78.2</ele><time>2011-03-22T09:20:26Z</time></trkpt>
<trkpt lat="42.261238" lon="3.248712"><ele>76.2</ele><time>2011-03-22T09:20:31Z</time></trkpt>
<trkpt lat="42.260933" lon="3.248835"><ele>73.2</ele><time>2011-03-22T09:20:36Z</time></trkpt>
<trkpt lat="42.260635" lon="3.249073"><ele>70.1</ele><time>2011-03-22T09:20:41Z</time></trkpt>
<trkpt lat="42.260307" lon="3.249197"><ele>67.6</ele><time>2011-03-22T09:20:46Z</time></trkpt>
<trkpt lat="42.260120" lon="3.249367"><ele>65.6</ele><time>2011-03-22T09:20:51Z</time></trkpt>
<trkpt lat="42.260158" lon="3.249137"><ele>63.5</ele><time>2011-03-22T09:20:56Z</time></trkpt>
<trkpt lat="42.260418" lon="3.248933"><ele>60.7</ele><time>2011-03-22T09:21:01Z</time></trkpt>
<trkpt lat="42.260727" lon="3.248675"><ele>58</ele><time>2011-03-22T09:21:06Z</time></trkpt>
<trkpt lat="42.261025" lon="3.248405"><ele>55.3</ele><time>2011-03-22T09:21:11Z</time></trkpt>
<trkpt lat="42.261242" lon="3.248128"><ele>53.2</ele><time>2011-03-22T09:21:16Z</time></trkpt>
<trkpt lat="42.261123" lon="3.247757"><ele>50.9</ele><time>2011-03-22T09:21:21Z</time></trkpt>
<trkpt lat="42.260955" lon="3.247333"><ele>48.9</ele><time>2011-03-22T09:21:26Z</time></trkpt>
<trkpt lat="42.260807" lon="3.246943"><ele>46.5</ele><time>2011-03-22T09:21:31Z</time></trkpt>
<trkpt lat="42.260502" lon="3.246782"><ele>43.6</ele><time>2011-03-22T09:21:36Z</time></trkpt>
<trkpt lat="42.260312" lon="3.246677"><ele>42.3</ele><time>2011-03-22T09:21:41Z</time></trkpt>
<trkpt lat="42.260297" lon="3.246670"><ele>41.9</ele><time>2011-03-22T09:21:46Z</time></trkpt>
<trkpt lat="42.260292" lon="3.246675"><ele>41.7</ele><time>2011-03-22T09:21:51Z</time></trkpt>
<trkpt lat="42.260292" lon="3.246680"><ele>41.8</ele><time>2011-03-22T09:21:56Z</time></trkpt>
<trkpt lat="42.260288" lon="3.246663"><ele>41.6</ele><time>2011-03-22T09:22:01Z</time></trkpt>
<trkpt lat="42.260265" lon="3.246660"><ele>41.8</ele><time>2011-03-22T09:22:06Z</time></trkpt>
<trkpt lat="42.260167" lon="3.246650"><ele>41.1</ele><time>2011-03-22T09:22:11Z</time></trkpt>
<trkpt lat="42.259983" lon="3.246517"><ele>39.6</ele><time>2011-03-22T09:22:16Z</time></trkpt>
<trkpt lat="42.259827" lon="3.246148"><ele>37.8</ele><time>2011-03-22T09:22:21Z</time></trkpt>
<trkpt lat="42.259765" lon="3.245762"><ele>37.9</ele><time>2011-03-22T09:22:26Z</time></trkpt>
<trkpt lat="42.259872" lon="3.245553"><ele>39.1</ele><time>2011-03-22T09:22:31Z</time></trkpt>
<trkpt lat="42.259972" lon="3.245417"><ele>39.7</ele><time>2011-03-22T09:22:36Z</time></trkpt>
<trkpt lat="42.260087" lon="3.245308"><ele>40.3</ele><time>2011-03-22T09:22:41Z</time></trkpt>
<trkpt lat="42.260178" lon="3.245185"><ele>41.3</ele><time>2011-03-22T09:22:46Z</time></trkpt>
<trkpt lat="42.260258" lon="3.245052"><ele>42.3</ele><time>2011-03-22T09:22:51Z</time></trkpt>
<trkpt lat="42.260327" lon="3.244910"><ele>43.2</ele><time>2011-03-22T09:22:56Z</time></trkpt>
<trkpt lat="42.260333" lon="3.244745"><ele>43.9</ele><time>2011-03-22T09:23:01Z</time></trkpt>
<trkpt lat="42.260232" lon="3.244667"><ele>44.5</ele><time>2011-03-22T09:23:06Z</time></trkpt>
<trkpt lat="42.260117" lon="3.244748"><ele>45.2</ele><time>2011-03-22T09:23:11Z</time></trkpt>
<trkpt lat="42.260033" lon="3.244897"><ele>45.7</ele><time>2011-03-22T09:23:16Z</time></trkpt>
<trkpt lat="42.259957" lon="3.245048"><ele>46.1</ele><time>2011-03-22T09:23:21Z</time></trkpt>
<trkpt lat="42.259842" lon="3.245203"><ele>46.2</ele><time>2011-03-22T09:23:26Z</time></trkpt>
<trkpt lat="42.259735" lon="3.245337"><ele>46.8</ele><time>2011-03-22T09:23:31Z</time></trkpt>
<trkpt lat="42.259632" lon="3.245465"><ele>47.3</ele><time>2011-03-22T09:23:36Z</time></trkpt>
<trkpt lat="42.259525" lon="3.245575"><ele>47.8</ele><time>2011-03-22T09:23:41Z</time></trkpt>
<trkpt lat="42.259377" lon="3.245565"><ele>48.3</ele><time>2011-03-22T09:23:46Z</time></trkpt>
<trkpt lat="42.259232" lon="3.245528"><ele>49.1</ele><time>2011-03-22T09:23:51Z</time></trkpt>
<trkpt lat="42.259083" lon="3.245460"><ele>49.2</ele><time>2011-03-22T09:23:56Z</time></trkpt>
<trkpt lat="42.258942" lon="3.245442"><ele>49.8</ele><time>2011-03-22T09:24:01Z</time></trkpt>
<trkpt lat="42.258858" lon="3.245593"><ele>50.1</ele><time>2011-03-22T09:24:06Z</time></trkpt>
<trkpt lat="42.258903" lon="3.245778"><ele>50.9</ele><time>2011-03-22T09:24:11Z</time></trkpt>
<trkpt lat="42.258987" lon="3.245907"><ele>51.8</ele><time>2011-03-22T09:24:16Z</time></trkpt>
<trkpt lat="42.259048" lon="3.246045"><ele>52.8</ele><time>2011-03-22T09:24:21Z</time></trkpt>
<trkpt lat="42.259083" lon="3.246195"><ele>53.7</ele><time>2011-03-22T09:24:26Z</time></trkpt>
<trkpt lat="42.259105" lon="3.246347"><ele>54.6</ele><time>2011-03-22T09:24:31Z</time></trkpt>
<trkpt lat="42.259128" lon="3.246525"><ele>55.2</ele><time>2011-03-22T09:24:36Z</time></trkpt>
<trkpt lat="42.259140" lon="3.246685"><ele>56.3</ele><time>2011-03-22T09:24:41Z</time></trkpt>
<trkpt lat="42.259158" lon="3.246838"><ele>57.3</ele><time>2011-03-22T09:24:46Z</time></trkpt>
<trkpt lat="42.259178" lon="3.246998"><ele>58.4</ele><time>2011-03-22T09:24:51Z</time></trkpt>
<trkpt lat="42.259193" lon="3.247160"><ele>59.7</ele><time>2011-03-22T09:24:56Z</time></trkpt>
<trkpt lat="42.259193" lon="3.247300"><ele>60.7</ele><time>2011-03-22T09:25:01Z</time></trkpt>
<trkpt lat="42.259163" lon="3.247423"><ele>61.2</ele><time>2011-03-22T09:25:06Z</time></trkpt>
<trkpt lat="42.259105" lon="3.247538"><ele>61.9</ele><time>2011-03-22T09:25:11Z</time></trkpt>
<trkpt lat="42.259003" lon="3.247615"><ele>62</ele><time>2011-03-22T09:25:16Z</time></trkpt>
<trkpt lat="42.258900" lon="3.247658"><ele>63</ele><time>2011-03-22T09:25:21Z</time></trkpt>
<trkpt lat="42.258800" lon="3.247678"><ele>63.9</ele><time>2011-03-22T09:25:26Z</time></trkpt>
<trkpt lat="42.258698" lon="3.247690"><ele>64.7</ele><time>2011-03-22T09:25:31Z</time></trkpt>
<trkpt lat="42.258598" lon="3.247695"><ele>65.5</ele><time>2011-03-22T09:25:36Z</time></trkpt>
<trkpt lat="42.258503" lon="3.247710"><ele>66.5</ele><time>2011-03-22T09:25:41Z</time></trkpt>
<trkpt lat="42.258403" lon="3.247723"><ele>67.3</ele><time>2011-03-22T09:25:46Z</time></trkpt>
<trkpt lat="42.258308" lon="3.247752"><ele>68</ele><time>2011-03-22T09:25:51Z</time></trkpt>
<trkpt lat="42.258198" lon="3.247802"><ele>68.4</ele><time>2011-03-22T09:25:56Z</time></trkpt>
<trkpt lat="42.258102" lon="3.247862"><ele>69.4</ele><time>2011-03-22T09:26:01Z</time></trkpt>
<trkpt lat="42.258007" lon="3.247930"><ele>70.3</ele><time>2011-03-22T09:26:06Z</time></trkpt>
<trkpt lat="42.257930" lon="3.248022"><ele>71.4</ele><time>2011-03-22T09:26:11Z</time></trkpt>
<trkpt lat="42.257850" lon="3.248138"><ele>72</ele><time>2011-03-22T09:26:16Z</time></trkpt>
<trkpt lat="42.257770" lon="3.248257"><ele>72.5</ele><time>2011-03-22T09:26:21Z</time></trkpt>
<trkpt lat="42.257678" lon="3.248383"><ele>72.8</ele><time>2011-03-22T09:26:26Z</time></trkpt>
<trkpt lat="42.257553" lon="3.248507"><ele>72.5</ele><time>2011-03-22T09:26:31Z</time></trkpt>
<trkpt lat="42.257438" lon="3.248642"><ele>72.9</ele><time>2011-03-22T09:26:36Z</time></trkpt>
<trkpt lat="42.257347" lon="3.248770"><ele>73.7</ele><time>2011-03-22T09:26:41Z</time></trkpt>
<trkpt lat="42.257255" lon="3.248887"><ele>74.5</ele><time>2011-03-22T09:26:46Z</time></trkpt>
<trkpt lat="42.257172" lon="3.249003"><ele>75.3</ele><time>2011-03-22T09:26:51Z</time></trkpt>
<trkpt lat="42.257080" lon="3.249122"><ele>76.1</ele><time>2011-03-22T09:26:56Z</time></trkpt>
<trkpt lat="42.256982" lon="3.249227"><ele>76.9</ele><time>2011-03-22T09:27:01Z</time></trkpt>
<trkpt lat="42.256863" lon="3.249285"><ele>77.5</ele><time>2011-03-22T09:27:06Z</time></trkpt>
<trkpt lat="42.256737" lon="3.249278"><ele>78.4</ele><time>2011-03-22T09:27:11Z</time></trkpt>
<trkpt lat="42.256612" lon="3.249210"><ele>78.9</ele><time>2011-03-22T09:27:16Z</time></trkpt>
<trkpt lat="42.256527" lon="3.249115"><ele>79.9</ele><time>2011-03-22T09:27:21Z</time></trkpt>
<trkpt lat="42.256473" lon="3.248982"><ele>80.6</ele><time>2011-03-22T09:27:26Z</time></trkpt>
<trkpt lat="42.256432" lon="3.248845"><ele>81.5</ele><time>2011-03-22T09:27:31Z</time></trkpt>
<trkpt lat="42.256390" lon="3.248713"><ele>82.5</ele><time>2011-03-22T09:27:36Z</time></trkpt>
<trkpt lat="42.256340" lon="3.248597"><ele>83.3</ele><time>2011-03-22T09:27:41Z</time></trkpt>
<trkpt lat="42.256245" lon="3.248498"><ele>83.7</ele><time>2011-03-22T09:27:46Z</time></trkpt>
<trkpt lat="42.256150" lon="3.248455"><ele>84.4</ele><time>2011-03-22T09:27:51Z</time></trkpt>
<trkpt lat="42.256050" lon="3.248495"><ele>85</ele><time>2011-03-22T09:27:56Z</time></trkpt>
<trkpt lat="42.255967" lon="3.248587"><ele>85.9</ele><time>2011-03-22T09:28:01Z</time></trkpt>
<trkpt lat="42.255867" lon="3.248628"><ele>86.7</ele><time>2011-03-22T09:28:06Z</time></trkpt>
<trkpt lat="42.255760" lon="3.248663"><ele>87.1</ele><time>2011-03-22T09:28:11Z</time></trkpt>
<trkpt lat="42.255653" lon="3.248735"><ele>87.8</ele><time>2011-03-22T09:28:16Z</time></trkpt>
<trkpt lat="42.255562" lon="3.248810"><ele>88.7</ele><time>2011-03-22T09:28:21Z</time></trkpt>
<trkpt lat="42.255473" lon="3.248897"><ele>89.6</ele><time>2011-03-22T09:28:26Z</time></trkpt>
<trkpt lat="42.255387" lon="3.248987"><ele>90.4</ele><time>2011-03-22T09:28:31Z</time></trkpt>
<trkpt lat="42.255298" lon="3.249073"><ele>91.2</ele><time>2011-03-22T09:28:36Z</time></trkpt>
<trkpt lat="42.255207" lon="3.249155"><ele>92.2</ele><time>2011-03-22T09:28:41Z</time></trkpt>
<trkpt lat="42.255112" lon="3.249252"><ele>92.9</ele><time>2011-03-22T09:28:46Z</time></trkpt>
<trkpt lat="42.255017" lon="3.249315"><ele>93.9</ele><time>2011-03-22T09:28:51Z</time></trkpt>
<trkpt lat="42.254913" lon="3.249358"><ele>94.7</ele><time>2011-03-22T09:28:56Z</time></trkpt>
<trkpt lat="42.254810" lon="3.249402"><ele>95.6</ele><time>2011-03-22T09:29:01Z</time></trkpt>
<trkpt lat="42.254707" lon="3.249442"><ele>96.4</ele><time>2011-03-22T09:29:06Z</time></trkpt>
<trkpt lat="42.254605" lon="3.249473"><ele>97.2</ele><time>2011-03-22T09:29:11Z</time></trkpt>
<trkpt lat="42.254493" lon="3.249500"><ele>97.9</ele><time>2011-03-22T09:29:16Z</time></trkpt>
<trkpt lat="42.254383" lon="3.249503"><ele>98.3</ele><time>2011-03-22T09:29:21Z</time></trkpt>
<trkpt lat="42.254257" lon="3.249487"><ele>98.9</ele><time>2011-03-22T09:29:26Z</time></trkpt>
<trkpt lat="42.254158" lon="3.249425"><ele>99.7</ele><time>2011-03-22T09:29:31Z</time></trkpt>
<trkpt lat="42.254063" lon="3.249333"><ele>100.4</ele><time>2011-03-22T09:29:36Z</time></trkpt>
<trkpt lat="42.253987" lon="3.249213"><ele>101</ele><time>2011-03-22T09:29:41Z</time></trkpt>
<trkpt lat="42.253898" lon="3.249082"><ele>101.2</ele><time>2011-03-22T09:29:46Z</time></trkpt>
<trkpt lat="42.253803" lon="3.248932"><ele>100.5</ele><time>2011-03-22T09:29:51Z</time></trkpt>
<trkpt lat="42.253670" lon="3.248740"><ele>99.2</ele><time>2011-03-22T09:29:56Z</time></trkpt>
<trkpt lat="42.253517" lon="3.248493"><ele>98.2</ele><time>2011-03-22T09:30:01Z</time></trkpt>
<trkpt lat="42.253345" lon="3.248265"><ele>97.5</ele><time>2011-03-22T09:30:06Z</time></trkpt>
<trkpt lat="42.253360" lon="3.247953"><ele>96.6</ele><time>2011-03-22T09:30:11Z</time></trkpt>
<trkpt lat="42.253288" lon="3.247715"><ele>96.1</ele><time>2011-03-22T09:30:16Z</time></trkpt>
<trkpt lat="42.253052" lon="3.247795"><ele>95.2</ele><time>2011-03-22T09:30:21Z</time></trkpt>
<trkpt lat="42.252815" lon="3.247855"><ele>94.3</ele><time>2011-03-22T09:30:26Z</time></trkpt>
<trkpt lat="42.252587" lon="3.247712"><ele>93</ele><time>2011-03-22T09:30:31Z</time></trkpt>
<trkpt lat="42.252563" lon="3.247383"><ele>92.7</ele><time>2011-03-22T09:30:36Z</time></trkpt>
<trkpt lat="42.252652" lon="3.247145"><ele>93</ele><time>2011-03-22T09:30:41Z</time></trkpt>
<trkpt lat="42.252578" lon="3.246998"><ele>93.1</ele><time>2011-03-22T09:30:46Z</time></trkpt>
<trkpt lat="42.252438" lon="3.247078"><ele>92.8</ele><time>2011-03-22T09:30:51Z</time></trkpt>
<trkpt lat="42.252270" lon="3.247275"><ele>91.7</ele><time>2011-03-22T09:30:56Z</time></trkpt>
<trkpt lat="42.252022" lon="3.247477"><ele>90.1</ele><time>2011-03-22T09:31:01Z</time></trkpt>
<trkpt lat="42.251747" lon="3.247640"><ele>88.9</ele><time>2011-03-22T09:31:06Z</time></trkpt>
<trkpt lat="42.251427" lon="3.247642"><ele>87.4</ele><time>2011-03-22T09:31:11Z</time></trkpt>
<trkpt lat="42.251118" lon="3.247653"><ele>85.8</ele><time>2011-03-22T09:31:16Z</time></trkpt>
<trkpt lat="42.250828" lon="3.247742"><ele>84.6</ele><time>2011-03-22T09:31:21Z</time></trkpt>
<trkpt lat="42.250533" lon="3.247813"><ele>83.1</ele><time>2011-03-22T09:31:26Z</time></trkpt>
<trkpt lat="42.250328" lon="3.248132"><ele>81.2</ele><time>2011-03-22T09:31:31Z</time></trkpt>
<trkpt lat="42.250130" lon="3.248438"><ele>79.6</ele><time>2011-03-22T09:31:36Z</time></trkpt>
<trkpt lat="42.249843" lon="3.248528"><ele>78</ele><time>2011-03-22T09:31:41Z</time></trkpt>
<trkpt lat="42.249538" lon="3.248618"><ele>76.5</ele><time>2011-03-22T09:31:46Z</time></trkpt>
<trkpt lat="42.249352" lon="3.248937"><ele>75.2</ele><time>2011-03-22T09:31:51Z</time></trkpt>
<trkpt lat="42.249215" lon="3.249272"><ele>73.5</ele><time>2011-03-22T09:31:56Z</time></trkpt>
<trkpt lat="42.248973" lon="3.249507"><ele>71.9</ele><time>2011-03-22T09:32:01Z</time></trkpt>
<trkpt lat="42.248727" lon="3.249498"><ele>70.2</ele><time>2011-03-22T09:32:06Z</time></trkpt>
<trkpt lat="42.248508" lon="3.249212"><ele>68.6</ele><time>2011-03-22T09:32:11Z</time></trkpt>
<trkpt lat="42.248348" lon="3.248823"><ele>66.8</ele><time>2011-03-22T09:32:16Z</time></trkpt>
<trkpt lat="42.248280" lon="3.248352"><ele>65.2</ele><time>2011-03-22T09:32:21Z</time></trkpt>
<trkpt lat="42.248242" lon="3.247883"><ele>63.6</ele><time>2011-03-22T09:32:26Z</time></trkpt>
<trkpt lat="42.248185" lon="3.247517"><ele>62</ele><time>2011-03-22T09:32:31Z</time></trkpt>
<trkpt lat="42.247890" lon="3.247487"><ele>60.3</ele><time>2011-03-22T09:32:36Z</time></trkpt>
<trkpt lat="42.247738" lon="3.247387"><ele>58.7</ele><time>2011-03-22T09:32:41Z</time></trkpt>
<trkpt lat="42.247818" lon="3.247052"><ele>57.2</ele><time>2011-03-22T09:32:46Z</time></trkpt>
<trkpt lat="42.247978" lon="3.246705"><ele>55.7</ele><time>2011-03-22T09:32:51Z</time></trkpt>
<trkpt lat="42.248195" lon="3.246377"><ele>54.1</ele><time>2011-03-22T09:32:56Z</time></trkpt>
<trkpt lat="42.248473" lon="3.246193"><ele>52.6</ele><time>2011-03-22T09:33:01Z</time></trkpt>
<trkpt lat="42.248780" lon="3.246250"><ele>50.6</ele><time>2011-03-22T09:33:06Z</time></trkpt>
<trkpt lat="42.249092" lon="3.246445"><ele>48.7</ele><time>2011-03-22T09:33:11Z</time></trkpt>
<trkpt lat="42.249402" lon="3.246353"><ele>46.8</ele><time>2011-03-22T09:33:16Z</time></trkpt>
<trkpt lat="42.249657" lon="3.246032"><ele>44.5</ele><time>2011-03-22T09:33:21Z</time></trkpt>
<trkpt lat="42.249920" lon="3.245735"><ele>42.2</ele><time>2011-03-22T09:33:26Z</time></trkpt>
<trkpt lat="42.250243" lon="3.245560"><ele>40.4</ele><time>2011-03-22T09:33:31Z</time></trkpt>
<trkpt lat="42.250587" lon="3.245478"><ele>38.5</ele><time>2011-03-22T09:33:36Z</time></trkpt>
<trkpt lat="42.250912" lon="3.245493"><ele>37</ele><time>2011-03-22T09:33:41Z</time></trkpt>
<trkpt lat="42.251125" lon="3.245218"><ele>34.9</ele><time>2011-03-22T09:33:46Z</time></trkpt>
<trkpt lat="42.251048" lon="3.244797"><ele>33.1</ele><time>2011-03-22T09:33:51Z</time></trkpt>
<trkpt lat="42.251065" lon="3.244377"><ele>31.3</ele><time>2011-03-22T09:33:56Z</time></trkpt>
<trkpt lat="42.251305" lon="3.244027"><ele>29.3</ele><time>2011-03-22T09:34:01Z</time></trkpt>
<trkpt lat="42.251595" lon="3.243737"><ele>27.8</ele><time>2011-03-22T09:34:06Z</time></trkpt>
<trkpt lat="42.251643" lon="3.243333"><ele>27.1</ele><time>2011-03-22T09:34:11Z</time></trkpt>
<trkpt lat="42.251388" lon="3.243248"><ele>27.6</ele><time>2011-03-22T09:34:16Z</time></trkpt>
<trkpt lat="42.251128" lon="3.243198"><ele>28.7</ele><time>2011-03-22T09:34:21Z</time></trkpt>
<trkpt lat="42.250962" lon="3.242965"><ele>30.3</ele><time>2011-03-22T09:34:26Z</time></trkpt>
<trkpt lat="42.250802" lon="3.242770"><ele>31.4</ele><time>2011-03-22T09:34:31Z</time></trkpt>
<trkpt lat="42.250690" lon="3.242538"><ele>31.9</ele><time>2011-03-22T09:34:36Z</time></trkpt>
<trkpt lat="42.250690" lon="3.242228"><ele>32.3</ele><time>2011-03-22T09:34:41Z</time></trkpt>
<trkpt lat="42.250778" lon="3.241913"><ele>32.1</ele><time>2011-03-22T09:34:46Z</time></trkpt>
<trkpt lat="42.250965" lon="3.241602"><ele>30.9</ele><time>2011-03-22T09:34:51Z</time></trkpt>
<trkpt lat="42.251193" lon="3.241280"><ele>29.7</ele><time>2011-03-22T09:34:56Z</time></trkpt>
<trkpt lat="42.251418" lon="3.240945"><ele>28</ele><time>2011-03-22T09:35:01Z</time></trkpt>
<trkpt lat="42.251580" lon="3.240575"><ele>26.8</ele><time>2011-03-22T09:35:06Z</time></trkpt>
<trkpt lat="42.251717" lon="3.240188"><ele>25.6</ele><time>2011-03-22T09:35:11Z</time></trkpt>
<trkpt lat="42.251862" lon="3.239833"><ele>24.1</ele><time>2011-03-22T09:35:16Z</time></trkpt>
<trkpt lat="42.251912" lon="3.239412"><ele>21.4</ele><time>2011-03-22T09:35:21Z</time></trkpt>
<trkpt lat="42.252122" lon="3.239067"><ele>19.9</ele><time>2011-03-22T09:35:26Z</time></trkpt>
<trkpt lat="42.252255" lon="3.238683"><ele>18.2</ele><time>2011-03-22T09:35:31Z</time></trkpt>
<trkpt lat="42.252052" lon="3.238447"><ele>18.2</ele><time>2011-03-22T09:35:36Z</time></trkpt>
<trkpt lat="42.251847" lon="3.238413"><ele>19.2</ele><time>2011-03-22T09:35:41Z</time></trkpt>
<trkpt lat="42.251743" lon="3.238298"><ele>20.2</ele><time>2011-03-22T09:35:46Z</time></trkpt>
<trkpt lat="42.251682" lon="3.238148"><ele>21.1</ele><time>2011-03-22T09:35:51Z</time></trkpt>
<trkpt lat="42.251622" lon="3.237992"><ele>22.1</ele><time>2011-03-22T09:35:56Z</time></trkpt>
<trkpt lat="42.251530" lon="3.237867"><ele>23.1</ele><time>2011-03-22T09:36:01Z</time></trkpt>
<trkpt lat="42.251418" lon="3.237772"><ele>24.1</ele><time>2011-03-22T09:36:06Z</time></trkpt>
<trkpt lat="42.251300" lon="3.237702"><ele>25.2</ele><time>2011-03-22T09:36:11Z</time></trkpt>
<trkpt lat="42.251187" lon="3.237647"><ele>26.3</ele><time>2011-03-22T09:36:16Z</time></trkpt>
<trkpt lat="42.251060" lon="3.237645"><ele>26.9</ele><time>2011-03-22T09:36:21Z</time></trkpt>
<trkpt lat="42.250942" lon="3.237652"><ele>27.8</ele><time>2011-03-22T09:36:26Z</time></trkpt>
<trkpt lat="42.250832" lon="3.237627"><ele>28.9</ele><time>2011-03-22T09:36:31Z</time></trkpt>
<trkpt lat="42.250717" lon="3.237582"><ele>29.8</ele><time>2011-03-22T09:36:36Z</time></trkpt>
<trkpt lat="42.250603" lon="3.237553"><ele>30.7</ele><time>2011-03-22T09:36:41Z</time></trkpt>
<trkpt lat="42.250485" lon="3.237523"><ele>31.7</ele><time>2011-03-22T09:36:46Z</time></trkpt>
<trkpt lat="42.250362" lon="3.237473"><ele>32.2</ele><time>2011-03-22T09:36:51Z</time></trkpt>
<trkpt lat="42.250248" lon="3.237420"><ele>33.1</ele><time>2011-03-22T09:36:56Z</time></trkpt>
<trkpt lat="42.250142" lon="3.237357"><ele>34</ele><time>2011-03-22T09:37:01Z</time></trkpt>
<trkpt lat="42.250035" lon="3.237302"><ele>34.9</ele><time>2011-03-22T09:37:06Z</time></trkpt>
<trkpt lat="42.249923" lon="3.237257"><ele>35.9</ele><time>2011-03-22T09:37:11Z</time></trkpt>
<trkpt lat="42.249817" lon="3.237217"><ele>36.9</ele><time>2011-03-22T09:37:16Z</time></trkpt>
<trkpt lat="42.249725" lon="3.237188"><ele>37.4</ele><time>2011-03-22T09:37:21Z</time></trkpt>
<trkpt lat="42.249618" lon="3.237172"><ele>38.3</ele><time>2011-03-22T09:37:26Z</time></trkpt>
<trkpt lat="42.249515" lon="3.237148"><ele>39.5</ele><time>2011-03-22T09:37:31Z</time></trkpt>
<trkpt lat="42.249405" lon="3.237120"><ele>40.7</ele><time>2011-03-22T09:37:36Z</time></trkpt>
<trkpt lat="42.249298" lon="3.237057"><ele>41.4</ele><time>2011-03-22T09:37:41Z</time></trkpt>
<trkpt lat="42.249195" lon="3.236992"><ele>41.9</ele><time>2011-03-22T09:37:46Z</time></trkpt>
<trkpt lat="42.249070" lon="3.236917"><ele>42.4</ele><time>2011-03-22T09:37:51Z</time></trkpt>
<trkpt lat="42.248958" lon="3.236855"><ele>43.5</ele><time>2011-03-22T09:37:56Z</time></trkpt>
<trkpt lat="42.248875" lon="3.236753"><ele>44.5</ele><time>2011-03-22T09:38:01Z</time></trkpt>
<trkpt lat="42.248837" lon="3.236590"><ele>45</ele><time>2011-03-22T09:38:06Z</time></trkpt>
<trkpt lat="42.248852" lon="3.236383"><ele>45</ele><time>2011-03-22T09:38:11Z</time></trkpt>
<trkpt lat="42.248952" lon="3.236198"><ele>45.2</ele><time>2011-03-22T09:38:16Z</time></trkpt>
<trkpt lat="42.249047" lon="3.236023"><ele>45.4</ele><time>2011-03-22T09:38:21Z</time></trkpt>
<trkpt lat="42.249157" lon="3.235837"><ele>45.5</ele><time>2011-03-22T09:38:26Z</time></trkpt>
<trkpt lat="42.249310" lon="3.235642"><ele>45.3</ele><time>2011-03-22T09:38:31Z</time></trkpt>
<trkpt lat="42.249482" lon="3.235440"><ele>44.9</ele><time>2011-03-22T09:38:36Z</time></trkpt>
<trkpt lat="42.249600" lon="3.235202"><ele>44.3</ele><time>2011-03-22T09:38:41Z</time></trkpt>
<trkpt lat="42.249535" lon="3.234888"><ele>43.3</ele><time>2011-03-22T09:38:46Z</time></trkpt>
<trkpt lat="42.249378" lon="3.234575"><ele>41.6</ele><time>2011-03-22T09:38:51Z</time></trkpt>
<trkpt lat="42.249313" lon="3.234163"><ele>40.4</ele><time>2011-03-22T09:38:56Z</time></trkpt>
<trkpt lat="42.249310" lon="3.233797"><ele>39.6</ele><time>2011-03-22T09:39:01Z</time></trkpt>
<trkpt lat="42.249340" lon="3.233562"><ele>39</ele><time>2011-03-22T09:39:06Z</time></trkpt>
<trkpt lat="42.249348" lon="3.233528"><ele>39.2</ele><time>2011-03-22T09:39:11Z</time></trkpt>
<trkpt lat="42.249367" lon="3.233473"><ele>39.2</ele><time>2011-03-22T09:39:16Z</time></trkpt>
<trkpt lat="42.249420" lon="3.233243"><ele>38.2</ele><time>2011-03-22T09:39:21Z</time></trkpt>
<trkpt lat="42.249493" lon="3.232920"><ele>37.2</ele><time>2011-03-22T09:39:26Z</time></trkpt>
<trkpt lat="42.249648" lon="3.232658"><ele>35.8</ele><time>2011-03-22T09:39:31Z</time></trkpt>
<trkpt lat="42.249897" lon="3.232482"><ele>34.2</ele><time>2011-03-22T09:39:36Z</time></trkpt>
<trkpt lat="42.250195" lon="3.232307"><ele>32.2</ele><time>2011-03-22T09:39:41Z</time></trkpt>
<trkpt lat="42.250443" lon="3.232053"><ele>29.9</ele><time>2011-03-22T09:39:46Z</time></trkpt>
<trkpt lat="42.250560" lon="3.231657"><ele>28.1</ele><time>2011-03-22T09:39:51Z</time></trkpt>
<trkpt lat="42.250778" lon="3.231323"><ele>25.9</ele><time>2011-03-22T09:39:56Z</time></trkpt>
<trkpt lat="42.251048" lon="3.231060"><ele>23.7</ele><time>2011-03-22T09:40:01Z</time></trkpt>
<trkpt lat="42.251323" lon="3.230888"><ele>21.8</ele><time>2011-03-22T09:40:06Z</time></trkpt>
<trkpt lat="42.251518" lon="3.230548"><ele>20</ele><time>2011-03-22T09:40:11Z</time></trkpt>
<trkpt lat="42.251767" lon="3.230332"><ele>18.2</ele><time>2011-03-22T09:40:16Z</time></trkpt>
<trkpt lat="42.251888" lon="3.229952"><ele>16.6</ele><time>2011-03-22T09:40:21Z</time></trkpt>
<trkpt lat="42.251953" lon="3.229548"><ele>15</ele><time>2011-03-22T09:40:26Z</time></trkpt>
<trkpt lat="42.252220" lon="3.229347"><ele>13.8</ele><time>2011-03-22T09:40:31Z</time></trkpt>
<trkpt lat="42.252388" lon="3.229057"><ele>13.7</ele><time>2011-03-22T09:40:36Z</time></trkpt>
<trkpt lat="42.252498" lon="3.228793"><ele>13.5</ele><time>2011-03-22T09:40:41Z</time></trkpt>
<trkpt lat="42.252625" lon="3.228557"><ele>13.3</ele><time>2011-03-22T09:40:46Z</time></trkpt>
<trkpt lat="42.252720" lon="3.228297"><ele>13.1</ele><time>2011-03-22T09:40:51Z</time></trkpt>
<trkpt lat="42.252800" lon="3.228033"><ele>13.3</ele><time>2011-03-22T09:40:56Z</time></trkpt>
<trkpt lat="42.252877" lon="3.227747"><ele>13.1</ele><time>2011-03-22T09:41:01Z</time></trkpt>
<trkpt lat="42.252987" lon="3.227475"><ele>11.8</ele><time>2011-03-22T09:41:06Z</time></trkpt>
<trkpt lat="42.253143" lon="3.227270"><ele>11.2</ele><time>2011-03-22T09:41:11Z</time></trkpt>
<trkpt lat="42.253182" lon="3.227085"><ele>10.5</ele><time>2011-03-22T09:41:16Z</time></trkpt>
<trkpt lat="42.253193" lon="3.226793"><ele>10</ele><time>2011-03-22T09:41:21Z</time></trkpt>
<trkpt lat="42.253173" lon="3.226488"><ele>9</ele><time>2011-03-22T09:41:26Z</time></trkpt>
<trkpt lat="42.253090" lon="3.226240"><ele>7.9</ele><time>2011-03-22T09:41:31Z</time></trkpt>
<trkpt lat="42.253075" lon="3.226087"><ele>7.7</ele><time>2011-03-22T09:41:36Z</time></trkpt>
<trkpt lat="42.253178" lon="3.226080"><ele>7.7</ele><time>2011-03-22T09:41:41Z</time></trkpt>
<trkpt lat="42.253182" lon="3.226045"><ele>8.8</ele><time>2011-03-22T09:41:46Z</time></trkpt>
<trkpt lat="42.253093" lon="3.226077"><ele>9</ele><time>2011-03-22T09:41:51Z</time></trkpt>
<trkpt lat="42.252975" lon="3.226105"><ele>9.1</ele><time>2011-03-22T09:41:56Z</time></trkpt>
<trkpt lat="42.252823" lon="3.226168"><ele>8.8</ele><time>2011-03-22T09:42:01Z</time></trkpt>
<trkpt lat="42.252655" lon="3.226230"><ele>8.4</ele><time>2011-03-22T09:42:06Z</time></trkpt>
<trkpt lat="42.252472" lon="3.226292"><ele>7.8</ele><time>2011-03-22T09:42:11Z</time></trkpt>
<trkpt lat="42.252255" lon="3.226323"><ele>7</ele><time>2011-03-22T09:42:16Z</time></trkpt>
<trkpt lat="42.252095" lon="3.226335"><ele>6.6</ele><time>2011-03-22T09:42:21Z</time></trkpt>
<trkpt lat="42.252030" lon="3.226347"><ele>6.3</ele><time>2011-03-22T09:42:26Z</time></trkpt>
<trkpt lat="42.252030" lon="3.226352"><ele>5.9</ele><time>2011-03-22T09:42:31Z</time></trkpt>
<trkpt lat="42.252030" lon="3.226348"><ele>5.8</ele><time>2011-03-22T09:42:36Z</time></trkpt>
<trkpt lat="42.252013" lon="3.226363"><ele>5.9</ele><time>2011-03-22T09:42:41Z</time></trkpt>
<trkpt lat="42.252010" lon="3.226367"><ele>6.2</ele><time>2011-03-22T09:42:46Z</time></trkpt>
<trkpt lat="42.252010" lon="3.226367"><ele>6.4</ele><time>2011-03-22T09:42:51Z</time></trkpt>
<trkpt lat="42.252013" lon="3.226367"><ele>6.6</ele><time>2011-03-22T09:42:56Z</time></trkpt>
<trkpt lat="42.252013" lon="3.226365"><ele>6.7</ele><time>2011-03-22T09:43:01Z</time></trkpt>
<trkpt lat="42.252013" lon="3.226365"><ele>6.5</ele><time>2011-03-22T09:43:06Z</time></trkpt>
<trkpt lat="42.252018" lon="3.226367"><ele>6.2</ele><time>2011-03-22T09:43:11Z</time></trkpt>
<trkpt lat="42.252018" lon="3.226368"><ele>6.3</ele><time>2011-03-22T09:43:16Z</time></trkpt>
<trkpt lat="42.252018" lon="3.226368"><ele>6.3</ele><time>2011-03-22T09:43:21Z</time></trkpt>
<trkpt lat="42.252013" lon="3.226368"><ele>6.3</ele><time>2011-03-22T09:43:26Z</time></trkpt>
<trkpt lat="42.252022" lon="3.226362"><ele>6.5</ele><time>2011-03-22T09:43:31Z</time></trkpt>
<trkpt lat="42.252022" lon="3.226368"><ele>7</ele><time>2011-03-22T09:43:36Z</time></trkpt>
<trkpt lat="42.252018" lon="3.226368"><ele>7.2</ele><time>2011-03-22T09:43:41Z</time></trkpt>
<trkpt lat="42.252022" lon="3.226368"><ele>7</ele><time>2011-03-22T09:43:46Z</time></trkpt>
<trkpt lat="42.252022" lon="3.226367"><ele>6.9</ele><time>2011-03-22T09:43:51Z</time></trkpt>
<trkpt lat="42.252042" lon="3.226362"><ele>7</ele><time>2011-03-22T09:43:56Z</time></trkpt>
<trkpt lat="42.252063" lon="3.226357"><ele>7.3</ele><time>2011-03-22T09:44:01Z</time></trkpt>
<trkpt lat="42.252098" lon="3.226345"><ele>6.6</ele><time>2011-03-22T09:44:06Z</time></trkpt>
<trkpt lat="42.252178" lon="3.226343"><ele>6.3</ele><time>2011-03-22T09:44:11Z</time></trkpt>
<trkpt lat="42.252297" lon="3.226328"><ele>6.2</ele><time>2011-03-22T09:44:16Z</time></trkpt>
<trkpt lat="42.252433" lon="3.226302"><ele>6.6</ele><time>2011-03-22T09:44:21Z</time></trkpt>
<trkpt lat="42.252545" lon="3.226292"><ele>7.2</ele><time>2011-03-22T09:44:26Z</time></trkpt>
<trkpt lat="42.252667" lon="3.226242"><ele>7.3</ele><time>2011-03-22T09:44:31Z</time></trkpt>
<trkpt lat="42.252800" lon="3.226193"><ele>7.4</ele><time>2011-03-22T09:44:36Z</time></trkpt>
<trkpt lat="42.252922" lon="3.226150"><ele>7.8</ele><time>2011-03-22T09:44:41Z</time></trkpt>
<trkpt lat="42.252933" lon="3.226015"><ele>8.2</ele><time>2011-03-22T09:44:46Z</time></trkpt>
<trkpt lat="42.252853" lon="3.225873"><ele>8.7</ele><time>2011-03-22T09:44:51Z</time></trkpt>
<trkpt lat="42.252720" lon="3.225785"><ele>9.1</ele><time>2011-03-22T09:44:56Z</time></trkpt>
<trkpt lat="42.252545" lon="3.225745"><ele>9.8</ele><time>2011-03-22T09:45:01Z</time></trkpt>
<trkpt lat="42.252377" lon="3.225720"><ele>10.2</ele><time>2011-03-22T09:45:06Z</time></trkpt>
<trkpt lat="42.252217" lon="3.225710"><ele>10.7</ele><time>2011-03-22T09:45:11Z</time></trkpt>
<trkpt lat="42.252052" lon="3.225723"><ele>11</ele><time>2011-03-22T09:45:16Z</time></trkpt>
<trkpt lat="42.251892" lon="3.225748"><ele>12</ele><time>2011-03-22T09:45:21Z</time></trkpt>
<trkpt lat="42.251728" lon="3.225762"><ele>13</ele><time>2011-03-22T09:45:26Z</time></trkpt>
<trkpt lat="42.251568" lon="3.225755"><ele>15.2</ele><time>2011-03-22T09:45:31Z</time></trkpt>
<trkpt lat="42.251408" lon="3.225773"><ele>16.5</ele><time>2011-03-22T09:45:36Z</time></trkpt>
<trkpt lat="42.251247" lon="3.225795"><ele>16.8</ele><time>2011-03-22T09:45:41Z</time></trkpt>
<trkpt lat="42.251083" lon="3.225817"><ele>18.1</ele><time>2011-03-22T09:45:46Z</time></trkpt>
<trkpt lat="42.250930" lon="3.225843"><ele>17.7</ele><time>2011-03-22T09:45:51Z</time></trkpt>
<trkpt lat="42.250775" lon="3.225862"><ele>18.5</ele><time>2011-03-22T09:45:56Z</time></trkpt>
<trkpt lat="42.250622" lon="3.225880"><ele>19</ele><time>2011-03-22T09:46:01Z</time></trkpt>
<trkpt lat="42.250458" lon="3.225898"><ele>19.7</ele><time>2011-03-22T09:46:06Z</time></trkpt>
<trkpt lat="42.250298" lon="3.225903"><ele>20.7</ele><time>2011-03-22T09:46:11Z</time></trkpt>
<trkpt lat="42.250148" lon="3.225958"><ele>21.6</ele><time>2011-03-22T09:46:16Z</time></trkpt>
<trkpt lat="42.250027" lon="3.226032"><ele>22.2</ele><time>2011-03-22T09:46:21Z</time></trkpt>
<trkpt lat="42.249890" lon="3.226060"><ele>22.8</ele><time>2011-03-22T09:46:26Z</time></trkpt>
<trkpt lat="42.249763" lon="3.226005"><ele>23.2</ele><time>2011-03-22T09:46:31Z</time></trkpt>
<trkpt lat="42.249687" lon="3.225875"><ele>24.7</ele><time>2011-03-22T09:46:36Z</time></trkpt>
<trkpt lat="42.249638" lon="3.225722"><ele>25</ele><time>2011-03-22T09:46:41Z</time></trkpt>
<trkpt lat="42.249595" lon="3.225578"><ele>25.5</ele><time>2011-03-22T09:46:46Z</time></trkpt>
<trkpt lat="42.249538" lon="3.225442"><ele>25.9</ele><time>2011-03-22T09:46:51Z</time></trkpt>
<trkpt lat="42.249467" lon="3.225332"><ele>26.8</ele><time>2011-03-22T09:46:56Z</time></trkpt>
<trkpt lat="42.249387" lon="3.225230"><ele>27.8</ele><time>2011-03-22T09:47:01Z</time></trkpt>
<trkpt lat="42.249295" lon="3.225123"><ele>28</ele><time>2011-03-22T09:47:06Z</time></trkpt>
<trkpt lat="42.249198" lon="3.225020"><ele>28.4</ele><time>2011-03-22T09:47:11Z</time></trkpt>
<trkpt lat="42.249107" lon="3.224895"><ele>28.8</ele><time>2011-03-22T09:47:16Z</time></trkpt>
<trkpt lat="42.249032" lon="3.224773"><ele>29.3</ele><time>2011-03-22T09:47:21Z</time></trkpt>
<trkpt lat="42.248967" lon="3.224638"><ele>29.8</ele><time>2011-03-22T09:47:26Z</time></trkpt>
<trkpt lat="42.248913" lon="3.224497"><ele>30.5</ele><time>2011-03-22T09:47:31Z</time></trkpt>
<trkpt lat="42.248840" lon="3.224375"><ele>31.2</ele><time>2011-03-22T09:47:36Z</time></trkpt>
<trkpt lat="42.248727" lon="3.224320"><ele>32.3</ele><time>2011-03-22T09:47:41Z</time></trkpt>
<trkpt lat="42.248608" lon="3.224330"><ele>33.2</ele><time>2011-03-22T09:47:46Z</time></trkpt>
<trkpt lat="42.248485" lon="3.224350"><ele>34.6</ele><time>2011-03-22T09:47:51Z</time></trkpt>
<trkpt lat="42.248378" lon="3.224413"><ele>34.9</ele><time>2011-03-22T09:47:56Z</time></trkpt>
<trkpt lat="42.248310" lon="3.224552"><ele>36.3</ele><time>2011-03-22T09:48:01Z</time></trkpt>
<trkpt lat="42.248302" lon="3.224717"><ele>36.7</ele><time>2011-03-22T09:48:06Z</time></trkpt>
<trkpt lat="42.248298" lon="3.224882"><ele>36.8</ele><time>2011-03-22T09:48:11Z</time></trkpt>
<trkpt lat="42.248292" lon="3.225045"><ele>37.2</ele><time>2011-03-22T09:48:16Z</time></trkpt>
<trkpt lat="42.248272" lon="3.225207"><ele>37.6</ele><time>2011-03-22T09:48:21Z</time></trkpt>
<trkpt lat="42.248257" lon="3.225368"><ele>38.5</ele><time>2011-03-22T09:48:26Z</time></trkpt>
<trkpt lat="42.248245" lon="3.225527"><ele>40.2</ele><time>2011-03-22T09:48:31Z</time></trkpt>
<trkpt lat="42.248238" lon="3.225687"><ele>41.1</ele><time>2011-03-22T09:48:36Z</time></trkpt>
<trkpt lat="42.248227" lon="3.225847"><ele>41.8</ele><time>2011-03-22T09:48:41Z</time></trkpt>
<trkpt lat="42.248218" lon="3.226010"><ele>42.4</ele><time>2011-03-22T09:48:46Z</time></trkpt>
<trkpt lat="42.248192" lon="3.226168"><ele>43</ele><time>2011-03-22T09:48:51Z</time></trkpt>
<trkpt lat="42.248153" lon="3.226317"><ele>43.9</ele><time>2011-03-22T09:48:56Z</time></trkpt>
<trkpt lat="42.248093" lon="3.226455"><ele>44.9</ele><time>2011-03-22T09:49:01Z</time></trkpt>
<trkpt lat="42.248008" lon="3.226582"><ele>45.6</ele><time>2011-03-22T09:49:06Z</time></trkpt>
<trkpt lat="42.247913" lon="3.226690"><ele>46.4</ele><time>2011-03-22T09:49:11Z</time></trkpt>
<trkpt lat="42.247798" lon="3.226765"><ele>47.1</ele><time>2011-03-22T09:49:16Z</time></trkpt>
<trkpt lat="42.247673" lon="3.226817"><ele>48</ele><time>2011-03-22T09:49:21Z</time></trkpt>
<trkpt lat="42.247547" lon="3.226852"><ele>48.8</ele><time>2011-03-22T09:49:26Z</time></trkpt>
<trkpt lat="42.247428" lon="3.226885"><ele>49.7</ele><time>2011-03-22T09:49:31Z</time></trkpt>
<trkpt lat="42.247307" lon="3.226913"><ele>50.5</ele><time>2011-03-22T09:49:36Z</time></trkpt>
<trkpt lat="42.247188" lon="3.226952"><ele>51.4</ele><time>2011-03-22T09:49:41Z</time></trkpt>
<trkpt lat="42.247078" lon="3.226997"><ele>52.1</ele><time>2011-03-22T09:49:46Z</time></trkpt>
<trkpt lat="42.246978" lon="3.227087"><ele>53</ele><time>2011-03-22T09:49:51Z</time></trkpt>
<trkpt lat="42.246895" lon="3.227198"><ele>54</ele><time>2011-03-22T09:49:56Z</time></trkpt>
<trkpt lat="42.246803" lon="3.227305"><ele>55.2</ele><time>2011-03-22T09:50:01Z</time></trkpt>
<trkpt lat="42.246700" lon="3.227387"><ele>55.8</ele><time>2011-03-22T09:50:06Z</time></trkpt>
<trkpt lat="42.246590" lon="3.227442"><ele>56.4</ele><time>2011-03-22T09:50:11Z</time></trkpt>
<trkpt lat="42.246472" lon="3.227468"><ele>57.3</ele><time>2011-03-22T09:50:16Z</time></trkpt>
<trkpt lat="42.246357" lon="3.227493"><ele>57.9</ele><time>2011-03-22T09:50:21Z</time></trkpt>
<trkpt lat="42.246238" lon="3.227528"><ele>58.7</ele><time>2011-03-22T09:50:26Z</time></trkpt>
<trkpt lat="42.246128" lon="3.227590"><ele>59.5</ele><time>2011-03-22T09:50:31Z</time></trkpt>
<trkpt lat="42.246028" lon="3.227678"><ele>60.5</ele><time>2011-03-22T09:50:36Z</time></trkpt>
<trkpt lat="42.245933" lon="3.227770"><ele>62</ele><time>2011-03-22T09:50:41Z</time></trkpt>
<trkpt lat="42.245845" lon="3.227872"><ele>63.2</ele><time>2011-03-22T09:50:46Z</time></trkpt>
<trkpt lat="42.245743" lon="3.227957"><ele>63.9</ele><time>2011-03-22T09:50:51Z</time></trkpt>
<trkpt lat="42.245628" lon="3.228007"><ele>64.5</ele><time>2011-03-22T09:50:56Z</time></trkpt>
<trkpt lat="42.245518" lon="3.227977"><ele>65.1</ele><time>2011-03-22T09:51:01Z</time></trkpt>
<trkpt lat="42.245422" lon="3.227883"><ele>65.6</ele><time>2011-03-22T09:51:06Z</time></trkpt>
<trkpt lat="42.245362" lon="3.227747"><ele>66.2</ele><time>2011-03-22T09:51:11Z</time></trkpt>
<trkpt lat="42.245358" lon="3.227588"><ele>67.2</ele><time>2011-03-22T09:51:16Z</time></trkpt>
<trkpt lat="42.245395" lon="3.227438"><ele>68</ele><time>2011-03-22T09:51:21Z</time></trkpt>
<trkpt lat="42.245438" lon="3.227293"><ele>68.9</ele><time>2011-03-22T09:51:26Z</time></trkpt>
<trkpt lat="42.245487" lon="3.227147"><ele>69.7</ele><time>2011-03-22T09:51:31Z</time></trkpt>
<trkpt lat="42.245530" lon="3.227000"><ele>70.4</ele><time>2011-03-22T09:51:36Z</time></trkpt>
<trkpt lat="42.245575" lon="3.226852"><ele>71</ele><time>2011-03-22T09:51:41Z</time></trkpt>
<trkpt lat="42.245617" lon="3.226693"><ele>71.8</ele><time>2011-03-22T09:51:46Z</time></trkpt>
<trkpt lat="42.245655" lon="3.226522"><ele>72.5</ele><time>2011-03-22T09:51:51Z</time></trkpt>
<trkpt lat="42.245678" lon="3.226353"><ele>73.4</ele><time>2011-03-22T09:51:56Z</time></trkpt>
<trkpt lat="42.245705" lon="3.226187"><ele>74.4</ele><time>2011-03-22T09:52:01Z</time></trkpt>
<trkpt lat="42.245720" lon="3.226022"><ele>75.3</ele><time>2011-03-22T09:52:06Z</time></trkpt>
<trkpt lat="42.245738" lon="3.225855"><ele>76.1</ele><time>2011-03-22T09:52:11Z</time></trkpt>
<trkpt lat="42.245750" lon="3.225688"><ele>76.9</ele><time>2011-03-22T09:52:16Z</time></trkpt>
<trkpt lat="42.245758" lon="3.225517"><ele>77.7</ele><time>2011-03-22T09:52:21Z</time></trkpt>
<trkpt lat="42.245755" lon="3.225348"><ele>78.6</ele><time>2011-03-22T09:52:26Z</time></trkpt>
<trkpt lat="42.245750" lon="3.225198"><ele>79.4</ele><time>2011-03-22T09:52:31Z</time></trkpt>
<trkpt lat="42.245747" lon="3.225045"><ele>80.1</ele><time>2011-03-22T09:52:36Z</time></trkpt>
<trkpt lat="42.245747" lon="3.224893"><ele>80.8</ele><time>2011-03-22T09:52:41Z</time></trkpt>
<trkpt lat="42.245743" lon="3.224740"><ele>81.6</ele><time>2011-03-22T09:52:46Z</time></trkpt>
<trkpt lat="42.245732" lon="3.224590"><ele>82.4</ele><time>2011-03-22T09:52:51Z</time></trkpt>
<trkpt lat="42.245708" lon="3.224438"><ele>83.2</ele><time>2011-03-22T09:52:56Z</time></trkpt>
<trkpt lat="42.245667" lon="3.224293"><ele>84</ele><time>2011-03-22T09:53:01Z</time></trkpt>
<trkpt lat="42.245610" lon="3.224163"><ele>84.9</ele><time>2011-03-22T09:53:06Z</time></trkpt>
<trkpt lat="42.245548" lon="3.224033"><ele>85.7</ele><time>2011-03-22T09:53:11Z</time></trkpt>
<trkpt lat="42.245483" lon="3.223898"><ele>86.4</ele><time>2011-03-22T09:53:16Z</time></trkpt>
<trkpt lat="42.245445" lon="3.223752"><ele>87</ele><time>2011-03-22T09:53:21Z</time></trkpt>
<trkpt lat="42.245415" lon="3.223598"><ele>87.8</ele><time>2011-03-22T09:53:26Z</time></trkpt>
<trkpt lat="42.245400" lon="3.223448"><ele>88.7</ele><time>2011-03-22T09:53:31Z</time></trkpt>
<trkpt lat="42.245388" lon="3.223293"><ele>89.6</ele><time>2011-03-22T09:53:36Z</time></trkpt>
<trkpt lat="42.245377" lon="3.223140"><ele>90.2</ele><time>2011-03-22T09:53:41Z</time></trkpt>
<trkpt lat="42.245362" lon="3.222987"><ele>91</ele><time>2011-03-22T09:53:46Z</time></trkpt>
<trkpt lat="42.245342" lon="3.222838"><ele>92</ele><time>2011-03-22T09:53:51Z</time></trkpt>
<trkpt lat="42.245293" lon="3.222700"><ele>93.2</ele><time>2011-03-22T09:53:56Z</time></trkpt>
<trkpt lat="42.245217" lon="3.222583"><ele>94.3</ele><time>2011-03-22T09:54:01Z</time></trkpt>
<trkpt lat="42.245113" lon="3.222512"><ele>95.3</ele><time>2011-03-22T09:54:06Z</time></trkpt>
<trkpt lat="42.244998" lon="3.222498"><ele>96.3</ele><time>2011-03-22T09:54:11Z</time></trkpt>
<trkpt lat="42.244880" lon="3.222517"><ele>96.8</ele><time>2011-03-22T09:54:16Z</time></trkpt>
<trkpt lat="42.244770" lon="3.222535"><ele>97.2</ele><time>2011-03-22T09:54:21Z</time></trkpt>
<trkpt lat="42.244652" lon="3.222552"><ele>97.7</ele><time>2011-03-22T09:54:26Z</time></trkpt>
<trkpt lat="42.244542" lon="3.222568"><ele>98.4</ele><time>2011-03-22T09:54:31Z</time></trkpt>
<trkpt lat="42.244423" lon="3.222578"><ele>98.9</ele><time>2011-03-22T09:54:36Z</time></trkpt>
<trkpt lat="42.244308" lon="3.222572"><ele>99.6</ele><time>2011-03-22T09:54:41Z</time></trkpt>
<trkpt lat="42.244193" lon="3.222545"><ele>100.4</ele><time>2011-03-22T09:54:46Z</time></trkpt>
<trkpt lat="42.244083" lon="3.222492"><ele>101.1</ele><time>2011-03-22T09:54:51Z</time></trkpt>
<trkpt lat="42.243988" lon="3.222413"><ele>102.2</ele><time>2011-03-22T09:54:56Z</time></trkpt>
<trkpt lat="42.243908" lon="3.222295"><ele>103.2</ele><time>2011-03-22T09:55:01Z</time></trkpt>
<trkpt lat="42.243858" lon="3.222157"><ele>104</ele><time>2011-03-22T09:55:06Z</time></trkpt>
<trkpt lat="42.243823" lon="3.222007"><ele>104.8</ele><time>2011-03-22T09:55:11Z</time></trkpt>
<trkpt lat="42.243805" lon="3.221855"><ele>105.7</ele><time>2011-03-22T09:55:16Z</time></trkpt>
<trkpt lat="42.243797" lon="3.221698"><ele>106.6</ele><time>2011-03-22T09:55:21Z</time></trkpt>
<trkpt lat="42.243805" lon="3.221543"><ele>107.4</ele><time>2011-03-22T09:55:26Z</time></trkpt>
<trkpt lat="42.243823" lon="3.221388"><ele>108.1</ele><time>2011-03-22T09:55:31Z</time></trkpt>
<trkpt lat="42.243862" lon="3.221242"><ele>108.8</ele><time>2011-03-22T09:55:36Z</time></trkpt>
<trkpt lat="42.243900" lon="3.221093"><ele>109.3</ele><time>2011-03-22T09:55:41Z</time></trkpt>
<trkpt lat="42.243942" lon="3.220952"><ele>109.9</ele><time>2011-03-22T09:55:46Z</time></trkpt>
<trkpt lat="42.243985" lon="3.220810"><ele>110.8</ele><time>2011-03-22T09:55:51Z</time></trkpt>
<trkpt lat="42.244030" lon="3.220675"><ele>111.4</ele><time>2011-03-22T09:55:56Z</time></trkpt>
<trkpt lat="42.244068" lon="3.220532"><ele>112.3</ele><time>2011-03-22T09:56:01Z</time></trkpt>
<trkpt lat="42.244068" lon="3.220377"><ele>113.2</ele><time>2011-03-22T09:56:06Z</time></trkpt>
<trkpt lat="42.244042" lon="3.220222"><ele>114.3</ele><time>2011-03-22T09:56:11Z</time></trkpt>
<trkpt lat="42.244000" lon="3.220075"><ele>115.4</ele><time>2011-03-22T09:56:16Z</time></trkpt>
<trkpt lat="42.243965" lon="3.219933"><ele>116.6</ele><time>2011-03-22T09:56:21Z</time></trkpt>
<trkpt lat="42.243947" lon="3.219792"><ele>117.1</ele><time>2011-03-22T09:56:26Z</time></trkpt>
<trkpt lat="42.243965" lon="3.219647"><ele>118.4</ele><time>2011-03-22T09:56:31Z</time></trkpt>
<trkpt lat="42.244042" lon="3.219523"><ele>118.6</ele><time>2011-03-22T09:56:36Z</time></trkpt>
<trkpt lat="42.244148" lon="3.219457"><ele>119.2</ele><time>2011-03-22T09:56:41Z</time></trkpt>
<trkpt lat="42.244255" lon="3.219468"><ele>120.2</ele><time>2011-03-22T09:56:46Z</time></trkpt>
<trkpt lat="42.244365" lon="3.219500"><ele>121.9</ele><time>2011-03-22T09:56:51Z</time></trkpt>
<trkpt lat="42.244477" lon="3.219462"><ele>122.5</ele><time>2011-03-22T09:56:56Z</time></trkpt>
<trkpt lat="42.244563" lon="3.219352"><ele>122.9</ele><time>2011-03-22T09:57:01Z</time></trkpt>
<trkpt lat="42.244607" lon="3.219198"><ele>123.5</ele><time>2011-03-22T09:57:06Z</time></trkpt>
<trkpt lat="42.244590" lon="3.219042"><ele>124.5</ele><time>2011-03-22T09:57:11Z</time></trkpt>
<trkpt lat="42.244533" lon="3.218910"><ele>126</ele><time>2011-03-22T09:57:16Z</time></trkpt>
<trkpt lat="42.244418" lon="3.218827"><ele>127.4</ele><time>2011-03-22T09:57:21Z</time></trkpt>
<trkpt lat="42.244297" lon="3.218822"><ele>127.4</ele><time>2011-03-22T09:57:26Z</time></trkpt>
<trkpt lat="42.244190" lon="3.218885"><ele>127.9</ele><time>2011-03-22T09:57:31Z</time></trkpt>
<trkpt lat="42.244083" lon="3.218960"><ele>128.3</ele><time>2011-03-22T09:57:36Z</time></trkpt>
<trkpt lat="42.243977" lon="3.219035"><ele>128.9</ele><time>2011-03-22T09:57:41Z</time></trkpt>
<trkpt lat="42.243870" lon="3.219108"><ele>129.4</ele><time>2011-03-22T09:57:46Z</time></trkpt>
<trkpt lat="42.243758" lon="3.219162"><ele>130.1</ele><time>2011-03-22T09:57:51Z</time></trkpt>
<trkpt lat="42.243642" lon="3.219190"><ele>130.8</ele><time>2011-03-22T09:57:56Z</time></trkpt>
<trkpt lat="42.243523" lon="3.219220"><ele>131.5</ele><time>2011-03-22T09:58:01Z</time></trkpt>
<trkpt lat="42.243400" lon="3.219237"><ele>132</ele><time>2011-03-22T09:58:06Z</time></trkpt>
<trkpt lat="42.243282" lon="3.219233"><ele>132.6</ele><time>2011-03-22T09:58:11Z</time></trkpt>
<trkpt lat="42.243163" lon="3.219210"><ele>133.3</ele><time>2011-03-22T09:58:16Z</time></trkpt>
<trkpt lat="42.243045" lon="3.219175"><ele>134.1</ele><time>2011-03-22T09:58:21Z</time></trkpt>
<trkpt lat="42.242943" lon="3.219100"><ele>134.9</ele><time>2011-03-22T09:58:26Z</time></trkpt>
<trkpt lat="42.242852" lon="3.218998"><ele>135.6</ele><time>2011-03-22T09:58:31Z</time></trkpt>
<trkpt lat="42.242783" lon="3.218875"><ele>136.5</ele><time>2011-03-22T09:58:36Z</time></trkpt>
<trkpt lat="42.242730" lon="3.218737"><ele>137.3</ele><time>2011-03-22T09:58:41Z</time></trkpt>
<trkpt lat="42.242680" lon="3.218590"><ele>138</ele><time>2011-03-22T09:58:46Z</time></trkpt>
<trkpt lat="42.242638" lon="3.218445"><ele>138.8</ele><time>2011-03-22T09:58:51Z</time></trkpt>
<trkpt lat="42.242585" lon="3.218303"><ele>139.6</ele><time>2011-03-22T09:58:56Z</time></trkpt>
<trkpt lat="42.242535" lon="3.218158"><ele>140.6</ele><time>2011-03-22T09:59:01Z</time></trkpt>
<trkpt lat="42.242485" lon="3.218013"><ele>141.5</ele><time>2011-03-22T09:59:06Z</time></trkpt>
<trkpt lat="42.242417" lon="3.217870"><ele>142.4</ele><time>2011-03-22T09:59:11Z</time></trkpt>
<trkpt lat="42.242305" lon="3.217792"><ele>143.5</ele><time>2011-03-22T09:59:16Z</time></trkpt>
<trkpt lat="42.242188" lon="3.217783"><ele>144.4</ele><time>2011-03-22T09:59:21Z</time></trkpt>
<trkpt lat="42.242065" lon="3.217805"><ele>145.3</ele><time>2011-03-22T09:59:26Z</time></trkpt>
<trkpt lat="42.241952" lon="3.217827"><ele>146.5</ele><time>2011-03-22T09:59:31Z</time></trkpt>
<trkpt lat="42.241833" lon="3.217847"><ele>147.5</ele><time>2011-03-22T09:59:36Z</time></trkpt>
<trkpt lat="42.241715" lon="3.217857"><ele>148.8</ele><time>2011-03-22T09:59:41Z</time></trkpt>
<trkpt lat="42.241597" lon="3.217838"><ele>150</ele><time>2011-03-22T09:59:46Z</time></trkpt>
<trkpt lat="42.241473" lon="3.217768"><ele>150.6</ele><time>2011-03-22T09:59:51Z</time></trkpt>
<trkpt lat="42.241372" lon="3.217647"><ele>151</ele><time>2011-03-22T09:59:56Z</time></trkpt>
<trkpt lat="42.241295" lon="3.217488"><ele>151.5</ele><time>2011-03-22T10:00:01Z</time></trkpt>
<trkpt lat="42.241215" lon="3.217330"><ele>151.7</ele><time>2011-03-22T10:00:06Z</time></trkpt>
<trkpt lat="42.241147" lon="3.217172"><ele>152.2</ele><time>2011-03-22T10:00:11Z</time></trkpt>
<trkpt lat="42.241070" lon="3.217013"><ele>152.7</ele><time>2011-03-22T10:00:16Z</time></trkpt>
<trkpt lat="42.240990" lon="3.216857"><ele>153.3</ele><time>2011-03-22T10:00:21Z</time></trkpt>
<trkpt lat="42.240917" lon="3.216703"><ele>153.9</ele><time>2011-03-22T10:00:26Z</time></trkpt>
<trkpt lat="42.240845" lon="3.216540"><ele>154.6</ele><time>2011-03-22T10:00:31Z</time></trkpt>
<trkpt lat="42.240830" lon="3.216352"><ele>155.2</ele><time>2011-03-22T10:00:36Z</time></trkpt>
<trkpt lat="42.240863" lon="3.216163"><ele>155.9</ele><time>2011-03-22T10:00:41Z</time></trkpt>
<trkpt lat="42.240963" lon="3.216023"><ele>156.7</ele><time>2011-03-22T10:00:46Z</time></trkpt>
<trkpt lat="42.241088" lon="3.215955"><ele>157.7</ele><time>2011-03-22T10:00:51Z</time></trkpt>
<trkpt lat="42.241227" lon="3.215937"><ele>158.6</ele><time>2011-03-22T10:00:56Z</time></trkpt>
<trkpt lat="42.241363" lon="3.215922"><ele>159.4</ele><time>2011-03-22T10:01:01Z</time></trkpt>
<trkpt lat="42.241505" lon="3.215908"><ele>160.2</ele><time>2011-03-22T10:01:06Z</time></trkpt>
<trkpt lat="42.241638" lon="3.215880"><ele>161</ele><time>2011-03-22T10:01:11Z</time></trkpt>
<trkpt lat="42.241772" lon="3.215877"><ele>161.7</ele><time>2011-03-22T10:01:16Z</time></trkpt>
<trkpt lat="42.241905" lon="3.215932"><ele>162.7</ele><time>2011-03-22T10:01:21Z</time></trkpt>
<trkpt lat="42.242038" lon="3.215988"><ele>163.4</ele><time>2011-03-22T10:01:26Z</time></trkpt>
<trkpt lat="42.242172" lon="3.216035"><ele>164.2</ele><time>2011-03-22T10:01:31Z</time></trkpt>
<trkpt lat="42.242310" lon="3.216047"><ele>165.1</ele><time>2011-03-22T10:01:36Z</time></trkpt>
<trkpt lat="42.242447" lon="3.216058"><ele>165.8</ele><time>2011-03-22T10:01:41Z</time></trkpt>
<trkpt lat="42.242580" lon="3.216053"><ele>166.6</ele><time>2011-03-22T10:01:46Z</time></trkpt>
<trkpt lat="42.242707" lon="3.215985"><ele>167.5</ele><time>2011-03-22T10:01:51Z</time></trkpt>
<trkpt lat="42.242817" lon="3.215878"><ele>168.2</ele><time>2011-03-22T10:01:56Z</time></trkpt>
<trkpt lat="42.242917" lon="3.215758"><ele>169</ele><time>2011-03-22T10:02:01Z</time></trkpt>
<trkpt lat="42.243018" lon="3.215637"><ele>169.7</ele><time>2011-03-22T10:02:06Z</time></trkpt>
<trkpt lat="42.243122" lon="3.215518"><ele>170.4</ele><time>2011-03-22T10:02:11Z</time></trkpt>
<trkpt lat="42.243245" lon="3.215400"><ele>170.7</ele><time>2011-03-22T10:02:16Z</time></trkpt>
<trkpt lat="42.243423" lon="3.215323"><ele>170.4</ele><time>2011-03-22T10:02:21Z</time></trkpt>
<trkpt lat="42.243648" lon="3.215323"><ele>169.9</ele><time>2011-03-22T10:02:26Z</time></trkpt>
<trkpt lat="42.243912" lon="3.215353"><ele>169</ele><time>2011-03-22T10:02:31Z</time></trkpt>
<trkpt lat="42.244178" lon="3.215463"><ele>167.9</ele><time>2011-03-22T10:02:36Z</time></trkpt>
<trkpt lat="42.244370" lon="3.215767"><ele>166.8</ele><time>2011-03-22T10:02:41Z</time></trkpt>
<trkpt lat="42.244500" lon="3.216125"><ele>165.5</ele><time>2011-03-22T10:02:46Z</time></trkpt>
<trkpt lat="42.244628" lon="3.216485"><ele>164.4</ele><time>2011-03-22T10:02:51Z</time></trkpt>
<trkpt lat="42.244800" lon="3.216723"><ele>164.2</ele><time>2011-03-22T10:02:56Z</time></trkpt>
<trkpt lat="42.244968" lon="3.216815"><ele>164.4</ele><time>2011-03-22T10:03:01Z</time></trkpt>
<trkpt lat="42.245087" lon="3.216805"><ele>165</ele><time>2011-03-22T10:03:06Z</time></trkpt>
<trkpt lat="42.245163" lon="3.216777"><ele>165.5</ele><time>2011-03-22T10:03:11Z</time></trkpt>
<trkpt lat="42.245158" lon="3.216775"><ele>165.6</ele><time>2011-03-22T10:03:16Z</time></trkpt>
<trkpt lat="42.245158" lon="3.216773"><ele>165.7</ele><time>2011-03-22T10:03:21Z</time></trkpt>
<trkpt lat="42.245158" lon="3.216773"><ele>165.6</ele><time>2011-03-22T10:03:26Z</time></trkpt>
<trkpt lat="42.245158" lon="3.216773"><ele>165.7</ele><time>2011-03-22T10:03:31Z</time></trkpt>
<trkpt lat="42.245158" lon="3.216770"><ele>165.7</ele><time>2011-03-22T10:03:36Z</time></trkpt>
<trkpt lat="42.245158" lon="3.216770"><ele>165.8</ele><time>2011-03-22T10:03:41Z</time></trkpt>
<trkpt lat="42.245158" lon="3.216770"><ele>165.9</ele><time>2011-03-22T10:03:46Z</time></trkpt>
<trkpt lat="42.245158" lon="3.216770"><ele>166</ele><time>2011-03-22T10:03:51Z</time></trkpt>
<trkpt lat="42.245158" lon="3.216770"><ele>166</ele><time>2011-03-22T10:03:56Z</time></trkpt>
<trkpt lat="42.245158" lon="3.216770"><ele>166</ele><time>2011-03-22T10:04:01Z</time></trkpt>
<trkpt lat="42.245158" lon="3.216770"><ele>166</ele><time>2011-03-22T10:04:06Z</time></trkpt>
<trkpt lat="42.245158" lon="3.216770"><ele>165.9</ele><time>2011-03-22T10:04:11Z</time></trkpt>
<trkpt lat="42.245158" lon="3.216770"><ele>165.9</ele><time>2011-03-22T10:04:16Z</time></trkpt>
<trkpt lat="42.245158" lon="3.216770"><ele>165.9</ele><time>2011-03-22T10:04:21Z</time></trkpt>
<trkpt lat="42.245158" lon="3.216770"><ele>165.9</ele><time>2011-03-22T10:04:26Z</time></trkpt>
<trkpt lat="42.245167" lon="3.216768"><ele>166.1</ele><time>2011-03-22T10:04:31Z</time></trkpt>
<trkpt lat="42.245255" lon="3.216687"><ele>166.9</ele><time>2011-03-22T10:04:36Z</time></trkpt>
<trkpt lat="42.245377" lon="3.216538"><ele>167.8</ele><time>2011-03-22T10:04:41Z</time></trkpt>
<trkpt lat="42.245480" lon="3.216360"><ele>168.8</ele><time>2011-03-22T10:04:46Z</time></trkpt>
<trkpt lat="42.245590" lon="3.216190"><ele>169.8</ele><time>2011-03-22T10:04:51Z</time></trkpt>
<trkpt lat="42.245717" lon="3.216045"><ele>170.9</ele><time>2011-03-22T10:04:56Z</time></trkpt>
<trkpt lat="42.245857" lon="3.215935"><ele>171.8</ele><time>2011-03-22T10:05:01Z</time></trkpt>
<trkpt lat="42.246010" lon="3.215860"><ele>172.7</ele><time>2011-03-22T10:05:06Z</time></trkpt>
<trkpt lat="42.246143" lon="3.215773"><ele>173.8</ele><time>2011-03-22T10:05:11Z</time></trkpt>
<trkpt lat="42.246262" lon="3.215660"><ele>174.7</ele><time>2011-03-22T10:05:16Z</time></trkpt>
<trkpt lat="42.246333" lon="3.215497"><ele>175.6</ele><time>2011-03-22T10:05:21Z</time></trkpt>
<trkpt lat="42.246398" lon="3.215323"><ele>176.5</ele><time>2011-03-22T10:05:26Z</time></trkpt>
<trkpt lat="42.246487" lon="3.215163"><ele>177.2</ele><time>2011-03-22T10:05:31Z</time></trkpt>
<trkpt lat="42.246597" lon="3.215040"><ele>178</ele><time>2011-03-22T10:05:36Z</time></trkpt>
<trkpt lat="42.246727" lon="3.214973"><ele>179.1</ele><time>2011-03-22T10:05:41Z</time></trkpt>
<trkpt lat="42.246865" lon="3.214915"><ele>180.1</ele><time>2011-03-22T10:05:46Z</time></trkpt>
<trkpt lat="42.246998" lon="3.214832"><ele>181.2</ele><time>2011-03-22T10:05:51Z</time></trkpt>
<trkpt lat="42.247117" lon="3.214730"><ele>182.1</ele><time>2011-03-22T10:05:56Z</time></trkpt>
<trkpt lat="42.247242" lon="3.214627"><ele>183</ele><time>2011-03-22T10:06:01Z</time></trkpt>
<trkpt lat="42.247372" lon="3.214562"><ele>184.2</ele><time>2011-03-22T10:06:06Z</time></trkpt>
<trkpt lat="42.247508" lon="3.214617"><ele>185.6</ele><time>2011-03-22T10:06:11Z</time></trkpt>
<trkpt lat="42.247635" lon="3.214725"><ele>186.9</ele><time>2011-03-22T10:06:16Z</time></trkpt>
<trkpt lat="42.247792" lon="3.214757"><ele>187.5</ele><time>2011-03-22T10:06:21Z</time></trkpt>
<trkpt lat="42.247940" lon="3.214668"><ele>188.1</ele><time>2011-03-22T10:06:26Z</time></trkpt>
<trkpt lat="42.248085" lon="3.214550"><ele>189.1</ele><time>2011-03-22T10:06:31Z</time></trkpt>
<trkpt lat="42.248238" lon="3.214442"><ele>190.1</ele><time>2011-03-22T10:06:36Z</time></trkpt>
<trkpt lat="42.248405" lon="3.214342"><ele>190.7</ele><time>2011-03-22T10:06:41Z</time></trkpt>
<trkpt lat="42.248585" lon="3.214202"><ele>191</ele><time>2011-03-22T10:06:46Z</time></trkpt>
<trkpt lat="42.248768" lon="3.214025"><ele>191.3</ele><time>2011-03-22T10:06:51Z</time></trkpt>
<trkpt lat="42.248943" lon="3.213807"><ele>191.4</ele><time>2011-03-22T10:06:56Z</time></trkpt>
<trkpt lat="42.249130" lon="3.213542"><ele>191.2</ele><time>2011-03-22T10:07:01Z</time></trkpt>
<trkpt lat="42.249325" lon="3.213283"><ele>191.4</ele><time>2011-03-22T10:07:06Z</time></trkpt>
<trkpt lat="42.249568" lon="3.213153"><ele>191.7</ele><time>2011-03-22T10:07:11Z</time></trkpt>
<trkpt lat="42.249802" lon="3.212975"><ele>191.4</ele><time>2011-03-22T10:07:16Z</time></trkpt>
<trkpt lat="42.249817" lon="3.212593"><ele>191</ele><time>2011-03-22T10:07:21Z</time></trkpt>
<trkpt lat="42.249905" lon="3.212232"><ele>190.2</ele><time>2011-03-22T10:07:26Z</time></trkpt>
<trkpt lat="42.250107" lon="3.211912"><ele>189.4</ele><time>2011-03-22T10:07:31Z</time></trkpt>
<trkpt lat="42.250352" lon="3.211627"><ele>188.6</ele><time>2011-03-22T10:07:36Z</time></trkpt>
<trkpt lat="42.250625" lon="3.211403"><ele>188</ele><time>2011-03-22T10:07:41Z</time></trkpt>
<trkpt lat="42.250908" lon="3.211423"><ele>187.5</ele><time>2011-03-22T10:07:46Z</time></trkpt>
<trkpt lat="42.251160" lon="3.211602"><ele>186.3</ele><time>2011-03-22T10:07:51Z</time></trkpt>
<trkpt lat="42.251418" lon="3.211707"><ele>187</ele><time>2011-03-22T10:07:56Z</time></trkpt>
<trkpt lat="42.251617" lon="3.211512"><ele>187.3</ele><time>2011-03-22T10:08:01Z</time></trkpt>
<trkpt lat="42.251752" lon="3.211178"><ele>187.3</ele><time>2011-03-22T10:08:06Z</time></trkpt>
<trkpt lat="42.251953" lon="3.210870"><ele>187</ele><time>2011-03-22T10:08:11Z</time></trkpt>
<trkpt lat="42.252202" lon="3.210607"><ele>186.6</ele><time>2011-03-22T10:08:16Z</time></trkpt>
<trkpt lat="42.252373" lon="3.210258"><ele>185.9</ele><time>2011-03-22T10:08:21Z</time></trkpt>
<trkpt lat="42.252182" lon="3.209943"><ele>185.6</ele><time>2011-03-22T10:08:26Z</time></trkpt>
<trkpt lat="42.251903" lon="3.209718"><ele>184.9</ele><time>2011-03-22T10:08:31Z</time></trkpt>
<trkpt lat="42.251812" lon="3.209260"><ele>183.7</ele><time>2011-03-22T10:08:36Z</time></trkpt>
<trkpt lat="42.251800" lon="3.208737"><ele>181.5</ele><time>2011-03-22T10:08:41Z</time></trkpt>
<trkpt lat="42.252078" lon="3.208438"><ele>180</ele><time>2011-03-22T10:08:46Z</time></trkpt>
<trkpt lat="42.252438" lon="3.208520"><ele>179.4</ele><time>2011-03-22T10:08:51Z</time></trkpt>
<trkpt lat="42.252738" lon="3.208785"><ele>178.2</ele><time>2011-03-22T10:08:56Z</time></trkpt>
<trkpt lat="42.253037" lon="3.208725"><ele>177.6</ele><time>2011-03-22T10:09:01Z</time></trkpt>
<trkpt lat="42.253247" lon="3.208385"><ele>177.8</ele><time>2011-03-22T10:09:06Z</time></trkpt>
<trkpt lat="42.253360" lon="3.207960"><ele>177.8</ele><time>2011-03-22T10:09:11Z</time></trkpt>
<trkpt lat="42.253377" lon="3.207503"><ele>177.1</ele><time>2011-03-22T10:09:16Z</time></trkpt>
<trkpt lat="42.253498" lon="3.207048"><ele>175.4</ele><time>2011-03-22T10:09:21Z</time></trkpt>
<trkpt lat="42.253635" lon="3.206618"><ele>172.6</ele><time>2011-03-22T10:09:26Z</time></trkpt>
<trkpt lat="42.253712" lon="3.206272"><ele>170.3</ele><time>2011-03-22T10:09:31Z</time></trkpt>
<trkpt lat="42.253762" lon="3.206103"><ele>168.9</ele><time>2011-03-22T10:09:36Z</time></trkpt>
<trkpt lat="42.253838" lon="3.206120"><ele>169.6</ele><time>2011-03-22T10:09:41Z</time></trkpt>
<trkpt lat="42.253907" lon="3.206187"><ele>170.7</ele><time>2011-03-22T10:09:46Z</time></trkpt>
<trkpt lat="42.253987" lon="3.206235"><ele>171.8</ele><time>2011-03-22T10:09:51Z</time></trkpt>
<trkpt lat="42.254058" lon="3.206278"><ele>172.9</ele><time>2011-03-22T10:09:56Z</time></trkpt>
<trkpt lat="42.254138" lon="3.206303"><ele>173.7</ele><time>2011-03-22T10:10:01Z</time></trkpt>
<trkpt lat="42.254218" lon="3.206332"><ele>174.4</ele><time>2011-03-22T10:10:06Z</time></trkpt>
<trkpt lat="42.254295" lon="3.206363"><ele>175.3</ele><time>2011-03-22T10:10:11Z</time></trkpt>
<trkpt lat="42.254375" lon="3.206393"><ele>176.2</ele><time>2011-03-22T10:10:16Z</time></trkpt>
<trkpt lat="42.254448" lon="3.206433"><ele>177.1</ele><time>2011-03-22T10:10:21Z</time></trkpt>
<trkpt lat="42.254517" lon="3.206473"><ele>178.1</ele><time>2011-03-22T10:10:26Z</time></trkpt>
<trkpt lat="42.254582" lon="3.206518"><ele>178.9</ele><time>2011-03-22T10:10:31Z</time></trkpt>
<trkpt lat="42.254638" lon="3.206575"><ele>179.7</ele><time>2011-03-22T10:10:36Z</time></trkpt>
<trkpt lat="42.254680" lon="3.206652"><ele>180.4</ele><time>2011-03-22T10:10:41Z</time></trkpt>
<trkpt lat="42.254707" lon="3.206745"><ele>181.2</ele><time>2011-03-22T10:10:46Z</time></trkpt>
<trkpt lat="42.254665" lon="3.206850"><ele>182</ele><time>2011-03-22T10:10:51Z</time></trkpt>
<trkpt lat="42.254632" lon="3.206962"><ele>182.5</ele><time>2011-03-22T10:10:56Z</time></trkpt>
<trkpt lat="42.254597" lon="3.207072"><ele>183.1</ele><time>2011-03-22T10:11:01Z</time></trkpt>
<trkpt lat="42.254555" lon="3.207187"><ele>183.9</ele><time>2011-03-22T10:11:06Z</time></trkpt>
<trkpt lat="42.254517" lon="3.207305"><ele>184.6</ele><time>2011-03-22T10:11:11Z</time></trkpt>
<trkpt lat="42.254487" lon="3.207425"><ele>185.2</ele><time>2011-03-22T10:11:16Z</time></trkpt>
<trkpt lat="42.254452" lon="3.207543"><ele>186</ele><time>2011-03-22T10:11:21Z</time></trkpt>
<trkpt lat="42.254422" lon="3.207658"><ele>187.1</ele><time>2011-03-22T10:11:26Z</time></trkpt>
<trkpt lat="42.254387" lon="3.207768"><ele>187.9</ele><time>2011-03-22T10:11:31Z</time></trkpt>
<trkpt lat="42.254345" lon="3.207873"><ele>188.9</ele><time>2011-03-22T10:11:36Z</time></trkpt>
<trkpt lat="42.254303" lon="3.207983"><ele>189.9</ele><time>2011-03-22T10:11:41Z</time></trkpt>
<trkpt lat="42.254262" lon="3.208095"><ele>190.8</ele><time>2011-03-22T10:11:46Z</time></trkpt>
<trkpt lat="42.254223" lon="3.208207"><ele>191.7</ele><time>2011-03-22T10:11:51Z</time></trkpt>
<trkpt lat="42.254173" lon="3.208308"><ele>192.4</ele><time>2011-03-22T10:11:56Z</time></trkpt>
<trkpt lat="42.254123" lon="3.208412"><ele>193.2</ele><time>2011-03-22T10:12:01Z</time></trkpt>
<trkpt lat="42.254067" lon="3.208512"><ele>194.2</ele><time>2011-03-22T10:12:06Z</time></trkpt>
<trkpt lat="42.254017" lon="3.208608"><ele>195.4</ele><time>2011-03-22T10:12:11Z</time></trkpt>
<trkpt lat="42.253963" lon="3.208702"><ele>196.2</ele><time>2011-03-22T10:12:16Z</time></trkpt>
<trkpt lat="42.253910" lon="3.208785"><ele>196.9</ele><time>2011-03-22T10:12:21Z</time></trkpt>
<trkpt lat="42.253860" lon="3.208870"><ele>197.5</ele><time>2011-03-22T10:12:26Z</time></trkpt>
<trkpt lat="42.253803" lon="3.208953"><ele>198.2</ele><time>2011-03-22T10:12:31Z</time></trkpt>
<trkpt lat="42.253750" lon="3.209040"><ele>198.8</ele><time>2011-03-22T10:12:36Z</time></trkpt>
<trkpt lat="42.253703" lon="3.209127"><ele>199.5</ele><time>2011-03-22T10:12:41Z</time></trkpt>
<trkpt lat="42.253650" lon="3.209213"><ele>200.2</ele><time>2011-03-22T10:12:46Z</time></trkpt>
<trkpt lat="42.253605" lon="3.209308"><ele>200.8</ele><time>2011-03-22T10:12:51Z</time></trkpt>
<trkpt lat="42.253578" lon="3.209400"><ele>201</ele><time>2011-03-22T10:12:56Z</time></trkpt>
<trkpt lat="42.253543" lon="3.209513"><ele>201.3</ele><time>2011-03-22T10:13:01Z</time></trkpt>
<trkpt lat="42.253510" lon="3.209627"><ele>201.6</ele><time>2011-03-22T10:13:06Z</time></trkpt>
<trkpt lat="42.253475" lon="3.209738"><ele>201.9</ele><time>2011-03-22T10:13:11Z</time></trkpt>
<trkpt lat="42.253445" lon="3.209847"><ele>202.5</ele><time>2011-03-22T10:13:16Z</time></trkpt>
<trkpt lat="42.253410" lon="3.209950"><ele>203.1</ele><time>2011-03-22T10:13:21Z</time></trkpt>
<trkpt lat="42.253377" lon="3.210067"><ele>203.6</ele><time>2011-03-22T10:13:26Z</time></trkpt>
<trkpt lat="42.253330" lon="3.210185"><ele>204.3</ele><time>2011-03-22T10:13:31Z</time></trkpt>
<trkpt lat="42.253292" lon="3.210307"><ele>204.9</ele><time>2011-03-22T10:13:36Z</time></trkpt>
<trkpt lat="42.253265" lon="3.210443"><ele>205.3</ele><time>2011-03-22T10:13:41Z</time></trkpt>
<trkpt lat="42.253280" lon="3.210592"><ele>205.7</ele><time>2011-03-22T10:13:46Z</time></trkpt>
<trkpt lat="42.253360" lon="3.210685"><ele>205.8</ele><time>2011-03-22T10:13:51Z</time></trkpt>
<trkpt lat="42.253468" lon="3.210648"><ele>206.6</ele><time>2011-03-22T10:13:56Z</time></trkpt>
<trkpt lat="42.253513" lon="3.210528"><ele>207.7</ele><time>2011-03-22T10:14:01Z</time></trkpt>
<trkpt lat="42.253495" lon="3.210390"><ele>208.4</ele><time>2011-03-22T10:14:06Z</time></trkpt>
<trkpt lat="42.253490" lon="3.210233"><ele>208.6</ele><time>2011-03-22T10:14:11Z</time></trkpt>
<trkpt lat="42.253543" lon="3.210092"><ele>209.2</ele><time>2011-03-22T10:14:16Z</time></trkpt>
<trkpt lat="42.253605" lon="3.209973"><ele>209.9</ele><time>2011-03-22T10:14:21Z</time></trkpt>
<trkpt lat="42.253673" lon="3.209872"><ele>210.8</ele><time>2011-03-22T10:14:26Z</time></trkpt>
<trkpt lat="42.253750" lon="3.209785"><ele>211.8</ele><time>2011-03-22T10:14:31Z</time></trkpt>
<trkpt lat="42.253827" lon="3.209700"><ele>212.9</ele><time>2011-03-22T10:14:36Z</time></trkpt>
<trkpt lat="42.253902" lon="3.209620"><ele>213.8</ele><time>2011-03-22T10:14:41Z</time></trkpt>
<trkpt lat="42.253990" lon="3.209548"><ele>214.7</ele><time>2011-03-22T10:14:46Z</time></trkpt>
<trkpt lat="42.254078" lon="3.209495"><ele>215.6</ele><time>2011-03-22T10:14:51Z</time></trkpt>
<trkpt lat="42.254173" lon="3.209452"><ele>216.6</ele><time>2011-03-22T10:14:56Z</time></trkpt>
<trkpt lat="42.254268" lon="3.209412"><ele>217.6</ele><time>2011-03-22T10:15:01Z</time></trkpt>
<trkpt lat="42.254363" lon="3.209373"><ele>218.5</ele><time>2011-03-22T10:15:06Z</time></trkpt>
<trkpt lat="42.254455" lon="3.209332"><ele>219.4</ele><time>2011-03-22T10:15:11Z</time></trkpt>
<trkpt lat="42.254552" lon="3.209287"><ele>220.2</ele><time>2011-03-22T10:15:16Z</time></trkpt>
<trkpt lat="42.254647" lon="3.209245"><ele>221.1</ele><time>2011-03-22T10:15:21Z</time></trkpt>
<trkpt lat="42.254733" lon="3.209198"><ele>222.1</ele><time>2011-03-22T10:15:26Z</time></trkpt>
<trkpt lat="42.254822" lon="3.209150"><ele>223</ele><time>2011-03-22T10:15:31Z</time></trkpt>
<trkpt lat="42.254910" lon="3.209102"><ele>223.9</ele><time>2011-03-22T10:15:36Z</time></trkpt>
<trkpt lat="42.255002" lon="3.209050"><ele>224.7</ele><time>2011-03-22T10:15:41Z</time></trkpt>
<trkpt lat="42.255088" lon="3.209002"><ele>225.6</ele><time>2011-03-22T10:15:46Z</time></trkpt>
<trkpt lat="42.255173" lon="3.208945"><ele>226.5</ele><time>2011-03-22T10:15:51Z</time></trkpt>
<trkpt lat="42.255260" lon="3.208882"><ele>227.3</ele><time>2011-03-22T10:15:56Z</time></trkpt>
<trkpt lat="42.255337" lon="3.208813"><ele>228.3</ele><time>2011-03-22T10:16:01Z</time></trkpt>
<trkpt lat="42.255417" lon="3.208740"><ele>229.3</ele><time>2011-03-22T10:16:06Z</time></trkpt>
<trkpt lat="42.255490" lon="3.208670"><ele>230.4</ele><time>2011-03-22T10:16:11Z</time></trkpt>
<trkpt lat="42.255558" lon="3.208595"><ele>231.4</ele><time>2011-03-22T10:16:16Z</time></trkpt>
<trkpt lat="42.255627" lon="3.208512"><ele>232.1</ele><time>2011-03-22T10:16:21Z</time></trkpt>
<trkpt lat="42.255695" lon="3.208430"><ele>232.9</ele><time>2011-03-22T10:16:26Z</time></trkpt>
<trkpt lat="42.255768" lon="3.208348"><ele>233.8</ele><time>2011-03-22T10:16:31Z</time></trkpt>
<trkpt lat="42.255843" lon="3.208272"><ele>234.7</ele><time>2011-03-22T10:16:36Z</time></trkpt>
<trkpt lat="42.255925" lon="3.208207"><ele>235.5</ele><time>2011-03-22T10:16:41Z</time></trkpt>
<trkpt lat="42.256012" lon="3.208155"><ele>236.4</ele><time>2011-03-22T10:16:46Z</time></trkpt>
<trkpt lat="42.256097" lon="3.208110"><ele>237.2</ele><time>2011-03-22T10:16:51Z</time></trkpt>
<trkpt lat="42.256183" lon="3.208075"><ele>238</ele><time>2011-03-22T10:16:56Z</time></trkpt>
<trkpt lat="42.256272" lon="3.208033"><ele>238.8</ele><time>2011-03-22T10:17:01Z</time></trkpt>
<trkpt lat="42.256358" lon="3.207983"><ele>239.4</ele><time>2011-03-22T10:17:06Z</time></trkpt>
<trkpt lat="42.256443" lon="3.207935"><ele>240.2</ele><time>2011-03-22T10:17:11Z</time></trkpt>
<trkpt lat="42.256530" lon="3.207885"><ele>241</ele><time>2011-03-22T10:17:16Z</time></trkpt>
<trkpt lat="42.256615" lon="3.207840"><ele>241.9</ele><time>2011-03-22T10:17:21Z</time></trkpt>
<trkpt lat="42.256702" lon="3.207803"><ele>242.8</ele><time>2011-03-22T10:17:26Z</time></trkpt>
<trkpt lat="42.256798" lon="3.207777"><ele>243.7</ele><time>2011-03-22T10:17:31Z</time></trkpt>
<trkpt lat="42.256897" lon="3.207770"><ele>244.3</ele><time>2011-03-22T10:17:36Z</time></trkpt>
<trkpt lat="42.256997" lon="3.207773"><ele>245.2</ele><time>2011-03-22T10:17:41Z</time></trkpt>
<trkpt lat="42.257092" lon="3.207800"><ele>245.9</ele><time>2011-03-22T10:17:46Z</time></trkpt>
<trkpt lat="42.257187" lon="3.207828"><ele>246.5</ele><time>2011-03-22T10:17:51Z</time></trkpt>
<trkpt lat="42.257275" lon="3.207868"><ele>247.2</ele><time>2011-03-22T10:17:56Z</time></trkpt>
<trkpt lat="42.257362" lon="3.207910"><ele>247.9</ele><time>2011-03-22T10:18:01Z</time></trkpt>
<trkpt lat="42.257450" lon="3.207958"><ele>248.7</ele><time>2011-03-22T10:18:06Z</time></trkpt>
<trkpt lat="42.257538" lon="3.208003"><ele>249.6</ele><time>2011-03-22T10:18:11Z</time></trkpt>
<trkpt lat="42.257633" lon="3.208038"><ele>250</ele><time>2011-03-22T10:18:16Z</time></trkpt>
<trkpt lat="42.257722" lon="3.208068"><ele>250.8</ele><time>2011-03-22T10:18:21Z</time></trkpt>
<trkpt lat="42.257813" lon="3.208085"><ele>251.6</ele><time>2011-03-22T10:18:26Z</time></trkpt>
<trkpt lat="42.257908" lon="3.208093"><ele>252.2</ele><time>2011-03-22T10:18:31Z</time></trkpt>
<trkpt lat="42.258003" lon="3.208102"><ele>253</ele><time>2011-03-22T10:18:36Z</time></trkpt>
<trkpt lat="42.258098" lon="3.208090"><ele>253.8</ele><time>2011-03-22T10:18:41Z</time></trkpt>
<trkpt lat="42.258193" lon="3.208075"><ele>254.5</ele><time>2011-03-22T10:18:46Z</time></trkpt>
<trkpt lat="42.258290" lon="3.208063"><ele>255.4</ele><time>2011-03-22T10:18:51Z</time></trkpt>
<trkpt lat="42.258377" lon="3.208037"><ele>256.3</ele><time>2011-03-22T10:18:56Z</time></trkpt>
<trkpt lat="42.258462" lon="3.208003"><ele>257.2</ele><time>2011-03-22T10:19:01Z</time></trkpt>
<trkpt lat="42.258548" lon="3.207957"><ele>258</ele><time>2011-03-22T10:19:06Z</time></trkpt>
<trkpt lat="42.258625" lon="3.207900"><ele>259</ele><time>2011-03-22T10:19:11Z</time></trkpt>
<trkpt lat="42.258705" lon="3.207838"><ele>259.9</ele><time>2011-03-22T10:19:16Z</time></trkpt>
<trkpt lat="42.258778" lon="3.207768"><ele>260.9</ele><time>2011-03-22T10:19:21Z</time></trkpt>
<trkpt lat="42.258853" lon="3.207712"><ele>262</ele><time>2011-03-22T10:19:26Z</time></trkpt>
<trkpt lat="42.258927" lon="3.207648"><ele>263.1</ele><time>2011-03-22T10:19:31Z</time></trkpt>
<trkpt lat="42.259018" lon="3.207580"><ele>263.7</ele><time>2011-03-22T10:19:36Z</time></trkpt>
<trkpt lat="42.259095" lon="3.207513"><ele>264.8</ele><time>2011-03-22T10:19:41Z</time></trkpt>
<trkpt lat="42.259175" lon="3.207453"><ele>265.7</ele><time>2011-03-22T10:19:46Z</time></trkpt>
<trkpt lat="42.259250" lon="3.207392"><ele>266.7</ele><time>2011-03-22T10:19:51Z</time></trkpt>
<trkpt lat="42.259330" lon="3.207332"><ele>267.7</ele><time>2011-03-22T10:19:56Z</time></trkpt>
<trkpt lat="42.259412" lon="3.207283"><ele>268.7</ele><time>2011-03-22T10:20:01Z</time></trkpt>
<trkpt lat="42.259495" lon="3.207240"><ele>269.7</ele><time>2011-03-22T10:20:06Z</time></trkpt>
<trkpt lat="42.259587" lon="3.207210"><ele>270.8</ele><time>2011-03-22T10:20:11Z</time></trkpt>
<trkpt lat="42.259673" lon="3.207193"><ele>271.8</ele><time>2011-03-22T10:20:16Z</time></trkpt>
<trkpt lat="42.259765" lon="3.207172"><ele>272.6</ele><time>2011-03-22T10:20:21Z</time></trkpt>
<trkpt lat="42.259872" lon="3.207155"><ele>273.5</ele><time>2011-03-22T10:20:26Z</time></trkpt>
<trkpt lat="42.259963" lon="3.207150"><ele>274.5</ele><time>2011-03-22T10:20:31Z</time></trkpt>
<trkpt lat="42.260060" lon="3.207148"><ele>274.9</ele><time>2011-03-22T10:20:36Z</time></trkpt>
<trkpt lat="42.260152" lon="3.207153"><ele>275.4</ele><time>2011-03-22T10:20:41Z</time></trkpt>
<trkpt lat="42.260238" lon="3.207158"><ele>275.9</ele><time>2011-03-22T10:20:46Z</time></trkpt>
<trkpt lat="42.260327" lon="3.207167"><ele>276.5</ele><time>2011-03-22T10:20:51Z</time></trkpt>
<trkpt lat="42.260418" lon="3.207178"><ele>277.2</ele><time>2011-03-22T10:20:56Z</time></trkpt>
<trkpt lat="42.260510" lon="3.207200"><ele>277.9</ele><time>2011-03-22T10:21:01Z</time></trkpt>
<trkpt lat="42.260602" lon="3.207228"><ele>278.4</ele><time>2011-03-22T10:21:06Z</time></trkpt>
<trkpt lat="42.260697" lon="3.207262"><ele>279</ele><time>2011-03-22T10:21:11Z</time></trkpt>
<trkpt lat="42.260792" lon="3.207277"><ele>279.8</ele><time>2011-03-22T10:21:16Z</time></trkpt>
<trkpt lat="42.260887" lon="3.207272"><ele>280.6</ele><time>2011-03-22T10:21:21Z</time></trkpt>
<trkpt lat="42.260993" lon="3.207240"><ele>281.2</ele><time>2011-03-22T10:21:26Z</time></trkpt>
<trkpt lat="42.261082" lon="3.207198"><ele>282.1</ele><time>2011-03-22T10:21:31Z</time></trkpt>
<trkpt lat="42.261165" lon="3.207147"><ele>283.1</ele><time>2011-03-22T10:21:36Z</time></trkpt>
<trkpt lat="42.261245" lon="3.207093"><ele>284</ele><time>2011-03-22T10:21:41Z</time></trkpt>
<trkpt lat="42.261322" lon="3.207038"><ele>285</ele><time>2011-03-22T10:21:46Z</time></trkpt>
<trkpt lat="42.261398" lon="3.206980"><ele>285.8</ele><time>2011-03-22T10:21:51Z</time></trkpt>
<trkpt lat="42.261470" lon="3.206918"><ele>286.7</ele><time>2011-03-22T10:21:56Z</time></trkpt>
<trkpt lat="42.261543" lon="3.206858"><ele>287.5</ele><time>2011-03-22T10:22:01Z</time></trkpt>
<trkpt lat="42.261620" lon="3.206807"><ele>288.5</ele><time>2011-03-22T10:22:06Z</time></trkpt>
<trkpt lat="42.261697" lon="3.206760"><ele>289.6</ele><time>2011-03-22T10:22:11Z</time></trkpt>
<trkpt lat="42.261780" lon="3.206723"><ele>290.6</ele><time>2011-03-22T10:22:16Z</time></trkpt>
<trkpt lat="42.261872" lon="3.206702"><ele>291.3</ele><time>2011-03-22T10:22:21Z</time></trkpt>
<trkpt lat="42.261958" lon="3.206697"><ele>292</ele><time>2011-03-22T10:22:26Z</time></trkpt>
<trkpt lat="42.262050" lon="3.206718"><ele>292.6</ele><time>2011-03-22T10:22:31Z</time></trkpt>
<trkpt lat="42.262138" lon="3.206753"><ele>293.1</ele><time>2011-03-22T10:22:36Z</time></trkpt>
<trkpt lat="42.262233" lon="3.206780"><ele>293.8</ele><time>2011-03-22T10:22:41Z</time></trkpt>
<trkpt lat="42.262322" lon="3.206807"><ele>294.7</ele><time>2011-03-22T10:22:46Z</time></trkpt>
<trkpt lat="42.262405" lon="3.206830"><ele>295.6</ele><time>2011-03-22T10:22:51Z</time></trkpt>
<trkpt lat="42.262490" lon="3.206863"><ele>296.5</ele><time>2011-03-22T10:22:56Z</time></trkpt>
<trkpt lat="42.262573" lon="3.206912"><ele>297.2</ele><time>2011-03-22T10:23:01Z</time></trkpt>
<trkpt lat="42.262635" lon="3.207013"><ele>297.5</ele><time>2011-03-22T10:23:06Z</time></trkpt>
<trkpt lat="42.262677" lon="3.207137"><ele>297.7</ele><time>2011-03-22T10:23:11Z</time></trkpt>
<trkpt lat="42.262703" lon="3.207273"><ele>297.9</ele><time>2011-03-22T10:23:16Z</time></trkpt>
<trkpt lat="42.262733" lon="3.207412"><ele>298.1</ele><time>2011-03-22T10:23:21Z</time></trkpt>
<trkpt lat="42.262748" lon="3.207543"><ele>298.7</ele><time>2011-03-22T10:23:26Z</time></trkpt>
<trkpt lat="42.262780" lon="3.207670"><ele>299.1</ele><time>2011-03-22T10:23:31Z</time></trkpt>
<trkpt lat="42.262822" lon="3.207818"><ele>299.3</ele><time>2011-03-22T10:23:36Z</time></trkpt>
<trkpt lat="42.262852" lon="3.207947"><ele>299.8</ele><time>2011-03-22T10:23:41Z</time></trkpt>
<trkpt lat="42.262890" lon="3.208070"><ele>300.3</ele><time>2011-03-22T10:23:46Z</time></trkpt>
<trkpt lat="42.262932" lon="3.208190"><ele>300.8</ele><time>2011-03-22T10:23:51Z</time></trkpt>
<trkpt lat="42.262993" lon="3.208298"><ele>301.2</ele><time>2011-03-22T10:23:56Z</time></trkpt>
<trkpt lat="42.263058" lon="3.208400"><ele>301.7</ele><time>2011-03-22T10:24:01Z</time></trkpt>
<trkpt lat="42.263142" lon="3.208473"><ele>302.3</ele><time>2011-03-22T10:24:06Z</time></trkpt>
<trkpt lat="42.263222" lon="3.208520"><ele>303.3</ele><time>2011-03-22T10:24:11Z</time></trkpt>
<trkpt lat="42.263313" lon="3.208543"><ele>304.3</ele><time>2011-03-22T10:24:16Z</time></trkpt>
<trkpt lat="42.263412" lon="3.208538"><ele>304.9</ele><time>2011-03-22T10:24:21Z</time></trkpt>
<trkpt lat="42.263508" lon="3.208503"><ele>305.9</ele><time>2011-03-22T10:24:26Z</time></trkpt>
<trkpt lat="42.263588" lon="3.208450"><ele>306.7</ele><time>2011-03-22T10:24:31Z</time></trkpt>
<trkpt lat="42.263672" lon="3.208388"><ele>307.5</ele><time>2011-03-22T10:24:36Z</time></trkpt>
<trkpt lat="42.263745" lon="3.208322"><ele>308.1</ele><time>2011-03-22T10:24:41Z</time></trkpt>
<trkpt lat="42.263828" lon="3.208250"><ele>308.8</ele><time>2011-03-22T10:24:46Z</time></trkpt>
<trkpt lat="42.263927" lon="3.208210"><ele>309.2</ele><time>2011-03-22T10:24:51Z</time></trkpt>
<trkpt lat="42.264030" lon="3.208173"><ele>309.6</ele><time>2011-03-22T10:24:56Z</time></trkpt>
<trkpt lat="42.264133" lon="3.208148"><ele>310.3</ele><time>2011-03-22T10:25:01Z</time></trkpt>
<trkpt lat="42.264225" lon="3.208152"><ele>310.9</ele><time>2011-03-22T10:25:06Z</time></trkpt>
<trkpt lat="42.264305" lon="3.208217"><ele>311.9</ele><time>2011-03-22T10:25:11Z</time></trkpt>
<trkpt lat="42.264347" lon="3.208337"><ele>312.8</ele><time>2011-03-22T10:25:16Z</time></trkpt>
<trkpt lat="42.264355" lon="3.208475"><ele>313.4</ele><time>2011-03-22T10:25:21Z</time></trkpt>
<trkpt lat="42.264355" lon="3.208608"><ele>313.6</ele><time>2011-03-22T10:25:26Z</time></trkpt>
<trkpt lat="42.264332" lon="3.208750"><ele>313.8</ele><time>2011-03-22T10:25:31Z</time></trkpt>
<trkpt lat="42.264335" lon="3.208920"><ele>313.9</ele><time>2011-03-22T10:25:36Z</time></trkpt>
<trkpt lat="42.264355" lon="3.209088"><ele>314.1</ele><time>2011-03-22T10:25:41Z</time></trkpt>
<trkpt lat="42.264352" lon="3.209270"><ele>314.1</ele><time>2011-03-22T10:25:46Z</time></trkpt>
<trkpt lat="42.264355" lon="3.209458"><ele>314.2</ele><time>2011-03-22T10:25:51Z</time></trkpt>
<trkpt lat="42.264358" lon="3.209668"><ele>313.5</ele><time>2011-03-22T10:25:56Z</time></trkpt>
<trkpt lat="42.264332" lon="3.209930"><ele>312.4</ele><time>2011-03-22T10:26:01Z</time></trkpt>
<trkpt lat="42.264305" lon="3.210237"><ele>311.3</ele><time>2011-03-22T10:26:06Z</time></trkpt>
<trkpt lat="42.264222" lon="3.210482"><ele>311.2</ele><time>2011-03-22T10:26:11Z</time></trkpt>
<trkpt lat="42.264133" lon="3.210678"><ele>311.3</ele><time>2011-03-22T10:26:16Z</time></trkpt>
<trkpt lat="42.264103" lon="3.210918"><ele>311.1</ele><time>2011-03-22T10:26:21Z</time></trkpt>
<trkpt lat="42.264110" lon="3.211170"><ele>310.6</ele><time>2011-03-22T10:26:26Z</time></trkpt>
<trkpt lat="42.264118" lon="3.211417"><ele>309.9</ele><time>2011-03-22T10:26:31Z</time></trkpt>
<trkpt lat="42.264130" lon="3.211705"><ele>308.8</ele><time>2011-03-22T10:26:36Z</time></trkpt>
<trkpt lat="42.264137" lon="3.212000"><ele>308.3</ele><time>2011-03-22T10:26:41Z</time></trkpt>
<trkpt lat="42.264133" lon="3.212257"><ele>307.6</ele><time>2011-03-22T10:26:46Z</time></trkpt>
<trkpt lat="42.264148" lon="3.212488"><ele>307.5</ele><time>2011-03-22T10:26:51Z</time></trkpt>
<trkpt lat="42.264190" lon="3.212642"><ele>308.4</ele><time>2011-03-22T10:26:56Z</time></trkpt>
<trkpt lat="42.264228" lon="3.212753"><ele>309.3</ele><time>2011-03-22T10:27:01Z</time></trkpt>
<trkpt lat="42.264270" lon="3.212855"><ele>310.4</ele><time>2011-03-22T10:27:06Z</time></trkpt>
<trkpt lat="42.264320" lon="3.212948"><ele>311.6</ele><time>2011-03-22T10:27:11Z</time></trkpt>
<trkpt lat="42.264362" lon="3.213037"><ele>312.7</ele><time>2011-03-22T10:27:16Z</time></trkpt>
<trkpt lat="42.264415" lon="3.213115"><ele>313.8</ele><time>2011-03-22T10:27:21Z</time></trkpt>
<trkpt lat="42.264473" lon="3.213195"><ele>314.7</ele><time>2011-03-22T10:27:26Z</time></trkpt>
<trkpt lat="42.264527" lon="3.213272"><ele>315.6</ele><time>2011-03-22T10:27:31Z</time></trkpt>
<trkpt lat="42.264587" lon="3.213345"><ele>316.5</ele><time>2011-03-22T10:27:36Z</time></trkpt>
<trkpt lat="42.264645" lon="3.213413"><ele>317.5</ele><time>2011-03-22T10:27:41Z</time></trkpt>
<trkpt lat="42.264705" lon="3.213485"><ele>318.4</ele><time>2011-03-22T10:27:46Z</time></trkpt>
<trkpt lat="42.264763" lon="3.213552"><ele>319.3</ele><time>2011-03-22T10:27:51Z</time></trkpt>
<trkpt lat="42.264823" lon="3.213613"><ele>320.2</ele><time>2011-03-22T10:27:56Z</time></trkpt>
<trkpt lat="42.264888" lon="3.213668"><ele>321</ele><time>2011-03-22T10:28:01Z</time></trkpt>
<trkpt lat="42.264950" lon="3.213728"><ele>321.9</ele><time>2011-03-22T10:28:06Z</time></trkpt>
<trkpt lat="42.265015" lon="3.213785"><ele>322.8</ele><time>2011-03-22T10:28:11Z</time></trkpt>
<trkpt lat="42.265080" lon="3.213842"><ele>323.8</ele><time>2011-03-22T10:28:16Z</time></trkpt>
<trkpt lat="42.265140" lon="3.213898"><ele>325</ele><time>2011-03-22T10:28:21Z</time></trkpt>
<trkpt lat="42.265210" lon="3.213962"><ele>325.6</ele><time>2011-03-22T10:28:26Z</time></trkpt>
<trkpt lat="42.265273" lon="3.214023"><ele>326.5</ele><time>2011-03-22T10:28:31Z</time></trkpt>
<trkpt lat="42.265332" lon="3.214085"><ele>327.3</ele><time>2011-03-22T10:28:36Z</time></trkpt>
<trkpt lat="42.265392" lon="3.214143"><ele>328.2</ele><time>2011-03-22T10:28:41Z</time></trkpt>
<trkpt lat="42.265453" lon="3.214205"><ele>329</ele><time>2011-03-22T10:28:46Z</time></trkpt>
<trkpt lat="42.265518" lon="3.214262"><ele>329.7</ele><time>2011-03-22T10:28:51Z</time></trkpt>
<trkpt lat="42.265583" lon="3.214315"><ele>330.3</ele><time>2011-03-22T10:28:56Z</time></trkpt>
<trkpt lat="42.265652" lon="3.214360"><ele>331.2</ele><time>2011-03-22T10:29:01Z</time></trkpt>
<trkpt lat="42.265728" lon="3.214398"><ele>332.1</ele><time>2011-03-22T10:29:06Z</time></trkpt>
<trkpt lat="42.265797" lon="3.214420"><ele>333</ele><time>2011-03-22T10:29:11Z</time></trkpt>
<trkpt lat="42.265877" lon="3.214407"><ele>333.4</ele><time>2011-03-22T10:29:16Z</time></trkpt>
<trkpt lat="42.265953" lon="3.214367"><ele>334.4</ele><time>2011-03-22T10:29:21Z</time></trkpt>
<trkpt lat="42.266022" lon="3.214310"><ele>335.5</ele><time>2011-03-22T10:29:26Z</time></trkpt>
<trkpt lat="42.266078" lon="3.214240"><ele>336.5</ele><time>2011-03-22T10:29:31Z</time></trkpt>
<trkpt lat="42.266137" lon="3.214167"><ele>337.4</ele><time>2011-03-22T10:29:36Z</time></trkpt>
<trkpt lat="42.266193" lon="3.214092"><ele>338.4</ele><time>2011-03-22T10:29:41Z</time></trkpt>
<trkpt lat="42.266247" lon="3.214020"><ele>339.5</ele><time>2011-03-22T10:29:46Z</time></trkpt>
<trkpt lat="42.266293" lon="3.213937"><ele>340.5</ele><time>2011-03-22T10:29:51Z</time></trkpt>
<trkpt lat="42.266342" lon="3.213852"><ele>341.6</ele><time>2011-03-22T10:29:56Z</time></trkpt>
<trkpt lat="42.266388" lon="3.213767"><ele>342.9</ele><time>2011-03-22T10:30:01Z</time></trkpt>
<trkpt lat="42.266445" lon="3.213698"><ele>344.3</ele><time>2011-03-22T10:30:06Z</time></trkpt>
<trkpt lat="42.266518" lon="3.213667"><ele>345.5</ele><time>2011-03-22T10:30:11Z</time></trkpt>
<trkpt lat="42.266602" lon="3.213695"><ele>346.4</ele><time>2011-03-22T10:30:16Z</time></trkpt>
<trkpt lat="42.266673" lon="3.213758"><ele>347.1</ele><time>2011-03-22T10:30:21Z</time></trkpt>
<trkpt lat="42.266735" lon="3.213825"><ele>347.9</ele><time>2011-03-22T10:30:26Z</time></trkpt>
<trkpt lat="42.266803" lon="3.213892"><ele>348.6</ele><time>2011-03-22T10:30:31Z</time></trkpt>
<trkpt lat="42.266872" lon="3.213955"><ele>349.2</ele><time>2011-03-22T10:30:36Z</time></trkpt>
<trkpt lat="42.266937" lon="3.214015"><ele>349.9</ele><time>2011-03-22T10:30:41Z</time></trkpt>
<trkpt lat="42.267002" lon="3.214077"><ele>351.1</ele><time>2011-03-22T10:30:46Z</time></trkpt>
<trkpt lat="42.267070" lon="3.214140"><ele>352.2</ele><time>2011-03-22T10:30:51Z</time></trkpt>
<trkpt lat="42.267132" lon="3.214205"><ele>353.2</ele><time>2011-03-22T10:30:56Z</time></trkpt>
<trkpt lat="42.267188" lon="3.214265"><ele>354.1</ele><time>2011-03-22T10:31:01Z</time></trkpt>
<trkpt lat="42.267250" lon="3.214333"><ele>353.4</ele><time>2011-03-22T10:31:06Z</time></trkpt>
<trkpt lat="42.267300" lon="3.214405"><ele>353.2</ele><time>2011-03-22T10:31:11Z</time></trkpt>
<trkpt lat="42.267357" lon="3.214483"><ele>353.4</ele><time>2011-03-22T10:31:16Z</time></trkpt>
<trkpt lat="42.267410" lon="3.214555"><ele>354.4</ele><time>2011-03-22T10:31:21Z</time></trkpt>
<trkpt lat="42.267463" lon="3.214623"><ele>355.5</ele><time>2011-03-22T10:31:26Z</time></trkpt>
<trkpt lat="42.267525" lon="3.214697"><ele>356.1</ele><time>2011-03-22T10:31:31Z</time></trkpt>
<trkpt lat="42.267585" lon="3.214773"><ele>356.5</ele><time>2011-03-22T10:31:36Z</time></trkpt>
<trkpt lat="42.267647" lon="3.214855"><ele>356.9</ele><time>2011-03-22T10:31:41Z</time></trkpt>
<trkpt lat="42.267703" lon="3.214937"><ele>357.6</ele><time>2011-03-22T10:31:46Z</time></trkpt>
<trkpt lat="42.267753" lon="3.215022"><ele>358.3</ele><time>2011-03-22T10:31:51Z</time></trkpt>
<trkpt lat="42.267795" lon="3.215113"><ele>359.1</ele><time>2011-03-22T10:31:56Z</time></trkpt>
<trkpt lat="42.267827" lon="3.215213"><ele>360.3</ele><time>2011-03-22T10:32:01Z</time></trkpt>
<trkpt lat="42.267868" lon="3.215303"><ele>361.5</ele><time>2011-03-22T10:32:06Z</time></trkpt>
<trkpt lat="42.267928" lon="3.215373"><ele>362.7</ele><time>2011-03-22T10:32:11Z</time></trkpt>
<trkpt lat="42.268002" lon="3.215425"><ele>363.5</ele><time>2011-03-22T10:32:16Z</time></trkpt>
<trkpt lat="42.268078" lon="3.215467"><ele>364.4</ele><time>2011-03-22T10:32:21Z</time></trkpt>
<trkpt lat="42.268165" lon="3.215485"><ele>364.9</ele><time>2011-03-22T10:32:26Z</time></trkpt>
<trkpt lat="42.268250" lon="3.215498"><ele>365.9</ele><time>2011-03-22T10:32:31Z</time></trkpt>
<trkpt lat="42.268333" lon="3.215510"><ele>366.8</ele><time>2011-03-22T10:32:36Z</time></trkpt>
<trkpt lat="42.268413" lon="3.215522"><ele>367.7</ele><time>2011-03-22T10:32:41Z</time></trkpt>
<trkpt lat="42.268497" lon="3.215543"><ele>368.6</ele><time>2011-03-22T10:32:46Z</time></trkpt>
<trkpt lat="42.268573" lon="3.215568"><ele>369.5</ele><time>2011-03-22T10:32:51Z</time></trkpt>
<trkpt lat="42.268658" lon="3.215588"><ele>370.2</ele><time>2011-03-22T10:32:56Z</time></trkpt>
<trkpt lat="42.268738" lon="3.215612"><ele>370.3</ele><time>2011-03-22T10:33:01Z</time></trkpt>
<trkpt lat="42.268818" lon="3.215655"><ele>370.6</ele><time>2011-03-22T10:33:06Z</time></trkpt>
<trkpt lat="42.268895" lon="3.215717"><ele>370.9</ele><time>2011-03-22T10:33:11Z</time></trkpt>
<trkpt lat="42.268958" lon="3.215803"><ele>371.1</ele><time>2011-03-22T10:33:16Z</time></trkpt>
<trkpt lat="42.269020" lon="3.215902"><ele>371.4</ele><time>2011-03-22T10:33:21Z</time></trkpt>
<trkpt lat="42.269067" lon="3.216012"><ele>371.7</ele><time>2011-03-22T10:33:26Z</time></trkpt>
<trkpt lat="42.269120" lon="3.216120"><ele>372.2</ele><time>2011-03-22T10:33:31Z</time></trkpt>
<trkpt lat="42.269165" lon="3.216223"><ele>372.8</ele><time>2011-03-22T10:33:36Z</time></trkpt>
<trkpt lat="42.269215" lon="3.216322"><ele>373.5</ele><time>2011-03-22T10:33:41Z</time></trkpt>
<trkpt lat="42.269260" lon="3.216415"><ele>374.3</ele><time>2011-03-22T10:33:46Z</time></trkpt>
<trkpt lat="42.269307" lon="3.216512"><ele>375.1</ele><time>2011-03-22T10:33:51Z</time></trkpt>
<trkpt lat="42.269352" lon="3.216605"><ele>376.2</ele><time>2011-03-22T10:33:56Z</time></trkpt>
<trkpt lat="42.269398" lon="3.216697"><ele>377.3</ele><time>2011-03-22T10:34:01Z</time></trkpt>
<trkpt lat="42.269447" lon="3.216788"><ele>378.3</ele><time>2011-03-22T10:34:06Z</time></trkpt>
<trkpt lat="42.269497" lon="3.216873"><ele>379.3</ele><time>2011-03-22T10:34:11Z</time></trkpt>
<trkpt lat="42.269538" lon="3.216963"><ele>380.4</ele><time>2011-03-22T10:34:16Z</time></trkpt>
<trkpt lat="42.269582" lon="3.217060"><ele>381</ele><time>2011-03-22T10:34:21Z</time></trkpt>
<trkpt lat="42.269623" lon="3.217157"><ele>381.8</ele><time>2011-03-22T10:34:26Z</time></trkpt>
<trkpt lat="42.269657" lon="3.217250"><ele>382.6</ele><time>2011-03-22T10:34:31Z</time></trkpt>
<trkpt lat="42.269683" lon="3.217352"><ele>383.4</ele><time>2011-03-22T10:34:36Z</time></trkpt>
<trkpt lat="42.269710" lon="3.217453"><ele>384.2</ele><time>2011-03-22T10:34:41Z</time></trkpt>
<trkpt lat="42.269730" lon="3.217557"><ele>385</ele><time>2011-03-22T10:34:46Z</time></trkpt>
<trkpt lat="42.269745" lon="3.217660"><ele>385.9</ele><time>2011-03-22T10:34:51Z</time></trkpt>
<trkpt lat="42.269768" lon="3.217765"><ele>386.7</ele><time>2011-03-22T10:34:56Z</time></trkpt>
<trkpt lat="42.269787" lon="3.217867"><ele>387.5</ele><time>2011-03-22T10:35:01Z</time></trkpt>
<trkpt lat="42.269807" lon="3.217968"><ele>388.3</ele><time>2011-03-22T10:35:06Z</time></trkpt>
<trkpt lat="42.269828" lon="3.218082"><ele>388.9</ele><time>2011-03-22T10:35:11Z</time></trkpt>
<trkpt lat="42.269848" lon="3.218193"><ele>389.7</ele><time>2011-03-22T10:35:16Z</time></trkpt>
<trkpt lat="42.269863" lon="3.218307"><ele>390.4</ele><time>2011-03-22T10:35:21Z</time></trkpt>
<trkpt lat="42.269875" lon="3.218415"><ele>391.1</ele><time>2011-03-22T10:35:26Z</time></trkpt>
<trkpt lat="42.269875" lon="3.218530"><ele>392</ele><time>2011-03-22T10:35:31Z</time></trkpt>
<trkpt lat="42.269882" lon="3.218645"><ele>393</ele><time>2011-03-22T10:35:36Z</time></trkpt>
<trkpt lat="42.269902" lon="3.218758"><ele>393.7</ele><time>2011-03-22T10:35:41Z</time></trkpt>
<trkpt lat="42.269913" lon="3.218873"><ele>394.6</ele><time>2011-03-22T10:35:46Z</time></trkpt>
<trkpt lat="42.269932" lon="3.218988"><ele>395.5</ele><time>2011-03-22T10:35:51Z</time></trkpt>
<trkpt lat="42.269962" lon="3.219108"><ele>395.8</ele><time>2011-03-22T10:35:56Z</time></trkpt>
<trkpt lat="42.270015" lon="3.219205"><ele>396.5</ele><time>2011-03-22T10:36:01Z</time></trkpt>
<trkpt lat="42.270085" lon="3.219273"><ele>397</ele><time>2011-03-22T10:36:06Z</time></trkpt>
<trkpt lat="42.270165" lon="3.219317"><ele>397.6</ele><time>2011-03-22T10:36:11Z</time></trkpt>
<trkpt lat="42.270240" lon="3.219348"><ele>398.3</ele><time>2011-03-22T10:36:16Z</time></trkpt>
<trkpt lat="42.270325" lon="3.219363"><ele>398.9</ele><time>2011-03-22T10:36:21Z</time></trkpt>
<trkpt lat="42.270408" lon="3.219373"><ele>399.6</ele><time>2011-03-22T10:36:26Z</time></trkpt>
<trkpt lat="42.270493" lon="3.219360"><ele>400.4</ele><time>2011-03-22T10:36:31Z</time></trkpt>
<trkpt lat="42.270573" lon="3.219333"><ele>401.3</ele><time>2011-03-22T10:36:36Z</time></trkpt>
<trkpt lat="42.270657" lon="3.219297"><ele>402.2</ele><time>2011-03-22T10:36:41Z</time></trkpt>
<trkpt lat="42.270740" lon="3.219258"><ele>403.2</ele><time>2011-03-22T10:36:46Z</time></trkpt>
<trkpt lat="42.270820" lon="3.219213"><ele>404.2</ele><time>2011-03-22T10:36:51Z</time></trkpt>
<trkpt lat="42.270905" lon="3.219160"><ele>405.3</ele><time>2011-03-22T10:36:56Z</time></trkpt>
<trkpt lat="42.270977" lon="3.219098"><ele>406.3</ele><time>2011-03-22T10:37:01Z</time></trkpt>
<trkpt lat="42.271045" lon="3.219033"><ele>407.1</ele><time>2011-03-22T10:37:06Z</time></trkpt>
<trkpt lat="42.271122" lon="3.218963"><ele>407.9</ele><time>2011-03-22T10:37:11Z</time></trkpt>
<trkpt lat="42.271198" lon="3.218892"><ele>408.7</ele><time>2011-03-22T10:37:16Z</time></trkpt>
<trkpt lat="42.271275" lon="3.218815"><ele>409.6</ele><time>2011-03-22T10:37:21Z</time></trkpt>
<trkpt lat="42.271352" lon="3.218740"><ele>410.5</ele><time>2011-03-22T10:37:26Z</time></trkpt>
<trkpt lat="42.271432" lon="3.218665"><ele>411.5</ele><time>2011-03-22T10:37:31Z</time></trkpt>
<trkpt lat="42.271503" lon="3.218590"><ele>412.5</ele><time>2011-03-22T10:37:36Z</time></trkpt>
<trkpt lat="42.271587" lon="3.218515"><ele>413.4</ele><time>2011-03-22T10:37:41Z</time></trkpt>
<trkpt lat="42.271667" lon="3.218442"><ele>414.2</ele><time>2011-03-22T10:37:46Z</time></trkpt>
<trkpt lat="42.271748" lon="3.218362"><ele>414.8</ele><time>2011-03-22T10:37:51Z</time></trkpt>
<trkpt lat="42.271835" lon="3.218272"><ele>415.3</ele><time>2011-03-22T10:37:56Z</time></trkpt>
<trkpt lat="42.271920" lon="3.218193"><ele>415.9</ele><time>2011-03-22T10:38:01Z</time></trkpt>
<trkpt lat="42.271995" lon="3.218110"><ele>416.5</ele><time>2011-03-22T10:38:06Z</time></trkpt>
<trkpt lat="42.272068" lon="3.218018"><ele>417</ele><time>2011-03-22T10:38:11Z</time></trkpt>
<trkpt lat="42.272152" lon="3.217943"><ele>417.7</ele><time>2011-03-22T10:38:16Z</time></trkpt>
<trkpt lat="42.272225" lon="3.217877"><ele>418.4</ele><time>2011-03-22T10:38:21Z</time></trkpt>
<trkpt lat="42.272308" lon="3.217822"><ele>419.2</ele><time>2011-03-22T10:38:26Z</time></trkpt>
<trkpt lat="42.272400" lon="3.217820"><ele>419.8</ele><time>2011-03-22T10:38:31Z</time></trkpt>
<trkpt lat="42.272492" lon="3.217838"><ele>419.7</ele><time>2011-03-22T10:38:36Z</time></trkpt>
<trkpt lat="42.272587" lon="3.217898"><ele>419.3</ele><time>2011-03-22T10:38:41Z</time></trkpt>
<trkpt lat="42.272690" lon="3.217977"><ele>419.1</ele><time>2011-03-22T10:38:46Z</time></trkpt>
<trkpt lat="42.272785" lon="3.218048"><ele>419.1</ele><time>2011-03-22T10:38:51Z</time></trkpt>
<trkpt lat="42.272885" lon="3.218115"><ele>419</ele><time>2011-03-22T10:38:56Z</time></trkpt>
<trkpt lat="42.272977" lon="3.218178"><ele>419.2</ele><time>2011-03-22T10:39:01Z</time></trkpt>
<trkpt lat="42.273045" lon="3.218262"><ele>419.7</ele><time>2011-03-22T10:39:06Z</time></trkpt>
<trkpt lat="42.273117" lon="3.218355"><ele>420.4</ele><time>2011-03-22T10:39:11Z</time></trkpt>
<trkpt lat="42.273178" lon="3.218453"><ele>421.2</ele><time>2011-03-22T10:39:16Z</time></trkpt>
<trkpt lat="42.273232" lon="3.218552"><ele>422</ele><time>2011-03-22T10:39:21Z</time></trkpt>
<trkpt lat="42.273285" lon="3.218660"><ele>423</ele><time>2011-03-22T10:39:26Z</time></trkpt>
<trkpt lat="42.273327" lon="3.218772"><ele>424.1</ele><time>2011-03-22T10:39:31Z</time></trkpt>
<trkpt lat="42.273362" lon="3.218877"><ele>425.4</ele><time>2011-03-22T10:39:36Z</time></trkpt>
<trkpt lat="42.273388" lon="3.218990"><ele>426</ele><time>2011-03-22T10:39:41Z</time></trkpt>
<trkpt lat="42.273407" lon="3.219103"><ele>427</ele><time>2011-03-22T10:39:46Z</time></trkpt>
<trkpt lat="42.273430" lon="3.219210"><ele>427.8</ele><time>2011-03-22T10:39:51Z</time></trkpt>
<trkpt lat="42.273445" lon="3.219317"><ele>428.5</ele><time>2011-03-22T10:39:56Z</time></trkpt>
<trkpt lat="42.273453" lon="3.219422"><ele>429.5</ele><time>2011-03-22T10:40:01Z</time></trkpt>
<trkpt lat="42.273457" lon="3.219527"><ele>430.5</ele><time>2011-03-22T10:40:06Z</time></trkpt>
<trkpt lat="42.273460" lon="3.219635"><ele>431.5</ele><time>2011-03-22T10:40:11Z</time></trkpt>
<trkpt lat="42.273453" lon="3.219745"><ele>432.4</ele><time>2011-03-22T10:40:16Z</time></trkpt>
<trkpt lat="42.273438" lon="3.219853"><ele>433.4</ele><time>2011-03-22T10:40:21Z</time></trkpt>
<trkpt lat="42.273422" lon="3.219963"><ele>434.3</ele><time>2011-03-22T10:40:26Z</time></trkpt>
<trkpt lat="42.273395" lon="3.220065"><ele>435.4</ele><time>2011-03-22T10:40:31Z</time></trkpt>
<trkpt lat="42.273368" lon="3.220180"><ele>435.7</ele><time>2011-03-22T10:40:36Z</time></trkpt>
<trkpt lat="42.273335" lon="3.220285"><ele>436.5</ele><time>2011-03-22T10:40:41Z</time></trkpt>
<trkpt lat="42.273285" lon="3.220380"><ele>437.2</ele><time>2011-03-22T10:40:46Z</time></trkpt>
<trkpt lat="42.273238" lon="3.220482"><ele>438</ele><time>2011-03-22T10:40:51Z</time></trkpt>
<trkpt lat="42.273185" lon="3.220577"><ele>438.7</ele><time>2011-03-22T10:40:56Z</time></trkpt>
<trkpt lat="42.273132" lon="3.220668"><ele>439.5</ele><time>2011-03-22T10:41:01Z</time></trkpt>
<trkpt lat="42.273075" lon="3.220762"><ele>440.2</ele><time>2011-03-22T10:41:06Z</time></trkpt>
<trkpt lat="42.273018" lon="3.220858"><ele>440.9</ele><time>2011-03-22T10:41:11Z</time></trkpt>
<trkpt lat="42.272957" lon="3.220963"><ele>441.5</ele><time>2011-03-22T10:41:16Z</time></trkpt>
<trkpt lat="42.272885" lon="3.221085"><ele>441.9</ele><time>2011-03-22T10:41:21Z</time></trkpt>
<trkpt lat="42.272815" lon="3.221215"><ele>442.3</ele><time>2011-03-22T10:41:26Z</time></trkpt>
<trkpt lat="42.272740" lon="3.221353"><ele>442.7</ele><time>2011-03-22T10:41:31Z</time></trkpt>
<trkpt lat="42.272663" lon="3.221492"><ele>443.3</ele><time>2011-03-22T10:41:36Z</time></trkpt>
<trkpt lat="42.272583" lon="3.221643"><ele>443.4</ele><time>2011-03-22T10:41:41Z</time></trkpt>
<trkpt lat="42.272498" lon="3.221767"><ele>444</ele><time>2011-03-22T10:41:46Z</time></trkpt>
<trkpt lat="42.272412" lon="3.221875"><ele>444.6</ele><time>2011-03-22T10:41:51Z</time></trkpt>
<trkpt lat="42.272320" lon="3.221975"><ele>445.3</ele><time>2011-03-22T10:41:56Z</time></trkpt>
<trkpt lat="42.272232" lon="3.222075"><ele>446.2</ele><time>2011-03-22T10:42:01Z</time></trkpt>
<trkpt lat="42.272148" lon="3.222177"><ele>447.2</ele><time>2011-03-22T10:42:06Z</time></trkpt>
<trkpt lat="42.272060" lon="3.222283"><ele>448.2</ele><time>2011-03-22T10:42:11Z</time></trkpt>
<trkpt lat="42.271980" lon="3.222415"><ele>448.5</ele><time>2011-03-22T10:42:16Z</time></trkpt>
<trkpt lat="42.271920" lon="3.222560"><ele>448.8</ele><time>2011-03-22T10:42:21Z</time></trkpt>
<trkpt lat="42.271873" lon="3.222722"><ele>449.2</ele><time>2011-03-22T10:42:26Z</time></trkpt>
<trkpt lat="42.271855" lon="3.222887"><ele>449.6</ele><time>2011-03-22T10:42:31Z</time></trkpt>
<trkpt lat="42.271820" lon="3.223035"><ele>450.3</ele><time>2011-03-22T10:42:36Z</time></trkpt>
<trkpt lat="42.271767" lon="3.223133"><ele>451.2</ele><time>2011-03-22T10:42:41Z</time></trkpt>
<trkpt lat="42.271755" lon="3.223217"><ele>451.8</ele><time>2011-03-22T10:42:46Z</time></trkpt>
<trkpt lat="42.271782" lon="3.223250"><ele>451.8</ele><time>2011-03-22T10:42:51Z</time></trkpt>
<trkpt lat="42.271785" lon="3.223257"><ele>451.8</ele><time>2011-03-22T10:42:56Z</time></trkpt>
<trkpt lat="42.271785" lon="3.223282"><ele>452</ele><time>2011-03-22T10:43:01Z</time></trkpt>
<trkpt lat="42.271743" lon="3.223313"><ele>452.6</ele><time>2011-03-22T10:43:06Z</time></trkpt>
<trkpt lat="42.271722" lon="3.223385"><ele>453.8</ele><time>2011-03-22T10:43:11Z</time></trkpt>
<trkpt lat="42.271663" lon="3.223407"><ele>454.5</ele><time>2011-03-22T10:43:16Z</time></trkpt>
<trkpt lat="42.271595" lon="3.223357"><ele>454.6</ele><time>2011-03-22T10:43:21Z</time></trkpt>
<trkpt lat="42.271545" lon="3.223278"><ele>454.7</ele><time>2011-03-22T10:43:26Z</time></trkpt>
<trkpt lat="42.271530" lon="3.223180"><ele>455</ele><time>2011-03-22T10:43:31Z</time></trkpt>
<trkpt lat="42.271523" lon="3.223075"><ele>455.3</ele><time>2011-03-22T10:43:36Z</time></trkpt>
<trkpt lat="42.271518" lon="3.222973"><ele>455.7</ele><time>2011-03-22T10:43:41Z</time></trkpt>
<trkpt lat="42.271527" lon="3.222872"><ele>456.2</ele><time>2011-03-22T10:43:46Z</time></trkpt>
<trkpt lat="42.271518" lon="3.222767"><ele>456.7</ele><time>2011-03-22T10:43:51Z</time></trkpt>
<trkpt lat="42.271512" lon="3.222658"><ele>457.1</ele><time>2011-03-22T10:43:56Z</time></trkpt>
<trkpt lat="42.271518" lon="3.222557"><ele>457.6</ele><time>2011-03-22T10:44:01Z</time></trkpt>
<trkpt lat="42.271560" lon="3.222468"><ele>458.3</ele><time>2011-03-22T10:44:06Z</time></trkpt>
<trkpt lat="42.271595" lon="3.222372"><ele>459.1</ele><time>2011-03-22T10:44:11Z</time></trkpt>
<trkpt lat="42.271625" lon="3.222275"><ele>459.9</ele><time>2011-03-22T10:44:16Z</time></trkpt>
<trkpt lat="42.271633" lon="3.222182"><ele>460.8</ele><time>2011-03-22T10:44:21Z</time></trkpt>
<trkpt lat="42.271630" lon="3.222092"><ele>461.7</ele><time>2011-03-22T10:44:26Z</time></trkpt>
<trkpt lat="42.271595" lon="3.222013"><ele>462.8</ele><time>2011-03-22T10:44:31Z</time></trkpt>
<trkpt lat="42.271572" lon="3.221932"><ele>464</ele><time>2011-03-22T10:44:36Z</time></trkpt>
<trkpt lat="42.271568" lon="3.221850"><ele>465.4</ele><time>2011-03-22T10:44:41Z</time></trkpt>
<trkpt lat="42.271560" lon="3.221768"><ele>466.5</ele><time>2011-03-22T10:44:46Z</time></trkpt>
<trkpt lat="42.271583" lon="3.221695"><ele>467.2</ele><time>2011-03-22T10:44:51Z</time></trkpt>
<trkpt lat="42.271618" lon="3.221628"><ele>467.8</ele><time>2011-03-22T10:44:56Z</time></trkpt>
<trkpt lat="42.271663" lon="3.221568"><ele>468.5</ele><time>2011-03-22T10:45:01Z</time></trkpt>
<trkpt lat="42.271698" lon="3.221495"><ele>469.2</ele><time>2011-03-22T10:45:06Z</time></trkpt>
<trkpt lat="42.271717" lon="3.221407"><ele>469.9</ele><time>2011-03-22T10:45:11Z</time></trkpt>
<trkpt lat="42.271740" lon="3.221312"><ele>470.4</ele><time>2011-03-22T10:45:16Z</time></trkpt>
<trkpt lat="42.271775" lon="3.221208"><ele>470.4</ele><time>2011-03-22T10:45:21Z</time></trkpt>
<trkpt lat="42.271828" lon="3.221120"><ele>470.2</ele><time>2011-03-22T10:45:26Z</time></trkpt>
<trkpt lat="42.271888" lon="3.221037"><ele>470.2</ele><time>2011-03-22T10:45:31Z</time></trkpt>
<trkpt lat="42.271957" lon="3.220950"><ele>470.1</ele><time>2011-03-22T10:45:36Z</time></trkpt>
<trkpt lat="42.272022" lon="3.220843"><ele>470</ele><time>2011-03-22T10:45:41Z</time></trkpt>
<trkpt lat="42.272098" lon="3.220662"><ele>468.7</ele><time>2011-03-22T10:45:46Z</time></trkpt>
<trkpt lat="42.272193" lon="3.220433"><ele>468.3</ele><time>2011-03-22T10:45:51Z</time></trkpt>
<trkpt lat="42.272273" lon="3.220307"><ele>468.1</ele><time>2011-03-22T10:45:56Z</time></trkpt>
<trkpt lat="42.272362" lon="3.220167"><ele>467.8</ele><time>2011-03-22T10:46:01Z</time></trkpt>
<trkpt lat="42.272442" lon="3.220025"><ele>467.8</ele><time>2011-03-22T10:46:06Z</time></trkpt>
<trkpt lat="42.272495" lon="3.219883"><ele>467.7</ele><time>2011-03-22T10:46:11Z</time></trkpt>
<trkpt lat="42.272533" lon="3.219780"><ele>467.1</ele><time>2011-03-22T10:46:16Z</time></trkpt>
<trkpt lat="42.272533" lon="3.219770"><ele>466.8</ele><time>2011-03-22T10:46:21Z</time></trkpt>
<trkpt lat="42.272533" lon="3.219773"><ele>466.7</ele><time>2011-03-22T10:46:26Z</time></trkpt>
<trkpt lat="42.272533" lon="3.219778"><ele>466.7</ele><time>2011-03-22T10:46:31Z</time></trkpt>
<trkpt lat="42.272530" lon="3.219780"><ele>466.7</ele><time>2011-03-22T10:46:36Z</time></trkpt>
<trkpt lat="42.272530" lon="3.219782"><ele>466.7</ele><time>2011-03-22T10:46:41Z</time></trkpt>
<trkpt lat="42.272530" lon="3.219783"><ele>466.6</ele><time>2011-03-22T10:46:46Z</time></trkpt>
<trkpt lat="42.272530" lon="3.219783"><ele>466.6</ele><time>2011-03-22T10:46:51Z</time></trkpt>
<trkpt lat="42.272530" lon="3.219785"><ele>466.6</ele><time>2011-03-22T10:46:56Z</time></trkpt>
<trkpt lat="42.272530" lon="3.219785"><ele>466.6</ele><time>2011-03-22T10:47:01Z</time></trkpt>
<trkpt lat="42.272530" lon="3.219787"><ele>466.5</ele><time>2011-03-22T10:47:06Z</time></trkpt>
<trkpt lat="42.272530" lon="3.219787"><ele>466.3</ele><time>2011-03-22T10:47:11Z</time></trkpt>
<trkpt lat="42.272530" lon="3.219785"><ele>466.2</ele><time>2011-03-22T10:47:16Z</time></trkpt>
<trkpt lat="42.272530" lon="3.219787"><ele>466.1</ele><time>2011-03-22T10:47:21Z</time></trkpt>
<trkpt lat="42.272530" lon="3.219787"><ele>466</ele><time>2011-03-22T10:47:26Z</time></trkpt>
<trkpt lat="42.272530" lon="3.219782"><ele>465.7</ele><time>2011-03-22T10:47:31Z</time></trkpt>
<trkpt lat="42.272515" lon="3.219817"><ele>466.1</ele><time>2011-03-22T10:47:36Z</time></trkpt>
<trkpt lat="42.272510" lon="3.219820"><ele>466.5</ele><time>2011-03-22T10:47:41Z</time></trkpt>
<trkpt lat="42.272480" lon="3.219902"><ele>467.4</ele><time>2011-03-22T10:47:46Z</time></trkpt>
<trkpt lat="42.272445" lon="3.220000"><ele>467.9</ele><time>2011-03-22T10:47:51Z</time></trkpt>
<trkpt lat="42.272385" lon="3.220090"><ele>468.2</ele><time>2011-03-22T10:47:56Z</time></trkpt>
<trkpt lat="42.272317" lon="3.220193"><ele>468.5</ele><time>2011-03-22T10:48:01Z</time></trkpt>
<trkpt lat="42.272252" lon="3.220298"><ele>469.1</ele><time>2011-03-22T10:48:06Z</time></trkpt>
<trkpt lat="42.272198" lon="3.220403"><ele>469.6</ele><time>2011-03-22T10:48:11Z</time></trkpt>
<trkpt lat="42.272152" lon="3.220502"><ele>469.8</ele><time>2011-03-22T10:48:16Z</time></trkpt>
<trkpt lat="42.272118" lon="3.220612"><ele>470</ele><time>2011-03-22T10:48:21Z</time></trkpt>
<trkpt lat="42.272068" lon="3.220712"><ele>470.9</ele><time>2011-03-22T10:48:26Z</time></trkpt>
<trkpt lat="42.272015" lon="3.220828"><ele>472</ele><time>2011-03-22T10:48:31Z</time></trkpt>
<trkpt lat="42.271953" lon="3.220952"><ele>472.3</ele><time>2011-03-22T10:48:36Z</time></trkpt>
<trkpt lat="42.271882" lon="3.221075"><ele>472.4</ele><time>2011-03-22T10:48:41Z</time></trkpt>
<trkpt lat="42.271805" lon="3.221202"><ele>472.5</ele><time>2011-03-22T10:48:46Z</time></trkpt>
<trkpt lat="42.271740" lon="3.221327"><ele>472.7</ele><time>2011-03-22T10:48:51Z</time></trkpt>
<trkpt lat="42.271687" lon="3.221495"><ele>471.8</ele><time>2011-03-22T10:48:56Z</time></trkpt>
<trkpt lat="42.271577" lon="3.221727"><ele>469.6</ele><time>2011-03-22T10:49:01Z</time></trkpt>
<trkpt lat="42.271583" lon="3.222015"><ele>465.5</ele><time>2011-03-22T10:49:06Z</time></trkpt>
<trkpt lat="42.271598" lon="3.222340"><ele>461.3</ele><time>2011-03-22T10:49:11Z</time></trkpt>
<trkpt lat="42.271507" lon="3.222672"><ele>458.6</ele><time>2011-03-22T10:49:16Z</time></trkpt>
<trkpt lat="42.271533" lon="3.223035"><ele>456.2</ele><time>2011-03-22T10:49:21Z</time></trkpt>
<trkpt lat="42.271572" lon="3.223378"><ele>454.6</ele><time>2011-03-22T10:49:26Z</time></trkpt>
<trkpt lat="42.271740" lon="3.223372"><ele>453.1</ele><time>2011-03-22T10:49:31Z</time></trkpt>
<trkpt lat="42.271862" lon="3.223223"><ele>449.9</ele><time>2011-03-22T10:49:36Z</time></trkpt>
<trkpt lat="42.271930" lon="3.223308"><ele>448.2</ele><time>2011-03-22T10:49:41Z</time></trkpt>
<trkpt lat="42.271968" lon="3.223577"><ele>446.6</ele><time>2011-03-22T10:49:46Z</time></trkpt>
<trkpt lat="42.271953" lon="3.223957"><ele>444.2</ele><time>2011-03-22T10:49:51Z</time></trkpt>
<trkpt lat="42.271893" lon="3.224437"><ele>440.3</ele><time>2011-03-22T10:49:56Z</time></trkpt>
<trkpt lat="42.271873" lon="3.225000"><ele>436.6</ele><time>2011-03-22T10:50:01Z</time></trkpt>
<trkpt lat="42.272140" lon="3.225438"><ele>433</ele><time>2011-03-22T10:50:06Z</time></trkpt>
<trkpt lat="42.272545" lon="3.225703"><ele>428.9</ele><time>2011-03-22T10:50:11Z</time></trkpt>
<trkpt lat="42.272972" lon="3.225938"><ele>425.1</ele><time>2011-03-22T10:50:16Z</time></trkpt>
<trkpt lat="42.273362" lon="3.226182"><ele>421.8</ele><time>2011-03-22T10:50:21Z</time></trkpt>
<trkpt lat="42.273717" lon="3.226450"><ele>418.5</ele><time>2011-03-22T10:50:26Z</time></trkpt>
<trkpt lat="42.274067" lon="3.226700"><ele>415.2</ele><time>2011-03-22T10:50:31Z</time></trkpt>
<trkpt lat="42.274398" lon="3.226962"><ele>412.6</ele><time>2011-03-22T10:50:36Z</time></trkpt>
<trkpt lat="42.274543" lon="3.227267"><ele>411.8</ele><time>2011-03-22T10:50:41Z</time></trkpt>
<trkpt lat="42.274563" lon="3.227483"><ele>413</ele><time>2011-03-22T10:50:46Z</time></trkpt>
<trkpt lat="42.274567" lon="3.227617"><ele>414.5</ele><time>2011-03-22T10:50:51Z</time></trkpt>
<trkpt lat="42.274575" lon="3.227697"><ele>415.7</ele><time>2011-03-22T10:50:56Z</time></trkpt>
<trkpt lat="42.274567" lon="3.227818"><ele>416.8</ele><time>2011-03-22T10:51:01Z</time></trkpt>
<trkpt lat="42.274567" lon="3.227972"><ele>418</ele><time>2011-03-22T10:51:06Z</time></trkpt>
<trkpt lat="42.274543" lon="3.228120"><ele>419.2</ele><time>2011-03-22T10:51:11Z</time></trkpt>
<trkpt lat="42.274532" lon="3.228262"><ele>420.1</ele><time>2011-03-22T10:51:16Z</time></trkpt>
<trkpt lat="42.274510" lon="3.228405"><ele>420.9</ele><time>2011-03-22T10:51:21Z</time></trkpt>
<trkpt lat="42.274483" lon="3.228547"><ele>421.7</ele><time>2011-03-22T10:51:26Z</time></trkpt>
<trkpt lat="42.274448" lon="3.228692"><ele>422.6</ele><time>2011-03-22T10:51:31Z</time></trkpt>
<trkpt lat="42.274413" lon="3.228838"><ele>423.4</ele><time>2011-03-22T10:51:36Z</time></trkpt>
<trkpt lat="42.274372" lon="3.228995"><ele>423.7</ele><time>2011-03-22T10:51:41Z</time></trkpt>
<trkpt lat="42.274323" lon="3.229207"><ele>423.2</ele><time>2011-03-22T10:51:46Z</time></trkpt>
<trkpt lat="42.274220" lon="3.229440"><ele>421.6</ele><time>2011-03-22T10:51:51Z</time></trkpt>
<trkpt lat="42.274028" lon="3.229715"><ele>418</ele><time>2011-03-22T10:51:56Z</time></trkpt>
<trkpt lat="42.273773" lon="3.229872"><ele>413.7</ele><time>2011-03-22T10:52:01Z</time></trkpt>
<trkpt lat="42.273513" lon="3.229923"><ele>408.1</ele><time>2011-03-22T10:52:06Z</time></trkpt>
<trkpt lat="42.273232" lon="3.229970"><ele>401.2</ele><time>2011-03-22T10:52:11Z</time></trkpt>
<trkpt lat="42.272977" lon="3.229990"><ele>394.9</ele><time>2011-03-22T10:52:16Z</time></trkpt>
<trkpt lat="42.272808" lon="3.229992"><ele>391.1</ele><time>2011-03-22T10:52:21Z</time></trkpt>
<trkpt lat="42.272660" lon="3.230023"><ele>388</ele><time>2011-03-22T10:52:26Z</time></trkpt>
<trkpt lat="42.272498" lon="3.230042"><ele>385.6</ele><time>2011-03-22T10:52:31Z</time></trkpt>
<trkpt lat="42.272350" lon="3.230012"><ele>383.3</ele><time>2011-03-22T10:52:36Z</time></trkpt>
<trkpt lat="42.272252" lon="3.230017"><ele>381.1</ele><time>2011-03-22T10:52:41Z</time></trkpt>
<trkpt lat="42.272110" lon="3.230007"><ele>377.4</ele><time>2011-03-22T10:52:46Z</time></trkpt>
<trkpt lat="42.271962" lon="3.229853"><ele>374.3</ele><time>2011-03-22T10:52:51Z</time></trkpt>
<trkpt lat="42.271850" lon="3.229707"><ele>373.5</ele><time>2011-03-22T10:52:56Z</time></trkpt>
<trkpt lat="42.271778" lon="3.229628"><ele>373.1</ele><time>2011-03-22T10:53:01Z</time></trkpt>
<trkpt lat="42.271690" lon="3.229533"><ele>372.6</ele><time>2011-03-22T10:53:06Z</time></trkpt>
<trkpt lat="42.271583" lon="3.229448"><ele>372.8</ele><time>2011-03-22T10:53:11Z</time></trkpt>
<trkpt lat="42.271438" lon="3.229372"><ele>373.6</ele><time>2011-03-22T10:53:16Z</time></trkpt>
<trkpt lat="42.271282" lon="3.229323"><ele>374.6</ele><time>2011-03-22T10:53:21Z</time></trkpt>
<trkpt lat="42.271080" lon="3.229408"><ele>373.3</ele><time>2011-03-22T10:53:26Z</time></trkpt>
<trkpt lat="42.270772" lon="3.229550"><ele>370.4</ele><time>2011-03-22T10:53:31Z</time></trkpt>
<trkpt lat="42.270443" lon="3.229560"><ele>370</ele><time>2011-03-22T10:53:36Z</time></trkpt>
<trkpt lat="42.270183" lon="3.229588"><ele>370.1</ele><time>2011-03-22T10:53:41Z</time></trkpt>
<trkpt lat="42.269970" lon="3.229628"><ele>369.9</ele><time>2011-03-22T10:53:46Z</time></trkpt>
<trkpt lat="42.269657" lon="3.229767"><ele>365.2</ele><time>2011-03-22T10:53:51Z</time></trkpt>
<trkpt lat="42.269218" lon="3.229975"><ele>356.9</ele><time>2011-03-22T10:53:56Z</time></trkpt>
<trkpt lat="42.268723" lon="3.230142"><ele>350.3</ele><time>2011-03-22T10:54:01Z</time></trkpt>
<trkpt lat="42.268262" lon="3.230385"><ele>344.8</ele><time>2011-03-22T10:54:06Z</time></trkpt>
<trkpt lat="42.267795" lon="3.230628"><ele>340.5</ele><time>2011-03-22T10:54:11Z</time></trkpt>
<trkpt lat="42.267268" lon="3.230708"><ele>334.5</ele><time>2011-03-22T10:54:16Z</time></trkpt>
<trkpt lat="42.266777" lon="3.230825"><ele>330.5</ele><time>2011-03-22T10:54:21Z</time></trkpt>
<trkpt lat="42.266308" lon="3.230998"><ele>324.9</ele><time>2011-03-22T10:54:26Z</time></trkpt>
<trkpt lat="42.265938" lon="3.231090"><ele>318.5</ele><time>2011-03-22T10:54:31Z</time></trkpt>
<trkpt lat="42.265590" lon="3.230732"><ele>312.6</ele><time>2011-03-22T10:54:36Z</time></trkpt>
<trkpt lat="42.265190" lon="3.230372"><ele>308.6</ele><time>2011-03-22T10:54:41Z</time></trkpt>
<trkpt lat="42.264758" lon="3.230145"><ele>305</ele><time>2011-03-22T10:54:46Z</time></trkpt>
<trkpt lat="42.264352" lon="3.229953"><ele>303.8</ele><time>2011-03-22T10:54:51Z</time></trkpt>
<trkpt lat="42.264057" lon="3.229798"><ele>304.3</ele><time>2011-03-22T10:54:56Z</time></trkpt>
<trkpt lat="42.263752" lon="3.229682"><ele>301.1</ele><time>2011-03-22T10:55:01Z</time></trkpt>
<trkpt lat="42.263313" lon="3.229653"><ele>296.8</ele><time>2011-03-22T10:55:06Z</time></trkpt>
<trkpt lat="42.262843" lon="3.229605"><ele>292</ele><time>2011-03-22T10:55:11Z</time></trkpt>
<trkpt lat="42.262310" lon="3.229625"><ele>285.1</ele><time>2011-03-22T10:55:16Z</time></trkpt>
<trkpt lat="42.261875" lon="3.229733"><ele>284.8</ele><time>2011-03-22T10:55:21Z</time></trkpt>
<trkpt lat="42.261520" lon="3.229895"><ele>282.1</ele><time>2011-03-22T10:55:26Z</time></trkpt>
<trkpt lat="42.261097" lon="3.230157"><ele>278.2</ele><time>2011-03-22T10:55:31Z</time></trkpt>
<trkpt lat="42.260792" lon="3.230440"><ele>278.5</ele><time>2011-03-22T10:55:36Z</time></trkpt>
<trkpt lat="42.260528" lon="3.230642"><ele>277</ele><time>2011-03-22T10:55:41Z</time></trkpt>
<trkpt lat="42.260223" lon="3.230852"><ele>274.3</ele><time>2011-03-22T10:55:46Z</time></trkpt>
<trkpt lat="42.259880" lon="3.231135"><ele>269.8</ele><time>2011-03-22T10:55:51Z</time></trkpt>
<trkpt lat="42.259388" lon="3.231368"><ele>261.6</ele><time>2011-03-22T10:55:56Z</time></trkpt>
<trkpt lat="42.258903" lon="3.231553"><ele>258.2</ele><time>2011-03-22T10:56:01Z</time></trkpt>
<trkpt lat="42.258462" lon="3.231455"><ele>254.3</ele><time>2011-03-22T10:56:06Z</time></trkpt>
<trkpt lat="42.257968" lon="3.231380"><ele>249.6</ele><time>2011-03-22T10:56:11Z</time></trkpt>
<trkpt lat="42.257618" lon="3.231550"><ele>248.5</ele><time>2011-03-22T10:56:16Z</time></trkpt>
<trkpt lat="42.257447" lon="3.231917"><ele>244.9</ele><time>2011-03-22T10:56:21Z</time></trkpt>
<trkpt lat="42.257355" lon="3.232303"><ele>238.6</ele><time>2011-03-22T10:56:26Z</time></trkpt>
<trkpt lat="42.257202" lon="3.232732"><ele>230.6</ele><time>2011-03-22T10:56:31Z</time></trkpt>
<trkpt lat="42.257157" lon="3.233233"><ele>223.7</ele><time>2011-03-22T10:56:36Z</time></trkpt>
<trkpt lat="42.257225" lon="3.233805"><ele>214.6</ele><time>2011-03-22T10:56:41Z</time></trkpt>
<trkpt lat="42.257145" lon="3.234462"><ele>208.5</ele><time>2011-03-22T10:56:46Z</time></trkpt>
<trkpt lat="42.257080" lon="3.235035"><ele>202.9</ele><time>2011-03-22T10:56:51Z</time></trkpt>
<trkpt lat="42.256997" lon="3.235660"><ele>196.3</ele><time>2011-03-22T10:56:56Z</time></trkpt>
<trkpt lat="42.256867" lon="3.236260"><ele>192.5</ele><time>2011-03-22T10:57:01Z</time></trkpt>
<trkpt lat="42.256702" lon="3.236813"><ele>186.4</ele><time>2011-03-22T10:57:06Z</time></trkpt>
<trkpt lat="42.256612" lon="3.237490"><ele>179.5</ele><time>2011-03-22T10:57:11Z</time></trkpt>
<trkpt lat="42.256390" lon="3.238035"><ele>177.7</ele><time>2011-03-22T10:57:16Z</time></trkpt>
<trkpt lat="42.256230" lon="3.238383"><ele>178.1</ele><time>2011-03-22T10:57:21Z</time></trkpt>
<trkpt lat="42.256107" lon="3.238672"><ele>177.2</ele><time>2011-03-22T10:57:26Z</time></trkpt>
<trkpt lat="42.255973" lon="3.238957"><ele>176.3</ele><time>2011-03-22T10:57:31Z</time></trkpt>
<trkpt lat="42.255817" lon="3.239258"><ele>175.3</ele><time>2011-03-22T10:57:36Z</time></trkpt>
<trkpt lat="42.255645" lon="3.239562"><ele>173.7</ele><time>2011-03-22T10:57:41Z</time></trkpt>
<trkpt lat="42.255432" lon="3.239888"><ele>169.4</ele><time>2011-03-22T10:57:46Z</time></trkpt>
<trkpt lat="42.255302" lon="3.240398"><ele>164.5</ele><time>2011-03-22T10:57:51Z</time></trkpt>
<trkpt lat="42.255337" lon="3.240878"><ele>163.6</ele><time>2011-03-22T10:57:56Z</time></trkpt>
<trkpt lat="42.255333" lon="3.241243"><ele>164.2</ele><time>2011-03-22T10:58:01Z</time></trkpt>
<trkpt lat="42.255398" lon="3.241567"><ele>163.4</ele><time>2011-03-22T10:58:06Z</time></trkpt>
<trkpt lat="42.255517" lon="3.241982"><ele>159.9</ele><time>2011-03-22T10:58:11Z</time></trkpt>
<trkpt lat="42.255710" lon="3.242430"><ele>156.5</ele><time>2011-03-22T10:58:16Z</time></trkpt>
<trkpt lat="42.255807" lon="3.242935"><ele>150.6</ele><time>2011-03-22T10:58:21Z</time></trkpt>
<trkpt lat="42.255662" lon="3.243462"><ele>143</ele><time>2011-03-22T10:58:26Z</time></trkpt>
<trkpt lat="42.255657" lon="3.244050"><ele>134.9</ele><time>2011-03-22T10:58:31Z</time></trkpt>
<trkpt lat="42.255543" lon="3.244438"><ele>130.8</ele><time>2011-03-22T10:58:36Z</time></trkpt>
<trkpt lat="42.255180" lon="3.244750"><ele>126.6</ele><time>2011-03-22T10:58:41Z</time></trkpt>
<trkpt lat="42.254857" lon="3.245118"><ele>123.6</ele><time>2011-03-22T10:58:46Z</time></trkpt>
<trkpt lat="42.254632" lon="3.245545"><ele>121.5</ele><time>2011-03-22T10:58:51Z</time></trkpt>
<trkpt lat="42.254482" lon="3.245975"><ele>119.5</ele><time>2011-03-22T10:58:56Z</time></trkpt>
<trkpt lat="42.254353" lon="3.246355"><ele>119</ele><time>2011-03-22T10:59:01Z</time></trkpt>
<trkpt lat="42.254288" lon="3.246758"><ele>117.6</ele><time>2011-03-22T10:59:06Z</time></trkpt>
<trkpt lat="42.254272" lon="3.247252"><ele>115.4</ele><time>2011-03-22T10:59:11Z</time></trkpt>
<trkpt lat="42.254120" lon="3.247667"><ele>113.9</ele><time>2011-03-22T10:59:16Z</time></trkpt>
<trkpt lat="42.253990" lon="3.248055"><ele>112.7</ele><time>2011-03-22T10:59:21Z</time></trkpt>
<trkpt lat="42.253987" lon="3.248507"><ele>109.3</ele><time>2011-03-22T10:59:26Z</time></trkpt>
<trkpt lat="42.253963" lon="3.248903"><ele>105.8</ele><time>2011-03-22T10:59:31Z</time></trkpt>
<trkpt lat="42.253838" lon="3.248935"><ele>104</ele><time>2011-03-22T10:59:36Z</time></trkpt>
<trkpt lat="42.253757" lon="3.248857"><ele>102.2</ele><time>2011-03-22T10:59:41Z</time></trkpt>
<trkpt lat="42.253655" lon="3.248958"><ele>102.5</ele><time>2011-03-22T10:59:46Z</time></trkpt>
<trkpt lat="42.253623" lon="3.249075"><ele>103.8</ele><time>2011-03-22T10:59:51Z</time></trkpt>
<trkpt lat="42.253640" lon="3.249230"><ele>104.7</ele><time>2011-03-22T10:59:56Z</time></trkpt>
<trkpt lat="42.253703" lon="3.249253"><ele>104.4</ele><time>2011-03-22T11:00:01Z</time></trkpt>
<trkpt lat="42.253703" lon="3.249253"><ele>104.2</ele><time>2011-03-22T11:00:06Z</time></trkpt>
<trkpt lat="42.253703" lon="3.249255"><ele>104</ele><time>2011-03-22T11:00:11Z</time></trkpt>
<trkpt lat="42.253703" lon="3.249253"><ele>103.8</ele><time>2011-03-22T11:00:16Z</time></trkpt>
<trkpt lat="42.253703" lon="3.249257"><ele>103.7</ele><time>2011-03-22T11:00:21Z</time></trkpt>
<trkpt lat="42.253703" lon="3.249257"><ele>103.5</ele><time>2011-03-22T11:00:26Z</time></trkpt>
<trkpt lat="42.253703" lon="3.249257"><ele>103.4</ele><time>2011-03-22T11:00:31Z</time></trkpt>
<trkpt lat="42.253708" lon="3.249252"><ele>103.3</ele><time>2011-03-22T11:00:36Z</time></trkpt>
<trkpt lat="42.253750" lon="3.249158"><ele>102.4</ele><time>2011-03-22T11:00:41Z</time></trkpt>
<trkpt lat="42.253727" lon="3.248983"><ele>100.9</ele><time>2011-03-22T11:00:46Z</time></trkpt>
<trkpt lat="42.253742" lon="3.248878"><ele>99.6</ele><time>2011-03-22T11:00:51Z</time></trkpt>
<trkpt lat="42.253822" lon="3.248955"><ele>99.9</ele><time>2011-03-22T11:00:56Z</time></trkpt>
<trkpt lat="42.253898" lon="3.249073"><ele>100.4</ele><time>2011-03-22T11:01:01Z</time></trkpt>
<trkpt lat="42.253998" lon="3.249220"><ele>100</ele><time>2011-03-22T11:01:06Z</time></trkpt>
<trkpt lat="42.254132" lon="3.249398"><ele>98.7</ele><time>2011-03-22T11:01:11Z</time></trkpt>
<trkpt lat="42.254383" lon="3.249502"><ele>96.5</ele><time>2011-03-22T11:01:16Z</time></trkpt>
<trkpt lat="42.254535" lon="3.249490"><ele>95.5</ele><time>2011-03-22T11:01:21Z</time></trkpt>
<trkpt lat="42.254535" lon="3.249485"><ele>95.3</ele><time>2011-03-22T11:01:26Z</time></trkpt>
<trkpt lat="42.254535" lon="3.249487"><ele>95.2</ele><time>2011-03-22T11:01:31Z</time></trkpt>
<trkpt lat="42.254582" lon="3.249475"><ele>94.8</ele><time>2011-03-22T11:01:36Z</time></trkpt>
<trkpt lat="42.254768" lon="3.249418"><ele>93.4</ele><time>2011-03-22T11:01:41Z</time></trkpt>
<trkpt lat="42.255035" lon="3.249302"><ele>91.3</ele><time>2011-03-22T11:01:46Z</time></trkpt>
<trkpt lat="42.255313" lon="3.249062"><ele>88.8</ele><time>2011-03-22T11:01:51Z</time></trkpt>
<trkpt lat="42.255630" lon="3.248757"><ele>85.5</ele><time>2011-03-22T11:01:56Z</time></trkpt>
<trkpt lat="42.256000" lon="3.248573"><ele>82.6</ele><time>2011-03-22T11:02:01Z</time></trkpt>
<trkpt lat="42.256310" lon="3.248552"><ele>80</ele><time>2011-03-22T11:02:06Z</time></trkpt>
<trkpt lat="42.256477" lon="3.248915"><ele>77.8</ele><time>2011-03-22T11:02:11Z</time></trkpt>
<trkpt lat="42.256680" lon="3.249215"><ele>75.1</ele><time>2011-03-22T11:02:16Z</time></trkpt>
<trkpt lat="42.256982" lon="3.249228"><ele>73</ele><time>2011-03-22T11:02:21Z</time></trkpt>
<trkpt lat="42.257267" lon="3.248898"><ele>70.2</ele><time>2011-03-22T11:02:26Z</time></trkpt>
<trkpt lat="42.257577" lon="3.248488"><ele>67.1</ele><time>2011-03-22T11:02:31Z</time></trkpt>
<trkpt lat="42.257862" lon="3.248130"><ele>66.4</ele><time>2011-03-22T11:02:36Z</time></trkpt>
<trkpt lat="42.258145" lon="3.247817"><ele>64.2</ele><time>2011-03-22T11:02:41Z</time></trkpt>
<trkpt lat="42.258542" lon="3.247672"><ele>61.1</ele><time>2011-03-22T11:02:46Z</time></trkpt>
<trkpt lat="42.258965" lon="3.247612"><ele>57.3</ele><time>2011-03-22T11:02:51Z</time></trkpt>
<trkpt lat="42.259220" lon="3.247310"><ele>55</ele><time>2011-03-22T11:02:56Z</time></trkpt>
<trkpt lat="42.259182" lon="3.246765"><ele>51.8</ele><time>2011-03-22T11:03:01Z</time></trkpt>
<trkpt lat="42.259113" lon="3.246197"><ele>48.8</ele><time>2011-03-22T11:03:06Z</time></trkpt>
<trkpt lat="42.258938" lon="3.245742"><ele>46.1</ele><time>2011-03-22T11:03:11Z</time></trkpt>
<trkpt lat="42.258992" lon="3.245412"><ele>44.6</ele><time>2011-03-22T11:03:16Z</time></trkpt>
<trkpt lat="42.259273" lon="3.245522"><ele>43.6</ele><time>2011-03-22T11:03:21Z</time></trkpt>
<trkpt lat="42.259563" lon="3.245533"><ele>42.9</ele><time>2011-03-22T11:03:26Z</time></trkpt>
<trkpt lat="42.259812" lon="3.245305"><ele>41.7</ele><time>2011-03-22T11:03:31Z</time></trkpt>
<trkpt lat="42.260017" lon="3.244995"><ele>40.9</ele><time>2011-03-22T11:03:36Z</time></trkpt>
<trkpt lat="42.260188" lon="3.244712"><ele>39.5</ele><time>2011-03-22T11:03:41Z</time></trkpt>
<trkpt lat="42.260330" lon="3.244858"><ele>38.4</ele><time>2011-03-22T11:03:46Z</time></trkpt>
<trkpt lat="42.260193" lon="3.245157"><ele>37.1</ele><time>2011-03-22T11:03:51Z</time></trkpt>
<trkpt lat="42.259963" lon="3.245423"><ele>35.6</ele><time>2011-03-22T11:03:56Z</time></trkpt>
<trkpt lat="42.259770" lon="3.245683"><ele>34.2</ele><time>2011-03-22T11:04:01Z</time></trkpt>
<trkpt lat="42.259782" lon="3.246062"><ele>33.5</ele><time>2011-03-22T11:04:06Z</time></trkpt>
<trkpt lat="42.259872" lon="3.246325"><ele>34.2</ele><time>2011-03-22T11:04:11Z</time></trkpt>
<trkpt lat="42.259945" lon="3.246512"><ele>35.8</ele><time>2011-03-22T11:04:16Z</time></trkpt>
<trkpt lat="42.260063" lon="3.246637"><ele>37.2</ele><time>2011-03-22T11:04:21Z</time></trkpt>
<trkpt lat="42.260215" lon="3.246665"><ele>38.3</ele><time>2011-03-22T11:04:26Z</time></trkpt>
<trkpt lat="42.260268" lon="3.246660"><ele>38.5</ele><time>2011-03-22T11:04:31Z</time></trkpt>
<trkpt lat="42.260268" lon="3.246660"><ele>38.5</ele><time>2011-03-22T11:04:36Z</time></trkpt>
<trkpt lat="42.260265" lon="3.246658"><ele>38.5</ele><time>2011-03-22T11:04:41Z</time></trkpt>
<trkpt lat="42.260265" lon="3.246655"><ele>38.3</ele><time>2011-03-22T11:04:46Z</time></trkpt>
<trkpt lat="42.260268" lon="3.246658"><ele>38.5</ele><time>2011-03-22T11:04:51Z</time></trkpt>
<trkpt lat="42.260253" lon="3.246657"><ele>38.4</ele><time>2011-03-22T11:04:56Z</time></trkpt>
<trkpt lat="42.260262" lon="3.246660"><ele>38.2</ele><time>2011-03-22T11:05:01Z</time></trkpt>
<trkpt lat="42.260262" lon="3.246660"><ele>38.1</ele><time>2011-03-22T11:05:06Z</time></trkpt>
<trkpt lat="42.260265" lon="3.246662"><ele>38</ele><time>2011-03-22T11:05:11Z</time></trkpt>
<trkpt lat="42.260277" lon="3.246663"><ele>38.5</ele><time>2011-03-22T11:05:16Z</time></trkpt>
<trkpt lat="42.260288" lon="3.246668"><ele>39.6</ele><time>2011-03-22T11:05:21Z</time></trkpt>
<trkpt lat="42.260318" lon="3.246690"><ele>40.8</ele><time>2011-03-22T11:05:26Z</time></trkpt>
<trkpt lat="42.260323" lon="3.246690"><ele>40.2</ele><time>2011-03-22T11:05:31Z</time></trkpt>
<trkpt lat="42.260323" lon="3.246690"><ele>39.7</ele><time>2011-03-22T11:05:36Z</time></trkpt>
<trkpt lat="42.260318" lon="3.246690"><ele>39.5</ele><time>2011-03-22T11:05:41Z</time></trkpt>
<trkpt lat="42.260318" lon="3.246690"><ele>39.5</ele><time>2011-03-22T11:05:46Z</time></trkpt>
<trkpt lat="42.260345" lon="3.246702"><ele>39.2</ele><time>2011-03-22T11:05:51Z</time></trkpt>
<trkpt lat="42.260437" lon="3.246757"><ele>39.7</ele><time>2011-03-22T11:05:56Z</time></trkpt>
<trkpt lat="42.260537" lon="3.246805"><ele>40.3</ele><time>2011-03-22T11:06:01Z</time></trkpt>
<trkpt lat="42.260620" lon="3.246840"><ele>41</ele><time>2011-03-22T11:06:06Z</time></trkpt>
<trkpt lat="42.260712" lon="3.246882"><ele>41.6</ele><time>2011-03-22T11:06:11Z</time></trkpt>
<trkpt lat="42.260800" lon="3.246937"><ele>42.5</ele><time>2011-03-22T11:06:16Z</time></trkpt>
<trkpt lat="42.260868" lon="3.247028"><ele>43.3</ele><time>2011-03-22T11:06:21Z</time></trkpt>
<trkpt lat="42.260910" lon="3.247150"><ele>44</ele><time>2011-03-22T11:06:26Z</time></trkpt>
<trkpt lat="42.260940" lon="3.247282"><ele>44.8</ele><time>2011-03-22T11:06:31Z</time></trkpt>
<trkpt lat="42.260963" lon="3.247413"><ele>45.5</ele><time>2011-03-22T11:06:36Z</time></trkpt>
<trkpt lat="42.261005" lon="3.247542"><ele>46.5</ele><time>2011-03-22T11:06:41Z</time></trkpt>
<trkpt lat="42.261058" lon="3.247660"><ele>47.5</ele><time>2011-03-22T11:06:46Z</time></trkpt>
<trkpt lat="42.261112" lon="3.247772"><ele>48.6</ele><time>2011-03-22T11:06:51Z</time></trkpt>
<trkpt lat="42.261165" lon="3.247885"><ele>49.5</ele><time>2011-03-22T11:06:56Z</time></trkpt>
<trkpt lat="42.261230" lon="3.247977"><ele>50.5</ele><time>2011-03-22T11:07:01Z</time></trkpt>
<trkpt lat="42.261257" lon="3.248093"><ele>51.3</ele><time>2011-03-22T11:07:06Z</time></trkpt>
<trkpt lat="42.261227" lon="3.248217"><ele>51.8</ele><time>2011-03-22T11:07:11Z</time></trkpt>
<trkpt lat="42.261158" lon="3.248302"><ele>52.6</ele><time>2011-03-22T11:07:16Z</time></trkpt>
<trkpt lat="42.261067" lon="3.248348"><ele>53.6</ele><time>2011-03-22T11:07:21Z</time></trkpt>
<trkpt lat="42.260975" lon="3.248408"><ele>54.5</ele><time>2011-03-22T11:07:26Z</time></trkpt>
<trkpt lat="42.260892" lon="3.248480"><ele>55.2</ele><time>2011-03-22T11:07:31Z</time></trkpt>
<trkpt lat="42.260812" lon="3.248563"><ele>56.1</ele><time>2011-03-22T11:07:36Z</time></trkpt>
<trkpt lat="42.260735" lon="3.248660"><ele>56.6</ele><time>2011-03-22T11:07:41Z</time></trkpt>
<trkpt lat="42.260640" lon="3.248765"><ele>57.4</ele><time>2011-03-22T11:07:46Z</time></trkpt>
<trkpt lat="42.260548" lon="3.248838"><ele>58.2</ele><time>2011-03-22T11:07:51Z</time></trkpt>
<trkpt lat="42.260460" lon="3.248893"><ele>59</ele><time>2011-03-22T11:07:56Z</time></trkpt>
<trkpt lat="42.260377" lon="3.248940"><ele>59.9</ele><time>2011-03-22T11:08:01Z</time></trkpt>
<trkpt lat="42.260288" lon="3.248997"><ele>60.9</ele><time>2011-03-22T11:08:06Z</time></trkpt>
<trkpt lat="42.260215" lon="3.249067"><ele>62.2</ele><time>2011-03-22T11:08:11Z</time></trkpt>
<trkpt lat="42.260132" lon="3.249145"><ele>62.9</ele><time>2011-03-22T11:08:16Z</time></trkpt>
<trkpt lat="42.260078" lon="3.249237"><ele>63.7</ele><time>2011-03-22T11:08:21Z</time></trkpt>
<trkpt lat="42.260093" lon="3.249342"><ele>64.7</ele><time>2011-03-22T11:08:26Z</time></trkpt>
<trkpt lat="42.260182" lon="3.249330"><ele>65.2</ele><time>2011-03-22T11:08:31Z</time></trkpt>
<trkpt lat="42.260247" lon="3.249238"><ele>65.8</ele><time>2011-03-22T11:08:36Z</time></trkpt>
<trkpt lat="42.260327" lon="3.249170"><ele>66.5</ele><time>2011-03-22T11:08:41Z</time></trkpt>
<trkpt lat="42.260418" lon="3.249123"><ele>67.1</ele><time>2011-03-22T11:08:46Z</time></trkpt>
<trkpt lat="42.260510" lon="3.249103"><ele>67.4</ele><time>2011-03-22T11:08:51Z</time></trkpt>
<trkpt lat="42.260605" lon="3.249073"><ele>67.9</ele><time>2011-03-22T11:08:56Z</time></trkpt>
<trkpt lat="42.260693" lon="3.249030"><ele>68.6</ele><time>2011-03-22T11:09:01Z</time></trkpt>
<trkpt lat="42.260777" lon="3.248965"><ele>69.3</ele><time>2011-03-22T11:09:06Z</time></trkpt>
<trkpt lat="42.260853" lon="3.248890"><ele>69.8</ele><time>2011-03-22T11:09:11Z</time></trkpt>
<trkpt lat="42.260928" lon="3.248825"><ele>70.6</ele><time>2011-03-22T11:09:16Z</time></trkpt>
<trkpt lat="42.261005" lon="3.248765"><ele>71.5</ele><time>2011-03-22T11:09:21Z</time></trkpt>
<trkpt lat="42.261090" lon="3.248722"><ele>72.4</ele><time>2011-03-22T11:09:26Z</time></trkpt>
<trkpt lat="42.261173" lon="3.248705"><ele>73.1</ele><time>2011-03-22T11:09:31Z</time></trkpt>
<trkpt lat="42.261265" lon="3.248682"><ele>73.7</ele><time>2011-03-22T11:09:36Z</time></trkpt>
<trkpt lat="42.261357" lon="3.248650"><ele>74.3</ele><time>2011-03-22T11:09:41Z</time></trkpt>
<trkpt lat="42.261443" lon="3.248617"><ele>74.9</ele><time>2011-03-22T11:09:46Z</time></trkpt>
<trkpt lat="42.261532" lon="3.248587"><ele>75.6</ele><time>2011-03-22T11:09:51Z</time></trkpt>
<trkpt lat="42.261627" lon="3.248575"><ele>76.1</ele><time>2011-03-22T11:09:56Z</time></trkpt>
<trkpt lat="42.261723" lon="3.248573"><ele>76.5</ele><time>2011-03-22T11:10:01Z</time></trkpt>
<trkpt lat="42.261818" lon="3.248547"><ele>76.9</ele><time>2011-03-22T11:10:06Z</time></trkpt>
<trkpt lat="42.261895" lon="3.248477"><ele>77.5</ele><time>2011-03-22T11:10:11Z</time></trkpt>
<trkpt lat="42.261943" lon="3.248368"><ele>78.2</ele><time>2011-03-22T11:10:16Z</time></trkpt>
<trkpt lat="42.261937" lon="3.248240"><ele>78.9</ele><time>2011-03-22T11:10:21Z</time></trkpt>
<trkpt lat="42.261887" lon="3.248128"><ele>79.4</ele><time>2011-03-22T11:10:26Z</time></trkpt>
<trkpt lat="42.261845" lon="3.248017"><ele>79.8</ele><time>2011-03-22T11:10:31Z</time></trkpt>
<trkpt lat="42.261783" lon="3.247918"><ele>80.5</ele><time>2011-03-22T11:10:36Z</time></trkpt>
<trkpt lat="42.261742" lon="3.247810"><ele>81.2</ele><time>2011-03-22T11:10:41Z</time></trkpt>
<trkpt lat="42.261707" lon="3.247695"><ele>81.8</ele><time>2011-03-22T11:10:46Z</time></trkpt>
<trkpt lat="42.261688" lon="3.247580"><ele>82.6</ele><time>2011-03-22T11:10:51Z</time></trkpt>
<trkpt lat="42.261677" lon="3.247475"><ele>83.4</ele><time>2011-03-22T11:10:56Z</time></trkpt>
<trkpt lat="42.261677" lon="3.247350"><ele>84.1</ele><time>2011-03-22T11:11:01Z</time></trkpt>
<trkpt lat="42.261680" lon="3.247235"><ele>84.9</ele><time>2011-03-22T11:11:06Z</time></trkpt>
<trkpt lat="42.261688" lon="3.247120"><ele>85.7</ele><time>2011-03-22T11:11:11Z</time></trkpt>
<trkpt lat="42.261688" lon="3.247008"><ele>86.7</ele><time>2011-03-22T11:11:16Z</time></trkpt>
<trkpt lat="42.261673" lon="3.246897"><ele>87.5</ele><time>2011-03-22T11:11:21Z</time></trkpt>
<trkpt lat="42.261662" lon="3.246778"><ele>88.2</ele><time>2011-03-22T11:11:26Z</time></trkpt>
<trkpt lat="42.261665" lon="3.246658"><ele>88.9</ele><time>2011-03-22T11:11:31Z</time></trkpt>
<trkpt lat="42.261688" lon="3.246543"><ele>89.8</ele><time>2011-03-22T11:11:36Z</time></trkpt>
<trkpt lat="42.261712" lon="3.246430"><ele>90.7</ele><time>2011-03-22T11:11:41Z</time></trkpt>
<trkpt lat="42.261688" lon="3.246312"><ele>91.4</ele><time>2011-03-22T11:11:46Z</time></trkpt>
<trkpt lat="42.261623" lon="3.246222"><ele>91.8</ele><time>2011-03-22T11:11:51Z</time></trkpt>
<trkpt lat="42.261547" lon="3.246162"><ele>92.5</ele><time>2011-03-22T11:11:56Z</time></trkpt>
<trkpt lat="42.261467" lon="3.246102"><ele>93.3</ele><time>2011-03-22T11:12:01Z</time></trkpt>
<trkpt lat="42.261398" lon="3.246040"><ele>94.1</ele><time>2011-03-22T11:12:06Z</time></trkpt>
<trkpt lat="42.261330" lon="3.245950"><ele>94.7</ele><time>2011-03-22T11:12:11Z</time></trkpt>
<trkpt lat="42.261272" lon="3.245858"><ele>95.6</ele><time>2011-03-22T11:12:16Z</time></trkpt>
<trkpt lat="42.261253" lon="3.245742"><ele>96.4</ele><time>2011-03-22T11:12:21Z</time></trkpt>
<trkpt lat="42.261250" lon="3.245618"><ele>97.3</ele><time>2011-03-22T11:12:26Z</time></trkpt>
<trkpt lat="42.261268" lon="3.245502"><ele>98.1</ele><time>2011-03-22T11:12:31Z</time></trkpt>
<trkpt lat="42.261303" lon="3.245392"><ele>99</ele><time>2011-03-22T11:12:36Z</time></trkpt>
<trkpt lat="42.261345" lon="3.245290"><ele>100.1</ele><time>2011-03-22T11:12:41Z</time></trkpt>
<trkpt lat="42.261375" lon="3.245188"><ele>101.3</ele><time>2011-03-22T11:12:46Z</time></trkpt>
<trkpt lat="42.261422" lon="3.245072"><ele>101.9</ele><time>2011-03-22T11:12:51Z</time></trkpt>
<trkpt lat="42.261455" lon="3.244968"><ele>103.1</ele><time>2011-03-22T11:12:56Z</time></trkpt>
<trkpt lat="42.261490" lon="3.244868"><ele>104.2</ele><time>2011-03-22T11:13:01Z</time></trkpt>
<trkpt lat="42.261532" lon="3.244772"><ele>105.1</ele><time>2011-03-22T11:13:06Z</time></trkpt>
<trkpt lat="42.261578" lon="3.244677"><ele>105.9</ele><time>2011-03-22T11:13:11Z</time></trkpt>
<trkpt lat="42.261612" lon="3.244568"><ele>106.8</ele><time>2011-03-22T11:13:16Z</time></trkpt>
<trkpt lat="42.261650" lon="3.244463"><ele>107.6</ele><time>2011-03-22T11:13:21Z</time></trkpt>
<trkpt lat="42.261688" lon="3.244362"><ele>108.5</ele><time>2011-03-22T11:13:26Z</time></trkpt>
<trkpt lat="42.261733" lon="3.244260"><ele>109.3</ele><time>2011-03-22T11:13:31Z</time></trkpt>
<trkpt lat="42.261795" lon="3.244175"><ele>110</ele><time>2011-03-22T11:13:36Z</time></trkpt>
<trkpt lat="42.261868" lon="3.244113"><ele>110.9</ele><time>2011-03-22T11:13:41Z</time></trkpt>
<trkpt lat="42.261952" lon="3.244082"><ele>111.7</ele><time>2011-03-22T11:13:46Z</time></trkpt>
<trkpt lat="42.262032" lon="3.244067"><ele>112.8</ele><time>2011-03-22T11:13:51Z</time></trkpt>
<trkpt lat="42.262108" lon="3.244043"><ele>113.7</ele><time>2011-03-22T11:13:56Z</time></trkpt>
<trkpt lat="42.262188" lon="3.243980"><ele>114.1</ele><time>2011-03-22T11:14:01Z</time></trkpt>
<trkpt lat="42.262265" lon="3.243935"><ele>114.9</ele><time>2011-03-22T11:14:06Z</time></trkpt>
<trkpt lat="42.262333" lon="3.243870"><ele>115.7</ele><time>2011-03-22T11:14:11Z</time></trkpt>
<trkpt lat="42.262405" lon="3.243807"><ele>116.5</ele><time>2011-03-22T11:14:16Z</time></trkpt>
<trkpt lat="42.262490" lon="3.243762"><ele>116.9</ele><time>2011-03-22T11:14:21Z</time></trkpt>
<trkpt lat="42.262570" lon="3.243728"><ele>117.4</ele><time>2011-03-22T11:14:26Z</time></trkpt>
<trkpt lat="42.262653" lon="3.243747"><ele>118.3</ele><time>2011-03-22T11:14:31Z</time></trkpt>
<trkpt lat="42.262695" lon="3.243837"><ele>119.7</ele><time>2011-03-22T11:14:36Z</time></trkpt>
<trkpt lat="42.262645" lon="3.243912"><ele>120.7</ele><time>2011-03-22T11:14:41Z</time></trkpt>
<trkpt lat="42.262562" lon="3.243952"><ele>121.5</ele><time>2011-03-22T11:14:46Z</time></trkpt>
<trkpt lat="42.262485" lon="3.244005"><ele>122.4</ele><time>2011-03-22T11:14:51Z</time></trkpt>
<trkpt lat="42.262413" lon="3.244078"><ele>123.3</ele><time>2011-03-22T11:14:56Z</time></trkpt>
<trkpt lat="42.262363" lon="3.244178"><ele>124.1</ele><time>2011-03-22T11:15:01Z</time></trkpt>
<trkpt lat="42.262325" lon="3.244283"><ele>124.8</ele><time>2011-03-22T11:15:06Z</time></trkpt>
<trkpt lat="42.262253" lon="3.244375"><ele>125.5</ele><time>2011-03-22T11:15:11Z</time></trkpt>
<trkpt lat="42.262183" lon="3.244445"><ele>126.5</ele><time>2011-03-22T11:15:16Z</time></trkpt>
<trkpt lat="42.262123" lon="3.244520"><ele>127.3</ele><time>2011-03-22T11:15:21Z</time></trkpt>
<trkpt lat="42.262070" lon="3.244603"><ele>128.1</ele><time>2011-03-22T11:15:26Z</time></trkpt>
<trkpt lat="42.262023" lon="3.244710"><ele>128.8</ele><time>2011-03-22T11:15:31Z</time></trkpt>
<trkpt lat="42.262002" lon="3.244825"><ele>129.5</ele><time>2011-03-22T11:15:36Z</time></trkpt>
<trkpt lat="42.262002" lon="3.244943"><ele>130.3</ele><time>2011-03-22T11:15:41Z</time></trkpt>
<trkpt lat="42.262017" lon="3.245060"><ele>131.1</ele><time>2011-03-22T11:15:46Z</time></trkpt>
<trkpt lat="42.262058" lon="3.245170"><ele>131.8</ele><time>2011-03-22T11:15:51Z</time></trkpt>
<trkpt lat="42.262112" lon="3.245270"><ele>132.5</ele><time>2011-03-22T11:15:56Z</time></trkpt>
<trkpt lat="42.262168" lon="3.245357"><ele>133.4</ele><time>2011-03-22T11:16:01Z</time></trkpt>
<trkpt lat="42.262238" lon="3.245425"><ele>134</ele><time>2011-03-22T11:16:06Z</time></trkpt>
<trkpt lat="42.262322" lon="3.245488"><ele>134.8</ele><time>2011-03-22T11:16:11Z</time></trkpt>
<trkpt lat="42.262405" lon="3.245530"><ele>135.4</ele><time>2011-03-22T11:16:16Z</time></trkpt>
<trkpt lat="42.262485" lon="3.245567"><ele>135.9</ele><time>2011-03-22T11:16:21Z</time></trkpt>
<trkpt lat="42.262570" lon="3.245612"><ele>136.5</ele><time>2011-03-22T11:16:26Z</time></trkpt>
<trkpt lat="42.262657" lon="3.245653"><ele>137.1</ele><time>2011-03-22T11:16:31Z</time></trkpt>
<trkpt lat="42.262737" lon="3.245707"><ele>137.7</ele><time>2011-03-22T11:16:36Z</time></trkpt>
<trkpt lat="42.262810" lon="3.245773"><ele>138.7</ele><time>2011-03-22T11:16:41Z</time></trkpt>
<trkpt lat="42.262870" lon="3.245860"><ele>139.6</ele><time>2011-03-22T11:16:46Z</time></trkpt>
<trkpt lat="42.262913" lon="3.245963"><ele>140.4</ele><time>2011-03-22T11:16:51Z</time></trkpt>
<trkpt lat="42.262952" lon="3.246073"><ele>141.3</ele><time>2011-03-22T11:16:56Z</time></trkpt>
<trkpt lat="42.262967" lon="3.246187"><ele>142.4</ele><time>2011-03-22T11:17:01Z</time></trkpt>
<trkpt lat="42.262967" lon="3.246317"><ele>143.1</ele><time>2011-03-22T11:17:06Z</time></trkpt>
<trkpt lat="42.262947" lon="3.246428"><ele>144</ele><time>2011-03-22T11:17:11Z</time></trkpt>
<trkpt lat="42.262928" lon="3.246545"><ele>145</ele><time>2011-03-22T11:17:16Z</time></trkpt>
<trkpt lat="42.262908" lon="3.246662"><ele>145.7</ele><time>2011-03-22T11:17:21Z</time></trkpt>
<trkpt lat="42.262908" lon="3.246782"><ele>146.4</ele><time>2011-03-22T11:17:26Z</time></trkpt>
<trkpt lat="42.262935" lon="3.246897"><ele>147</ele><time>2011-03-22T11:17:31Z</time></trkpt>
<trkpt lat="42.262993" lon="3.246990"><ele>147.7</ele><time>2011-03-22T11:17:36Z</time></trkpt>
<trkpt lat="42.263065" lon="3.247053"><ele>148.5</ele><time>2011-03-22T11:17:41Z</time></trkpt>
<trkpt lat="42.263150" lon="3.247100"><ele>149.2</ele><time>2011-03-22T11:17:46Z</time></trkpt>
<trkpt lat="42.263230" lon="3.247148"><ele>150</ele><time>2011-03-22T11:17:51Z</time></trkpt>
<trkpt lat="42.263310" lon="3.247202"><ele>150.8</ele><time>2011-03-22T11:17:56Z</time></trkpt>
<trkpt lat="42.263385" lon="3.247272"><ele>151.3</ele><time>2011-03-22T11:18:01Z</time></trkpt>
<trkpt lat="42.263467" lon="3.247327"><ele>152.2</ele><time>2011-03-22T11:18:06Z</time></trkpt>
<trkpt lat="42.263550" lon="3.247362"><ele>152.8</ele><time>2011-03-22T11:18:11Z</time></trkpt>
<trkpt lat="42.263638" lon="3.247390"><ele>153.3</ele><time>2011-03-22T11:18:16Z</time></trkpt>
<trkpt lat="42.263722" lon="3.247415"><ele>153.8</ele><time>2011-03-22T11:18:21Z</time></trkpt>
<trkpt lat="42.263810" lon="3.247435"><ele>154.5</ele><time>2011-03-22T11:18:26Z</time></trkpt>
<trkpt lat="42.263897" lon="3.247447"><ele>155.1</ele><time>2011-03-22T11:18:31Z</time></trkpt>
<trkpt lat="42.263992" lon="3.247462"><ele>155.6</ele><time>2011-03-22T11:18:36Z</time></trkpt>
<trkpt lat="42.264088" lon="3.247492"><ele>156.1</ele><time>2011-03-22T11:18:41Z</time></trkpt>
<trkpt lat="42.264153" lon="3.247575"><ele>157</ele><time>2011-03-22T11:18:46Z</time></trkpt>
<trkpt lat="42.264160" lon="3.247698"><ele>158</ele><time>2011-03-22T11:18:51Z</time></trkpt>
<trkpt lat="42.264133" lon="3.247820"><ele>159</ele><time>2011-03-22T11:18:56Z</time></trkpt>
<trkpt lat="42.264110" lon="3.247940"><ele>160</ele><time>2011-03-22T11:19:01Z</time></trkpt>
<trkpt lat="42.264098" lon="3.248058"><ele>161.3</ele><time>2011-03-22T11:19:06Z</time></trkpt>
<trkpt lat="42.264098" lon="3.248177"><ele>162.5</ele><time>2011-03-22T11:19:11Z</time></trkpt>
<trkpt lat="42.264133" lon="3.248302"><ele>163</ele><time>2011-03-22T11:19:16Z</time></trkpt>
<trkpt lat="42.264190" lon="3.248393"><ele>164</ele><time>2011-03-22T11:19:21Z</time></trkpt>
<trkpt lat="42.264263" lon="3.248458"><ele>164.9</ele><time>2011-03-22T11:19:26Z</time></trkpt>
<trkpt lat="42.264332" lon="3.248523"><ele>165.7</ele><time>2011-03-22T11:19:31Z</time></trkpt>
<trkpt lat="42.264405" lon="3.248588"><ele>166.5</ele><time>2011-03-22T11:19:36Z</time></trkpt>
<trkpt lat="42.264468" lon="3.248655"><ele>167.3</ele><time>2011-03-22T11:19:41Z</time></trkpt>
<trkpt lat="42.264533" lon="3.248728"><ele>168.1</ele><time>2011-03-22T11:19:46Z</time></trkpt>
<trkpt lat="42.264592" lon="3.248808"><ele>168.8</ele><time>2011-03-22T11:19:51Z</time></trkpt>
<trkpt lat="42.264657" lon="3.248893"><ele>169.3</ele><time>2011-03-22T11:19:56Z</time></trkpt>
<trkpt lat="42.264722" lon="3.248975"><ele>170</ele><time>2011-03-22T11:20:01Z</time></trkpt>
<trkpt lat="42.264782" lon="3.249055"><ele>170.7</ele><time>2011-03-22T11:20:06Z</time></trkpt>
<trkpt lat="42.264847" lon="3.249138"><ele>171.4</ele><time>2011-03-22T11:20:11Z</time></trkpt>
<trkpt lat="42.264908" lon="3.249222"><ele>172.3</ele><time>2011-03-22T11:20:16Z</time></trkpt>
<trkpt lat="42.264973" lon="3.249300"><ele>173.3</ele><time>2011-03-22T11:20:21Z</time></trkpt>
<trkpt lat="42.265042" lon="3.249373"><ele>174.2</ele><time>2011-03-22T11:20:26Z</time></trkpt>
<trkpt lat="42.265113" lon="3.249442"><ele>175</ele><time>2011-03-22T11:20:31Z</time></trkpt>
<trkpt lat="42.265198" lon="3.249500"><ele>175.5</ele><time>2011-03-22T11:20:36Z</time></trkpt>
<trkpt lat="42.265290" lon="3.249525"><ele>175.9</ele><time>2011-03-22T11:20:41Z</time></trkpt>
<trkpt lat="42.265385" lon="3.249527"><ele>176.3</ele><time>2011-03-22T11:20:46Z</time></trkpt>
<trkpt lat="42.265477" lon="3.249502"><ele>176.6</ele><time>2011-03-22T11:20:51Z</time></trkpt>
<trkpt lat="42.265568" lon="3.249462"><ele>177.2</ele><time>2011-03-22T11:20:56Z</time></trkpt>
<trkpt lat="42.265675" lon="3.249412"><ele>177.2</ele><time>2011-03-22T11:21:01Z</time></trkpt>
<trkpt lat="42.265773" lon="3.249377"><ele>177.6</ele><time>2011-03-22T11:21:06Z</time></trkpt>
<trkpt lat="42.265868" lon="3.249342"><ele>178</ele><time>2011-03-22T11:21:11Z</time></trkpt>
<trkpt lat="42.265968" lon="3.249310"><ele>178.4</ele><time>2011-03-22T11:21:16Z</time></trkpt>
<trkpt lat="42.266068" lon="3.249287"><ele>178.9</ele><time>2011-03-22T11:21:21Z</time></trkpt>
<trkpt lat="42.266163" lon="3.249265"><ele>179.4</ele><time>2011-03-22T11:21:26Z</time></trkpt>
<trkpt lat="42.266262" lon="3.249240"><ele>179.8</ele><time>2011-03-22T11:21:31Z</time></trkpt>
<trkpt lat="42.266357" lon="3.249218"><ele>180.4</ele><time>2011-03-22T11:21:36Z</time></trkpt>
<trkpt lat="42.266457" lon="3.249212"><ele>181</ele><time>2011-03-22T11:21:41Z</time></trkpt>
<trkpt lat="42.266555" lon="3.249212"><ele>181.7</ele><time>2011-03-22T11:21:46Z</time></trkpt>
<trkpt lat="42.266652" lon="3.249227"><ele>182.5</ele><time>2011-03-22T11:21:51Z</time></trkpt>
<trkpt lat="42.266750" lon="3.249213"><ele>183.4</ele><time>2011-03-22T11:21:56Z</time></trkpt>
<trkpt lat="42.266850" lon="3.249198"><ele>183.7</ele><time>2011-03-22T11:22:01Z</time></trkpt>
<trkpt lat="42.266945" lon="3.249160"><ele>184.3</ele><time>2011-03-22T11:22:06Z</time></trkpt>
<trkpt lat="42.267043" lon="3.249123"><ele>184.8</ele><time>2011-03-22T11:22:11Z</time></trkpt>
<trkpt lat="42.267143" lon="3.249087"><ele>185.4</ele><time>2011-03-22T11:22:16Z</time></trkpt>
<trkpt lat="42.267238" lon="3.249068"><ele>186.3</ele><time>2011-03-22T11:22:21Z</time></trkpt>
<trkpt lat="42.267338" lon="3.249045"><ele>187.1</ele><time>2011-03-22T11:22:26Z</time></trkpt>
<trkpt lat="42.267430" lon="3.249018"><ele>188</ele><time>2011-03-22T11:22:31Z</time></trkpt>
<trkpt lat="42.267528" lon="3.249025"><ele>188.6</ele><time>2011-03-22T11:22:36Z</time></trkpt>
<trkpt lat="42.267593" lon="3.249127"><ele>189.1</ele><time>2011-03-22T11:22:41Z</time></trkpt>
<trkpt lat="42.267552" lon="3.249258"><ele>190</ele><time>2011-03-22T11:22:46Z</time></trkpt>
<trkpt lat="42.267475" lon="3.249360"><ele>191</ele><time>2011-03-22T11:22:51Z</time></trkpt>
<trkpt lat="42.267410" lon="3.249462"><ele>192.1</ele><time>2011-03-22T11:22:56Z</time></trkpt>
<trkpt lat="42.267345" lon="3.249562"><ele>193</ele><time>2011-03-22T11:23:01Z</time></trkpt>
<trkpt lat="42.267297" lon="3.249685"><ele>193.7</ele><time>2011-03-22T11:23:06Z</time></trkpt>
<trkpt lat="42.267253" lon="3.249808"><ele>194.5</ele><time>2011-03-22T11:23:11Z</time></trkpt>
<trkpt lat="42.267215" lon="3.249932"><ele>195.3</ele><time>2011-03-22T11:23:16Z</time></trkpt>
<trkpt lat="42.267178" lon="3.250058"><ele>196</ele><time>2011-03-22T11:23:21Z</time></trkpt>
<trkpt lat="42.267158" lon="3.250187"><ele>196.8</ele><time>2011-03-22T11:23:26Z</time></trkpt>
<trkpt lat="42.267152" lon="3.250320"><ele>197.6</ele><time>2011-03-22T11:23:31Z</time></trkpt>
<trkpt lat="42.267185" lon="3.250450"><ele>198.2</ele><time>2011-03-22T11:23:36Z</time></trkpt>
<trkpt lat="42.267253" lon="3.250562"><ele>198.7</ele><time>2011-03-22T11:23:41Z</time></trkpt>
<trkpt lat="42.267330" lon="3.250668"><ele>199.4</ele><time>2011-03-22T11:23:46Z</time></trkpt>
<trkpt lat="42.267398" lon="3.250758"><ele>200.3</ele><time>2011-03-22T11:23:51Z</time></trkpt>
<trkpt lat="42.267467" lon="3.250857"><ele>201</ele><time>2011-03-22T11:23:56Z</time></trkpt>
<trkpt lat="42.267537" lon="3.250962"><ele>201.7</ele><time>2011-03-22T11:24:01Z</time></trkpt>
<trkpt lat="42.267602" lon="3.251077"><ele>202.4</ele><time>2011-03-22T11:24:06Z</time></trkpt>
<trkpt lat="42.267658" lon="3.251195"><ele>203.1</ele><time>2011-03-22T11:24:11Z</time></trkpt>
<trkpt lat="42.267735" lon="3.251312"><ele>203.7</ele><time>2011-03-22T11:24:16Z</time></trkpt>
<trkpt lat="42.267815" lon="3.251413"><ele>204.2</ele><time>2011-03-22T11:24:21Z</time></trkpt>
<trkpt lat="42.267887" lon="3.251525"><ele>204.6</ele><time>2011-03-22T11:24:26Z</time></trkpt>
<trkpt lat="42.267937" lon="3.251657"><ele>205.3</ele><time>2011-03-22T11:24:31Z</time></trkpt>
<trkpt lat="42.267948" lon="3.251802"><ele>206</ele><time>2011-03-22T11:24:36Z</time></trkpt>
<trkpt lat="42.267945" lon="3.251948"><ele>206.9</ele><time>2011-03-22T11:24:41Z</time></trkpt>
<trkpt lat="42.267928" lon="3.252093"><ele>207.6</ele><time>2011-03-22T11:24:46Z</time></trkpt>
<trkpt lat="42.267895" lon="3.252237"><ele>208.2</ele><time>2011-03-22T11:24:51Z</time></trkpt>
<trkpt lat="42.267868" lon="3.252368"><ele>208.9</ele><time>2011-03-22T11:24:56Z</time></trkpt>
<trkpt lat="42.267833" lon="3.252502"><ele>209.6</ele><time>2011-03-22T11:25:01Z</time></trkpt>
<trkpt lat="42.267803" lon="3.252633"><ele>210.4</ele><time>2011-03-22T11:25:06Z</time></trkpt>
<trkpt lat="42.267777" lon="3.252767"><ele>211.2</ele><time>2011-03-22T11:25:11Z</time></trkpt>
<trkpt lat="42.267768" lon="3.252910"><ele>211.9</ele><time>2011-03-22T11:25:16Z</time></trkpt>
<trkpt lat="42.267810" lon="3.253052"><ele>212.3</ele><time>2011-03-22T11:25:21Z</time></trkpt>
<trkpt lat="42.267875" lon="3.253175"><ele>212.9</ele><time>2011-03-22T11:25:26Z</time></trkpt>
<trkpt lat="42.267948" lon="3.253273"><ele>213.3</ele><time>2011-03-22T11:25:31Z</time></trkpt>
<trkpt lat="42.268020" lon="3.253375"><ele>213.6</ele><time>2011-03-22T11:25:36Z</time></trkpt>
<trkpt lat="42.268082" lon="3.253483"><ele>214</ele><time>2011-03-22T11:25:41Z</time></trkpt>
<trkpt lat="42.268147" lon="3.253595"><ele>214.4</ele><time>2011-03-22T11:25:46Z</time></trkpt>
<trkpt lat="42.268188" lon="3.253727"><ele>214.7</ele><time>2011-03-22T11:25:51Z</time></trkpt>
<trkpt lat="42.268127" lon="3.253832"><ele>215.3</ele><time>2011-03-22T11:25:56Z</time></trkpt>
<trkpt lat="42.268037" lon="3.253860"><ele>215.8</ele><time>2011-03-22T11:26:01Z</time></trkpt>
<trkpt lat="42.267940" lon="3.253850"><ele>216.4</ele><time>2011-03-22T11:26:06Z</time></trkpt>
<trkpt lat="42.267830" lon="3.253895"><ele>216.7</ele><time>2011-03-22T11:26:11Z</time></trkpt>
<trkpt lat="42.267703" lon="3.253940"><ele>216.8</ele><time>2011-03-22T11:26:16Z</time></trkpt>
<trkpt lat="42.267578" lon="3.253975"><ele>217.2</ele><time>2011-03-22T11:26:21Z</time></trkpt>
<trkpt lat="42.267452" lon="3.254023"><ele>217.8</ele><time>2011-03-22T11:26:26Z</time></trkpt>
<trkpt lat="42.267327" lon="3.254122"><ele>218.2</ele><time>2011-03-22T11:26:31Z</time></trkpt>
<trkpt lat="42.267215" lon="3.254273"><ele>218.4</ele><time>2011-03-22T11:26:36Z</time></trkpt>
<trkpt lat="42.267132" lon="3.254452"><ele>218.8</ele><time>2011-03-22T11:26:41Z</time></trkpt>
<trkpt lat="42.267102" lon="3.254672"><ele>219.2</ele><time>2011-03-22T11:26:46Z</time></trkpt>
<trkpt lat="42.267113" lon="3.254903"><ele>219.5</ele><time>2011-03-22T11:26:51Z</time></trkpt>
<trkpt lat="42.267043" lon="3.255090"><ele>220.1</ele><time>2011-03-22T11:26:56Z</time></trkpt>
<trkpt lat="42.266892" lon="3.255130"><ele>220.9</ele><time>2011-03-22T11:27:01Z</time></trkpt>
<trkpt lat="42.266727" lon="3.255130"><ele>221.5</ele><time>2011-03-22T11:27:06Z</time></trkpt>
<trkpt lat="42.266567" lon="3.255133"><ele>222.1</ele><time>2011-03-22T11:27:11Z</time></trkpt>
<trkpt lat="42.266407" lon="3.255200"><ele>222.4</ele><time>2011-03-22T11:27:16Z</time></trkpt>
<trkpt lat="42.266243" lon="3.255282"><ele>222.8</ele><time>2011-03-22T11:27:21Z</time></trkpt>
<trkpt lat="42.266095" lon="3.255337"><ele>223.7</ele><time>2011-03-22T11:27:26Z</time></trkpt>
<trkpt lat="42.265972" lon="3.255363"><ele>223.9</ele><time>2011-03-22T11:27:31Z</time></trkpt>
<trkpt lat="42.265880" lon="3.255428"><ele>224.5</ele><time>2011-03-22T11:27:36Z</time></trkpt>
<trkpt lat="42.265782" lon="3.255555"><ele>224.7</ele><time>2011-03-22T11:27:41Z</time></trkpt>
<trkpt lat="42.265702" lon="3.255740"><ele>224.7</ele><time>2011-03-22T11:27:46Z</time></trkpt>
<trkpt lat="42.265643" lon="3.255948"><ele>224.6</ele><time>2011-03-22T11:27:51Z</time></trkpt>
<trkpt lat="42.265587" lon="3.256180"><ele>224.3</ele><time>2011-03-22T11:27:56Z</time></trkpt>
<trkpt lat="42.265525" lon="3.256408"><ele>224.2</ele><time>2011-03-22T11:28:01Z</time></trkpt>
<trkpt lat="42.265450" lon="3.256658"><ele>224</ele><time>2011-03-22T11:28:06Z</time></trkpt>
<trkpt lat="42.265385" lon="3.256913"><ele>223.7</ele><time>2011-03-22T11:28:11Z</time></trkpt>
<trkpt lat="42.265347" lon="3.257168"><ele>223.6</ele><time>2011-03-22T11:28:16Z</time></trkpt>
<trkpt lat="42.265320" lon="3.257465"><ele>223</ele><time>2011-03-22T11:28:21Z</time></trkpt>
<trkpt lat="42.265308" lon="3.257760"><ele>223</ele><time>2011-03-22T11:28:26Z</time></trkpt>
<trkpt lat="42.265308" lon="3.258057"><ele>222.8</ele><time>2011-03-22T11:28:31Z</time></trkpt>
<trkpt lat="42.265308" lon="3.258388"><ele>222.6</ele><time>2011-03-22T11:28:36Z</time></trkpt>
<trkpt lat="42.265210" lon="3.258687"><ele>222.8</ele><time>2011-03-22T11:28:41Z</time></trkpt>
<trkpt lat="42.265083" lon="3.258967"><ele>222.8</ele><time>2011-03-22T11:28:46Z</time></trkpt>
<trkpt lat="42.264962" lon="3.259242"><ele>223.1</ele><time>2011-03-22T11:28:51Z</time></trkpt>
<trkpt lat="42.264847" lon="3.259473"><ele>223.7</ele><time>2011-03-22T11:28:56Z</time></trkpt>
<trkpt lat="42.264705" lon="3.259617"><ele>224.2</ele><time>2011-03-22T11:29:01Z</time></trkpt>
<trkpt lat="42.264527" lon="3.259662"><ele>224.5</ele><time>2011-03-22T11:29:06Z</time></trkpt>
<trkpt lat="42.264362" lon="3.259742"><ele>224.9</ele><time>2011-03-22T11:29:11Z</time></trkpt>
<trkpt lat="42.264252" lon="3.259863"><ele>225.4</ele><time>2011-03-22T11:29:16Z</time></trkpt>
<trkpt lat="42.264222" lon="3.259908"><ele>225.6</ele><time>2011-03-22T11:29:21Z</time></trkpt>
<trkpt lat="42.264225" lon="3.259910"><ele>225.5</ele><time>2011-03-22T11:29:26Z</time></trkpt>
<trkpt lat="42.264233" lon="3.259895"><ele>225.4</ele><time>2011-03-22T11:29:31Z</time></trkpt>
<trkpt lat="42.264217" lon="3.259905"><ele>225.7</ele><time>2011-03-22T11:29:36Z</time></trkpt>
<trkpt lat="42.264213" lon="3.259913"><ele>225.7</ele><time>2011-03-22T11:29:41Z</time></trkpt>
<trkpt lat="42.264207" lon="3.259918"><ele>226</ele><time>2011-03-22T11:29:46Z</time></trkpt>
<trkpt lat="42.264187" lon="3.259928"><ele>226.9</ele><time>2011-03-22T11:29:51Z</time></trkpt>
<trkpt lat="42.264187" lon="3.259928"><ele>227.1</ele><time>2011-03-22T11:29:56Z</time></trkpt>
<trkpt lat="42.264187" lon="3.259925"><ele>227.3</ele><time>2011-03-22T11:30:01Z</time></trkpt>
<trkpt lat="42.264190" lon="3.259923"><ele>227.2</ele><time>2011-03-22T11:30:06Z</time></trkpt>
<trkpt lat="42.264175" lon="3.259928"><ele>227.3</ele><time>2011-03-22T11:30:11Z</time></trkpt>
<trkpt lat="42.264142" lon="3.259973"><ele>227.3</ele><time>2011-03-22T11:30:16Z</time></trkpt>
<trkpt lat="42.264068" lon="3.260088"><ele>227.3</ele><time>2011-03-22T11:30:21Z</time></trkpt>
<trkpt lat="42.263973" lon="3.260233"><ele>227.7</ele><time>2011-03-22T11:30:26Z</time></trkpt>
<trkpt lat="42.263873" lon="3.260363"><ele>227.9</ele><time>2011-03-22T11:30:31Z</time></trkpt>
<trkpt lat="42.263760" lon="3.260500"><ele>228.4</ele><time>2011-03-22T11:30:36Z</time></trkpt>
<trkpt lat="42.263687" lon="3.260693"><ele>228.8</ele><time>2011-03-22T11:30:41Z</time></trkpt>
<trkpt lat="42.263648" lon="3.260935"><ele>228.4</ele><time>2011-03-22T11:30:46Z</time></trkpt>
<trkpt lat="42.263633" lon="3.261220"><ele>227.4</ele><time>2011-03-22T11:30:51Z</time></trkpt>
<trkpt lat="42.263642" lon="3.261545"><ele>226.1</ele><time>2011-03-22T11:30:56Z</time></trkpt>
<trkpt lat="42.263618" lon="3.261868"><ele>224.8</ele><time>2011-03-22T11:31:01Z</time></trkpt>
<trkpt lat="42.263583" lon="3.262203"><ele>223.5</ele><time>2011-03-22T11:31:06Z</time></trkpt>
<trkpt lat="42.263553" lon="3.262538"><ele>222.5</ele><time>2011-03-22T11:31:11Z</time></trkpt>
<trkpt lat="42.263527" lon="3.262832"><ele>221.6</ele><time>2011-03-22T11:31:16Z</time></trkpt>
<trkpt lat="42.263485" lon="3.263117"><ele>220.7</ele><time>2011-03-22T11:31:21Z</time></trkpt>
<trkpt lat="42.263485" lon="3.263433"><ele>219.8</ele><time>2011-03-22T11:31:26Z</time></trkpt>
<trkpt lat="42.263515" lon="3.263718"><ele>219</ele><time>2011-03-22T11:31:31Z</time></trkpt>
<trkpt lat="42.263615" lon="3.263945"><ele>218.6</ele><time>2011-03-22T11:31:36Z</time></trkpt>
<trkpt lat="42.263840" lon="3.263978"><ele>218</ele><time>2011-03-22T11:31:41Z</time></trkpt>
<trkpt lat="42.264068" lon="3.264022"><ele>217.7</ele><time>2011-03-22T11:31:46Z</time></trkpt>
<trkpt lat="42.264202" lon="3.264247"><ele>217.6</ele><time>2011-03-22T11:31:51Z</time></trkpt>
<trkpt lat="42.264287" lon="3.264530"><ele>217.3</ele><time>2011-03-22T11:31:56Z</time></trkpt>
<trkpt lat="42.264393" lon="3.264812"><ele>217.2</ele><time>2011-03-22T11:32:01Z</time></trkpt>
<trkpt lat="42.264492" lon="3.265112"><ele>217.1</ele><time>2011-03-22T11:32:06Z</time></trkpt>
<trkpt lat="42.264533" lon="3.265442"><ele>216.9</ele><time>2011-03-22T11:32:11Z</time></trkpt>
<trkpt lat="42.264687" lon="3.265728"><ele>215.3</ele><time>2011-03-22T11:32:16Z</time></trkpt>
<trkpt lat="42.264968" lon="3.265748"><ele>214.3</ele><time>2011-03-22T11:32:21Z</time></trkpt>
<trkpt lat="42.265198" lon="3.265597"><ele>214.3</ele><time>2011-03-22T11:32:26Z</time></trkpt>
<trkpt lat="42.265392" lon="3.265435"><ele>214.4</ele><time>2011-03-22T11:32:31Z</time></trkpt>
<trkpt lat="42.265580" lon="3.265265"><ele>214.3</ele><time>2011-03-22T11:32:36Z</time></trkpt>
<trkpt lat="42.265767" lon="3.265075"><ele>214.2</ele><time>2011-03-22T11:32:41Z</time></trkpt>
<trkpt lat="42.265950" lon="3.264890"><ele>214.2</ele><time>2011-03-22T11:32:46Z</time></trkpt>
<trkpt lat="42.266132" lon="3.264683"><ele>214.1</ele><time>2011-03-22T11:32:51Z</time></trkpt>
<trkpt lat="42.266320" lon="3.264437"><ele>214</ele><time>2011-03-22T11:32:56Z</time></trkpt>
<trkpt lat="42.266483" lon="3.264192"><ele>214.2</ele><time>2011-03-22T11:33:01Z</time></trkpt>
<trkpt lat="42.266643" lon="3.263953"><ele>214.8</ele><time>2011-03-22T11:33:06Z</time></trkpt>
<trkpt lat="42.266800" lon="3.263752"><ele>215.3</ele><time>2011-03-22T11:33:11Z</time></trkpt>
<trkpt lat="42.266972" lon="3.263612"><ele>215.8</ele><time>2011-03-22T11:33:16Z</time></trkpt>
<trkpt lat="42.267135" lon="3.263588"><ele>216.5</ele><time>2011-03-22T11:33:21Z</time></trkpt>
<trkpt lat="42.267307" lon="3.263578"><ele>217</ele><time>2011-03-22T11:33:26Z</time></trkpt>
<trkpt lat="42.267498" lon="3.263513"><ele>217.4</ele><time>2011-03-22T11:33:31Z</time></trkpt>
<trkpt lat="42.267688" lon="3.263437"><ele>218</ele><time>2011-03-22T11:33:36Z</time></trkpt>
<trkpt lat="42.267892" lon="3.263428"><ele>218.1</ele><time>2011-03-22T11:33:41Z</time></trkpt>
<trkpt lat="42.267955" lon="3.263643"><ele>218.6</ele><time>2011-03-22T11:33:46Z</time></trkpt>
<trkpt lat="42.267982" lon="3.263873"><ele>219.3</ele><time>2011-03-22T11:33:51Z</time></trkpt>
<trkpt lat="42.268025" lon="3.264090"><ele>220</ele><time>2011-03-22T11:33:56Z</time></trkpt>
<trkpt lat="42.268082" lon="3.264340"><ele>220.5</ele><time>2011-03-22T11:34:01Z</time></trkpt>
<trkpt lat="42.268135" lon="3.264612"><ele>221</ele><time>2011-03-22T11:34:06Z</time></trkpt>
<trkpt lat="42.268147" lon="3.264890"><ele>221.6</ele><time>2011-03-22T11:34:11Z</time></trkpt>
<trkpt lat="42.268112" lon="3.265112"><ele>222.6</ele><time>2011-03-22T11:34:16Z</time></trkpt>
<trkpt lat="42.268073" lon="3.265298"><ele>223.5</ele><time>2011-03-22T11:34:21Z</time></trkpt>
<trkpt lat="42.268082" lon="3.265508"><ele>224.3</ele><time>2011-03-22T11:34:26Z</time></trkpt>
<trkpt lat="42.268150" lon="3.265700"><ele>224.8</ele><time>2011-03-22T11:34:31Z</time></trkpt>
<trkpt lat="42.268295" lon="3.265860"><ele>224.3</ele><time>2011-03-22T11:34:36Z</time></trkpt>
<trkpt lat="42.268493" lon="3.265853"><ele>223.5</ele><time>2011-03-22T11:34:41Z</time></trkpt>
<trkpt lat="42.268700" lon="3.265815"><ele>223.4</ele><time>2011-03-22T11:34:46Z</time></trkpt>
<trkpt lat="42.268830" lon="3.266007"><ele>223.8</ele><time>2011-03-22T11:34:51Z</time></trkpt>
<trkpt lat="42.268742" lon="3.266225"><ele>224.8</ele><time>2011-03-22T11:34:56Z</time></trkpt>
<trkpt lat="42.268635" lon="3.266473"><ele>224</ele><time>2011-03-22T11:35:01Z</time></trkpt>
<trkpt lat="42.268540" lon="3.266807"><ele>221.7</ele><time>2011-03-22T11:35:06Z</time></trkpt>
<trkpt lat="42.268440" lon="3.267175"><ele>218.8</ele><time>2011-03-22T11:35:11Z</time></trkpt>
<trkpt lat="42.268315" lon="3.267530"><ele>216.2</ele><time>2011-03-22T11:35:16Z</time></trkpt>
<trkpt lat="42.268407" lon="3.267798"><ele>214.5</ele><time>2011-03-22T11:35:21Z</time></trkpt>
<trkpt lat="42.268653" lon="3.267862"><ele>212</ele><time>2011-03-22T11:35:26Z</time></trkpt>
<trkpt lat="42.268932" lon="3.267798"><ele>209.2</ele><time>2011-03-22T11:35:31Z</time></trkpt>
<trkpt lat="42.269218" lon="3.267693"><ele>206.2</ele><time>2011-03-22T11:35:36Z</time></trkpt>
<trkpt lat="42.269517" lon="3.267630"><ele>203.5</ele><time>2011-03-22T11:35:41Z</time></trkpt>
<trkpt lat="42.269817" lon="3.267617"><ele>200.9</ele><time>2011-03-22T11:35:46Z</time></trkpt>
<trkpt lat="42.270068" lon="3.267783"><ele>198.9</ele><time>2011-03-22T11:35:51Z</time></trkpt>
<trkpt lat="42.269970" lon="3.268090"><ele>199.6</ele><time>2011-03-22T11:35:56Z</time></trkpt>
<trkpt lat="42.270012" lon="3.268358"><ele>200.2</ele><time>2011-03-22T11:36:01Z</time></trkpt>
<trkpt lat="42.270245" lon="3.268357"><ele>200.2</ele><time>2011-03-22T11:36:06Z</time></trkpt>
<trkpt lat="42.270482" lon="3.268233"><ele>199.7</ele><time>2011-03-22T11:36:11Z</time></trkpt>
<trkpt lat="42.270752" lon="3.268122"><ele>198.9</ele><time>2011-03-22T11:36:16Z</time></trkpt>
<trkpt lat="42.271023" lon="3.268042"><ele>198.4</ele><time>2011-03-22T11:36:21Z</time></trkpt>
<trkpt lat="42.271290" lon="3.267912"><ele>196.7</ele><time>2011-03-22T11:36:26Z</time></trkpt>
<trkpt lat="42.271577" lon="3.267710"><ele>194.6</ele><time>2011-03-22T11:36:31Z</time></trkpt>
<trkpt lat="42.271812" lon="3.267420"><ele>193.2</ele><time>2011-03-22T11:36:36Z</time></trkpt>
<trkpt lat="42.271977" lon="3.267118"><ele>192.8</ele><time>2011-03-22T11:36:41Z</time></trkpt>
<trkpt lat="42.272213" lon="3.266963"><ele>191.9</ele><time>2011-03-22T11:36:46Z</time></trkpt>
<trkpt lat="42.272450" lon="3.266722"><ele>189.9</ele><time>2011-03-22T11:36:51Z</time></trkpt>
<trkpt lat="42.272530" lon="3.266250"><ele>187.8</ele><time>2011-03-22T11:36:56Z</time></trkpt>
<trkpt lat="42.272643" lon="3.265793"><ele>185.8</ele><time>2011-03-22T11:37:01Z</time></trkpt>
<trkpt lat="42.272682" lon="3.265358"><ele>184.1</ele><time>2011-03-22T11:37:06Z</time></trkpt>
<trkpt lat="42.272868" lon="3.265370"><ele>184.6</ele><time>2011-03-22T11:37:11Z</time></trkpt>
<trkpt lat="42.273003" lon="3.265648"><ele>184.5</ele><time>2011-03-22T11:37:16Z</time></trkpt>
<trkpt lat="42.273232" lon="3.265808"><ele>184.6</ele><time>2011-03-22T11:37:21Z</time></trkpt>
<trkpt lat="42.273442" lon="3.266060"><ele>184</ele><time>2011-03-22T11:37:26Z</time></trkpt>
<trkpt lat="42.273685" lon="3.266177"><ele>184.3</ele><time>2011-03-22T11:37:31Z</time></trkpt>
<trkpt lat="42.273922" lon="3.266077"><ele>184.2</ele><time>2011-03-22T11:37:36Z</time></trkpt>
<trkpt lat="42.274097" lon="3.265843"><ele>183.8</ele><time>2011-03-22T11:37:41Z</time></trkpt>
<trkpt lat="42.274277" lon="3.266028"><ele>182.4</ele><time>2011-03-22T11:37:46Z</time></trkpt>
<trkpt lat="42.274532" lon="3.266220"><ele>180.4</ele><time>2011-03-22T11:37:51Z</time></trkpt>
<trkpt lat="42.274807" lon="3.266365"><ele>178.1</ele><time>2011-03-22T11:37:56Z</time></trkpt>
<trkpt lat="42.275078" lon="3.266563"><ele>174.6</ele><time>2011-03-22T11:38:01Z</time></trkpt>
<trkpt lat="42.275093" lon="3.266928"><ele>171.3</ele><time>2011-03-22T11:38:06Z</time></trkpt>
<trkpt lat="42.274975" lon="3.267385"><ele>168.2</ele><time>2011-03-22T11:38:11Z</time></trkpt>
<trkpt lat="42.275100" lon="3.267667"><ele>165.3</ele><time>2011-03-22T11:38:16Z</time></trkpt>
<trkpt lat="42.275345" lon="3.267490"><ele>162.6</ele><time>2011-03-22T11:38:21Z</time></trkpt>
<trkpt lat="42.275573" lon="3.267208"><ele>160.1</ele><time>2011-03-22T11:38:26Z</time></trkpt>
<trkpt lat="42.275798" lon="3.267093"><ele>158</ele><time>2011-03-22T11:38:31Z</time></trkpt>
<trkpt lat="42.276043" lon="3.266942"><ele>155.5</ele><time>2011-03-22T11:38:36Z</time></trkpt>
<trkpt lat="42.276035" lon="3.266513"><ele>152.2</ele><time>2011-03-22T11:38:41Z</time></trkpt>
<trkpt lat="42.276210" lon="3.266413"><ele>149.6</ele><time>2011-03-22T11:38:46Z</time></trkpt>
<trkpt lat="42.276393" lon="3.266740"><ele>146.8</ele><time>2011-03-22T11:38:51Z</time></trkpt>
<trkpt lat="42.276440" lon="3.267153"><ele>143.8</ele><time>2011-03-22T11:38:56Z</time></trkpt>
<trkpt lat="42.276408" lon="3.267533"><ele>140.9</ele><time>2011-03-22T11:39:01Z</time></trkpt>
<trkpt lat="42.276645" lon="3.267507"><ele>138.6</ele><time>2011-03-22T11:39:06Z</time></trkpt>
<trkpt lat="42.276875" lon="3.267213"><ele>136.8</ele><time>2011-03-22T11:39:11Z</time></trkpt>
<trkpt lat="42.277012" lon="3.266878"><ele>134.9</ele><time>2011-03-22T11:39:16Z</time></trkpt>
<trkpt lat="42.277252" lon="3.266925"><ele>132.6</ele><time>2011-03-22T11:39:21Z</time></trkpt>
<trkpt lat="42.277275" lon="3.267320"><ele>129.1</ele><time>2011-03-22T11:39:26Z</time></trkpt>
<trkpt lat="42.277192" lon="3.267743"><ele>126.5</ele><time>2011-03-22T11:39:31Z</time></trkpt>
<trkpt lat="42.277122" lon="3.268153"><ele>124.6</ele><time>2011-03-22T11:39:36Z</time></trkpt>
<trkpt lat="42.276993" lon="3.268482"><ele>122.3</ele><time>2011-03-22T11:39:41Z</time></trkpt>
<trkpt lat="42.276837" lon="3.268763"><ele>119.1</ele><time>2011-03-22T11:39:46Z</time></trkpt>
<trkpt lat="42.276828" lon="3.269027"><ele>116.3</ele><time>2011-03-22T11:39:51Z</time></trkpt>
<trkpt lat="42.277005" lon="3.269327"><ele>113.1</ele><time>2011-03-22T11:39:56Z</time></trkpt>
<trkpt lat="42.277278" lon="3.269475"><ele>111.5</ele><time>2011-03-22T11:40:01Z</time></trkpt>
<trkpt lat="42.277470" lon="3.269670"><ele>109.8</ele><time>2011-03-22T11:40:06Z</time></trkpt>
<trkpt lat="42.277627" lon="3.269952"><ele>108.7</ele><time>2011-03-22T11:40:11Z</time></trkpt>
<trkpt lat="42.277820" lon="3.270173"><ele>107.2</ele><time>2011-03-22T11:40:16Z</time></trkpt>
<trkpt lat="42.277878" lon="3.270500"><ele>105</ele><time>2011-03-22T11:40:21Z</time></trkpt>
<trkpt lat="42.277858" lon="3.270822"><ele>102.9</ele><time>2011-03-22T11:40:26Z</time></trkpt>
<trkpt lat="42.278030" lon="3.270900"><ele>101.1</ele><time>2011-03-22T11:40:31Z</time></trkpt>
<trkpt lat="42.278072" lon="3.270572"><ele>98.1</ele><time>2011-03-22T11:40:36Z</time></trkpt>
<trkpt lat="42.278287" lon="3.270340"><ele>95.6</ele><time>2011-03-22T11:40:41Z</time></trkpt>
<trkpt lat="42.278512" lon="3.270222"><ele>92.9</ele><time>2011-03-22T11:40:46Z</time></trkpt>
<trkpt lat="42.278663" lon="3.270508"><ele>90.9</ele><time>2011-03-22T11:40:51Z</time></trkpt>
<trkpt lat="42.278900" lon="3.270413"><ele>89.6</ele><time>2011-03-22T11:40:56Z</time></trkpt>
<trkpt lat="42.279000" lon="3.270688"><ele>86.1</ele><time>2011-03-22T11:41:01Z</time></trkpt>
<trkpt lat="42.278935" lon="3.271115"><ele>82.6</ele><time>2011-03-22T11:41:06Z</time></trkpt>
<trkpt lat="42.278855" lon="3.271472"><ele>80.1</ele><time>2011-03-22T11:41:11Z</time></trkpt>
<trkpt lat="42.279057" lon="3.271728"><ele>77.9</ele><time>2011-03-22T11:41:16Z</time></trkpt>
<trkpt lat="42.279198" lon="3.272095"><ele>74.9</ele><time>2011-03-22T11:41:21Z</time></trkpt>
<trkpt lat="42.279350" lon="3.272453"><ele>71</ele><time>2011-03-22T11:41:26Z</time></trkpt>
<trkpt lat="42.279442" lon="3.272850"><ele>67.8</ele><time>2011-03-22T11:41:31Z</time></trkpt>
<trkpt lat="42.279705" lon="3.273015"><ele>65.6</ele><time>2011-03-22T11:41:36Z</time></trkpt>
<trkpt lat="42.279853" lon="3.273375"><ele>62</ele><time>2011-03-22T11:41:41Z</time></trkpt>
<trkpt lat="42.279960" lon="3.273770"><ele>59.2</ele><time>2011-03-22T11:41:46Z</time></trkpt>
<trkpt lat="42.279880" lon="3.274217"><ele>56.3</ele><time>2011-03-22T11:41:51Z</time></trkpt>
<trkpt lat="42.279702" lon="3.274605"><ele>52.4</ele><time>2011-03-22T11:41:56Z</time></trkpt>
<trkpt lat="42.279693" lon="3.274820"><ele>50.8</ele><time>2011-03-22T11:42:01Z</time></trkpt>
<trkpt lat="42.279873" lon="3.274877"><ele>49.6</ele><time>2011-03-22T11:42:06Z</time></trkpt>
<trkpt lat="42.280117" lon="3.274692"><ele>47.6</ele><time>2011-03-22T11:42:11Z</time></trkpt>
<trkpt lat="42.280422" lon="3.274485"><ele>45</ele><time>2011-03-22T11:42:16Z</time></trkpt>
<trkpt lat="42.280620" lon="3.274210"><ele>42.3</ele><time>2011-03-22T11:42:21Z</time></trkpt>
<trkpt lat="42.280667" lon="3.273900"><ele>39.5</ele><time>2011-03-22T11:42:26Z</time></trkpt>
<trkpt lat="42.280888" lon="3.273988"><ele>35.7</ele><time>2011-03-22T11:42:31Z</time></trkpt>
<trkpt lat="42.281113" lon="3.274150"><ele>31.8</ele><time>2011-03-22T11:42:36Z</time></trkpt>
<trkpt lat="42.281173" lon="3.274542"><ele>27.7</ele><time>2011-03-22T11:42:41Z</time></trkpt>
<trkpt lat="42.281170" lon="3.275008"><ele>23.9</ele><time>2011-03-22T11:42:46Z</time></trkpt>
<trkpt lat="42.281238" lon="3.275373"><ele>21.2</ele><time>2011-03-22T11:42:51Z</time></trkpt>
<trkpt lat="42.281285" lon="3.275457"><ele>20.2</ele><time>2011-03-22T11:42:56Z</time></trkpt>
<trkpt lat="42.281280" lon="3.275457"><ele>20</ele><time>2011-03-22T11:43:01Z</time></trkpt>
<trkpt lat="42.281280" lon="3.275457"><ele>20</ele><time>2011-03-22T11:43:06Z</time></trkpt>
<trkpt lat="42.281280" lon="3.275458"><ele>19.8</ele><time>2011-03-22T11:43:11Z</time></trkpt>
<trkpt lat="42.281277" lon="3.275458"><ele>19.9</ele><time>2011-03-22T11:43:16Z</time></trkpt>
<trkpt lat="42.281273" lon="3.275452"><ele>20.3</ele><time>2011-03-22T11:43:21Z</time></trkpt>
<trkpt lat="42.281268" lon="3.275445"><ele>21.3</ele><time>2011-03-22T11:43:26Z</time></trkpt>
<trkpt lat="42.281265" lon="3.275447"><ele>21.2</ele><time>2011-03-22T11:43:31Z</time></trkpt>
<trkpt lat="42.281345" lon="3.275438"><ele>20.6</ele><time>2011-03-22T11:43:36Z</time></trkpt>
<trkpt lat="42.281585" lon="3.275495"><ele>18.2</ele><time>2011-03-22T11:43:41Z</time></trkpt>
<trkpt lat="42.281918" lon="3.275612"><ele>15.4</ele><time>2011-03-22T11:43:46Z</time></trkpt>
<trkpt lat="42.282292" lon="3.275617"><ele>11.8</ele><time>2011-03-22T11:43:51Z</time></trkpt>
<trkpt lat="42.282692" lon="3.275523"><ele>8.1</ele><time>2011-03-22T11:43:56Z</time></trkpt>
<trkpt lat="42.283028" lon="3.275690"><ele>5</ele><time>2011-03-22T11:44:01Z</time></trkpt>
<trkpt lat="42.283268" lon="3.275865"><ele>4.7</ele><time>2011-03-22T11:44:06Z</time></trkpt>
<trkpt lat="42.283500" lon="3.275797"><ele>5.2</ele><time>2011-03-22T11:44:11Z</time></trkpt>
<trkpt lat="42.283745" lon="3.275640"><ele>4.8</ele><time>2011-03-22T11:44:16Z</time></trkpt>
<trkpt lat="42.283978" lon="3.275453"><ele>4.6</ele><time>2011-03-22T11:44:21Z</time></trkpt>
<trkpt lat="42.284203" lon="3.275297"><ele>4.8</ele><time>2011-03-22T11:44:26Z</time></trkpt>
<trkpt lat="42.284435" lon="3.275272"><ele>5.3</ele><time>2011-03-22T11:44:31Z</time></trkpt>
<trkpt lat="42.284642" lon="3.275305"><ele>5.9</ele><time>2011-03-22T11:44:36Z</time></trkpt>
<trkpt lat="42.284817" lon="3.275417"><ele>7</ele><time>2011-03-22T11:44:41Z</time></trkpt>
<trkpt lat="42.284935" lon="3.275548"><ele>11</ele><time>2011-03-22T11:44:46Z</time></trkpt>
<trkpt lat="42.285035" lon="3.275688"><ele>15.1</ele><time>2011-03-22T11:44:51Z</time></trkpt>
<trkpt lat="42.285133" lon="3.275750"><ele>15.8</ele><time>2011-03-22T11:44:56Z</time></trkpt>
<trkpt lat="42.285237" lon="3.275682"><ele>15.6</ele><time>2011-03-22T11:45:01Z</time></trkpt>
<trkpt lat="42.285287" lon="3.275652"><ele>16.5</ele><time>2011-03-22T11:45:06Z</time></trkpt>
<trkpt lat="42.285317" lon="3.275558"><ele>16.8</ele><time>2011-03-22T11:45:11Z</time></trkpt>
<trkpt lat="42.285320" lon="3.275550"><ele>16.6</ele><time>2011-03-22T11:45:16Z</time></trkpt>
<trkpt lat="42.285317" lon="3.275547"><ele>16.6</ele><time>2011-03-22T11:45:21Z</time></trkpt>
<trkpt lat="42.285317" lon="3.275550"><ele>16.3</ele><time>2011-03-22T11:45:26Z</time></trkpt>
<trkpt lat="42.285317" lon="3.275548"><ele>15.9</ele><time>2011-03-22T11:45:31Z</time></trkpt>
<trkpt lat="42.285293" lon="3.275595"><ele>15.3</ele><time>2011-03-22T11:45:36Z</time></trkpt>
<trkpt lat="42.285308" lon="3.275627"><ele>15.1</ele><time>2011-03-22T11:45:41Z</time></trkpt>
<trkpt lat="42.285332" lon="3.275523"><ele>16.9</ele><time>2011-03-22T11:45:46Z</time></trkpt>
<trkpt lat="42.285340" lon="3.275427"><ele>18.5</ele><time>2011-03-22T11:45:51Z</time></trkpt>
<trkpt lat="42.285347" lon="3.275342"><ele>19.4</ele><time>2011-03-22T11:45:56Z</time></trkpt>
<trkpt lat="42.285347" lon="3.275267"><ele>20.8</ele><time>2011-03-22T11:46:01Z</time></trkpt>
<trkpt lat="42.285378" lon="3.275177"><ele>22.3</ele><time>2011-03-22T11:46:06Z</time></trkpt>
<trkpt lat="42.285432" lon="3.275097"><ele>22.6</ele><time>2011-03-22T11:46:11Z</time></trkpt>
<trkpt lat="42.285480" lon="3.275010"><ele>23</ele><time>2011-03-22T11:46:16Z</time></trkpt>
<trkpt lat="42.285533" lon="3.274923"><ele>23.8</ele><time>2011-03-22T11:46:21Z</time></trkpt>
<trkpt lat="42.285577" lon="3.274827"><ele>24.4</ele><time>2011-03-22T11:46:26Z</time></trkpt>
<trkpt lat="42.285640" lon="3.274783"><ele>25</ele><time>2011-03-22T11:46:31Z</time></trkpt>
<trkpt lat="42.285770" lon="3.274922"><ele>23.8</ele><time>2011-03-22T11:46:36Z</time></trkpt>
<trkpt lat="42.285888" lon="3.275070"><ele>23.8</ele><time>2011-03-22T11:46:41Z</time></trkpt>
<trkpt lat="42.285968" lon="3.275157"><ele>23.8</ele><time>2011-03-22T11:46:46Z</time></trkpt>
<trkpt lat="42.286042" lon="3.275257"><ele>23.5</ele><time>2011-03-22T11:46:51Z</time></trkpt>
<trkpt lat="42.286113" lon="3.275370"><ele>23.3</ele><time>2011-03-22T11:46:56Z</time></trkpt>
<trkpt lat="42.286205" lon="3.275345"><ele>24</ele><time>2011-03-22T11:47:01Z</time></trkpt>
<trkpt lat="42.286252" lon="3.275257"><ele>25.2</ele><time>2011-03-22T11:47:06Z</time></trkpt>
<trkpt lat="42.286308" lon="3.275177"><ele>26.6</ele><time>2011-03-22T11:47:11Z</time></trkpt>
<trkpt lat="42.286365" lon="3.275092"><ele>27.9</ele><time>2011-03-22T11:47:16Z</time></trkpt>
<trkpt lat="42.286407" lon="3.274997"><ele>29</ele><time>2011-03-22T11:47:21Z</time></trkpt>
<trkpt lat="42.286445" lon="3.274902"><ele>30</ele><time>2011-03-22T11:47:26Z</time></trkpt>
<trkpt lat="42.286498" lon="3.274817"><ele>31.1</ele><time>2011-03-22T11:47:31Z</time></trkpt>
<trkpt lat="42.286598" lon="3.274798"><ele>30.8</ele><time>2011-03-22T11:47:36Z</time></trkpt>
<trkpt lat="42.286747" lon="3.274908"><ele>27.9</ele><time>2011-03-22T11:47:41Z</time></trkpt>
<trkpt lat="42.286903" lon="3.275048"><ele>24.5</ele><time>2011-03-22T11:47:46Z</time></trkpt>
<trkpt lat="42.286972" lon="3.275148"><ele>22.3</ele><time>2011-03-22T11:47:51Z</time></trkpt>
<trkpt lat="42.287057" lon="3.275070"><ele>21.7</ele><time>2011-03-22T11:47:56Z</time></trkpt>
<trkpt lat="42.287132" lon="3.274972"><ele>21.4</ele><time>2011-03-22T11:48:01Z</time></trkpt>
<trkpt lat="42.287235" lon="3.274843"><ele>20.9</ele><time>2011-03-22T11:48:06Z</time></trkpt>
<trkpt lat="42.287383" lon="3.274660"><ele>20.5</ele><time>2011-03-22T11:48:11Z</time></trkpt>
<trkpt lat="42.287552" lon="3.274468"><ele>20.4</ele><time>2011-03-22T11:48:16Z</time></trkpt>
<trkpt lat="42.287720" lon="3.274297"><ele>22.7</ele><time>2011-03-22T11:48:21Z</time></trkpt>
<trkpt lat="42.287838" lon="3.274168"><ele>26.5</ele><time>2011-03-22T11:48:26Z</time></trkpt>
<trkpt lat="42.287972" lon="3.274043"><ele>26.6</ele><time>2011-03-22T11:48:31Z</time></trkpt>
<trkpt lat="42.288188" lon="3.273925"><ele>24.6</ele><time>2011-03-22T11:48:36Z</time></trkpt>
<trkpt lat="42.288407" lon="3.273838"><ele>21.1</ele><time>2011-03-22T11:48:41Z</time></trkpt>
<trkpt lat="42.288558" lon="3.273837"><ele>17.6</ele><time>2011-03-22T11:48:46Z</time></trkpt>
<trkpt lat="42.288727" lon="3.273973"><ele>14.7</ele><time>2011-03-22T11:48:51Z</time></trkpt>
<trkpt lat="42.288768" lon="3.274103"><ele>15.5</ele><time>2011-03-22T11:48:56Z</time></trkpt>
<trkpt lat="42.288880" lon="3.274250"><ele>14.1</ele><time>2011-03-22T11:49:01Z</time></trkpt>
<trkpt lat="42.289078" lon="3.274280"><ele>12.4</ele><time>2011-03-22T11:49:06Z</time></trkpt>
<trkpt lat="42.289292" lon="3.274275"><ele>11.5</ele><time>2011-03-22T11:49:11Z</time></trkpt>
<trkpt lat="42.289493" lon="3.274285"><ele>10.4</ele><time>2011-03-22T11:49:16Z</time></trkpt>
<trkpt lat="42.289730" lon="3.274278"><ele>9.3</ele><time>2011-03-22T11:49:21Z</time></trkpt>
<trkpt lat="42.289905" lon="3.274257"><ele>10.1</ele><time>2011-03-22T11:49:26Z</time></trkpt>
<trkpt lat="42.289978" lon="3.274380"><ele>10.1</ele><time>2011-03-22T11:49:31Z</time></trkpt>
<trkpt lat="42.290020" lon="3.274675"><ele>8.8</ele><time>2011-03-22T11:49:36Z</time></trkpt>
<trkpt lat="42.290062" lon="3.274995"><ele>8</ele><time>2011-03-22T11:49:41Z</time></trkpt>
<trkpt lat="42.290073" lon="3.275307"><ele>7.7</ele><time>2011-03-22T11:49:46Z</time></trkpt>
<trkpt lat="42.290038" lon="3.275582"><ele>7.8</ele><time>2011-03-22T11:49:51Z</time></trkpt>
<trkpt lat="42.290002" lon="3.275792"><ele>8.8</ele><time>2011-03-22T11:49:56Z</time></trkpt>
<trkpt lat="42.289993" lon="3.275913"><ele>8.8</ele><time>2011-03-22T11:50:01Z</time></trkpt>
<trkpt lat="42.290077" lon="3.275990"><ele>9.4</ele><time>2011-03-22T11:50:06Z</time></trkpt>
<trkpt lat="42.290120" lon="3.276087"><ele>10.9</ele><time>2011-03-22T11:50:11Z</time></trkpt>
<trkpt lat="42.290147" lon="3.276185"><ele>12.5</ele><time>2011-03-22T11:50:16Z</time></trkpt>
<trkpt lat="42.290165" lon="3.276283"><ele>14.4</ele><time>2011-03-22T11:50:21Z</time></trkpt>
<trkpt lat="42.290183" lon="3.276383"><ele>15.8</ele><time>2011-03-22T11:50:26Z</time></trkpt>
<trkpt lat="42.290203" lon="3.276487"><ele>16.6</ele><time>2011-03-22T11:50:31Z</time></trkpt>
<trkpt lat="42.290215" lon="3.276597"><ele>17.6</ele><time>2011-03-22T11:50:36Z</time></trkpt>
<trkpt lat="42.290195" lon="3.276700"><ele>19.3</ele><time>2011-03-22T11:50:41Z</time></trkpt>
<trkpt lat="42.290188" lon="3.276807"><ele>19.9</ele><time>2011-03-22T11:50:46Z</time></trkpt>
<trkpt lat="42.290183" lon="3.276920"><ele>20.4</ele><time>2011-03-22T11:50:51Z</time></trkpt>
<trkpt lat="42.290200" lon="3.277027"><ele>21.4</ele><time>2011-03-22T11:50:56Z</time></trkpt>
<trkpt lat="42.290242" lon="3.277145"><ele>21.8</ele><time>2011-03-22T11:51:01Z</time></trkpt>
<trkpt lat="42.290263" lon="3.277295"><ele>21.9</ele><time>2011-03-22T11:51:06Z</time></trkpt>
<trkpt lat="42.290310" lon="3.277462"><ele>21.8</ele><time>2011-03-22T11:51:11Z</time></trkpt>
<trkpt lat="42.290375" lon="3.277620"><ele>22</ele><time>2011-03-22T11:51:16Z</time></trkpt>
<trkpt lat="42.290443" lon="3.277805"><ele>21.9</ele><time>2011-03-22T11:51:21Z</time></trkpt>
<trkpt lat="42.290570" lon="3.278017"><ele>20.4</ele><time>2011-03-22T11:51:26Z</time></trkpt>
<trkpt lat="42.290742" lon="3.278333"><ele>14.3</ele><time>2011-03-22T11:51:31Z</time></trkpt>
<trkpt lat="42.290852" lon="3.278588"><ele>13.1</ele><time>2011-03-22T11:51:36Z</time></trkpt>
<trkpt lat="42.290798" lon="3.278740"><ele>13.6</ele><time>2011-03-22T11:51:41Z</time></trkpt>
<trkpt lat="42.290672" lon="3.278757"><ele>15.8</ele><time>2011-03-22T11:51:46Z</time></trkpt>
<trkpt lat="42.290588" lon="3.278828"><ele>17.7</ele><time>2011-03-22T11:51:51Z</time></trkpt>
<trkpt lat="42.290527" lon="3.278863"><ele>22.4</ele><time>2011-03-22T11:51:56Z</time></trkpt>
<trkpt lat="42.290462" lon="3.278908"><ele>26.5</ele><time>2011-03-22T11:52:01Z</time></trkpt>
<trkpt lat="42.290405" lon="3.278965"><ele>29.8</ele><time>2011-03-22T11:52:06Z</time></trkpt>
<trkpt lat="42.290352" lon="3.279020"><ele>31.7</ele><time>2011-03-22T11:52:11Z</time></trkpt>
<trkpt lat="42.290280" lon="3.279088"><ele>32.7</ele><time>2011-03-22T11:52:16Z</time></trkpt>
<trkpt lat="42.290168" lon="3.279153"><ele>33</ele><time>2011-03-22T11:52:21Z</time></trkpt>
<trkpt lat="42.290062" lon="3.279225"><ele>32.9</ele><time>2011-03-22T11:52:26Z</time></trkpt>
<trkpt lat="42.289955" lon="3.279317"><ele>32.6</ele><time>2011-03-22T11:52:31Z</time></trkpt>
<trkpt lat="42.289852" lon="3.279405"><ele>30.2</ele><time>2011-03-22T11:52:36Z</time></trkpt>
<trkpt lat="42.289803" lon="3.279422"><ele>28.9</ele><time>2011-03-22T11:52:41Z</time></trkpt>
<trkpt lat="42.289780" lon="3.279408"><ele>30.2</ele><time>2011-03-22T11:52:46Z</time></trkpt>
<trkpt lat="42.289777" lon="3.279437"><ele>29.8</ele><time>2011-03-22T11:52:51Z</time></trkpt>
<trkpt lat="42.289772" lon="3.279445"><ele>30.5</ele><time>2011-03-22T11:52:56Z</time></trkpt>
<trkpt lat="42.289780" lon="3.279435"><ele>32.3</ele><time>2011-03-22T11:53:01Z</time></trkpt>
<trkpt lat="42.289760" lon="3.279463"><ele>33.1</ele><time>2011-03-22T11:53:06Z</time></trkpt>
<trkpt lat="42.289727" lon="3.279472"><ele>35.5</ele><time>2011-03-22T11:53:11Z</time></trkpt>
<trkpt lat="42.289718" lon="3.279493"><ele>36.3</ele><time>2011-03-22T11:53:16Z</time></trkpt>
<trkpt lat="42.289757" lon="3.279462"><ele>28.4</ele><time>2011-03-22T11:53:21Z</time></trkpt>
<trkpt lat="42.289768" lon="3.279442"><ele>23.6</ele><time>2011-03-22T11:53:26Z</time></trkpt>
<trkpt lat="42.289765" lon="3.279428"><ele>20.1</ele><time>2011-03-22T11:53:31Z</time></trkpt>
<trkpt lat="42.289777" lon="3.279433"><ele>16.2</ele><time>2011-03-22T11:53:38Z</time></trkpt>
<trkpt lat="42.289792" lon="3.279428"><ele>14.3</ele><time>2011-03-22T11:53:43Z</time></trkpt>
<trkpt lat="42.289772" lon="3.279432"><ele>12.7</ele><time>2011-03-22T11:53:48Z</time></trkpt>
<trkpt lat="42.289783" lon="3.279442"><ele>14.9</ele><time>2011-03-22T11:53:53Z</time></trkpt>
<trkpt lat="42.289760" lon="3.279433"><ele>18.4</ele><time>2011-03-22T11:53:58Z</time></trkpt>
<trkpt lat="42.289753" lon="3.279477"><ele>21.2</ele><time>2011-03-22T11:54:06Z</time></trkpt>
<trkpt lat="42.289822" lon="3.279500"><ele>19.3</ele><time>2011-03-22T11:54:11Z</time></trkpt>
<trkpt lat="42.289783" lon="3.279470"><ele>16.9</ele><time>2011-03-22T11:54:16Z</time></trkpt>
<trkpt lat="42.289825" lon="3.279462"><ele>18.9</ele><time>2011-03-22T11:54:21Z</time></trkpt>
<trkpt lat="42.289837" lon="3.279510"><ele>24.5</ele><time>2011-03-22T11:54:26Z</time></trkpt>
<trkpt lat="42.289840" lon="3.279505"><ele>21.8</ele><time>2011-03-22T11:54:31Z</time></trkpt>
<trkpt lat="42.289822" lon="3.279470"><ele>24.2</ele><time>2011-03-22T11:54:36Z</time></trkpt>
<trkpt lat="42.289803" lon="3.279532"><ele>25.7</ele><time>2011-03-22T11:54:41Z</time></trkpt>
<trkpt lat="42.289798" lon="3.279518"><ele>28.1</ele><time>2011-03-22T11:54:49Z</time></trkpt>
</trkseg></trk></gpx>